<?xml version="1.0" encoding="UTF-8" standalone="no" ?>
<gpx xmlns="http://www.topografix.com/GPX/1/1" xmlns:xsi="http://www.w3.org/2001/XMLSchema-instance" xsi:schemaLocation="http://www.topografix.com/GPX/1/1 http://www.topografix.com/GPX/1/1/gpx.xsd" version="1.1" creator="VisuGPX - https://www.visugpx.com">
  <metadata>
    <name>en passant par les deux amants</name>
    <desc><![CDATA[sortie avec de beaux panoramas]]></desc>
  </metadata>
  <trk>
    <name><![CDATA[2018-05-29 21:31:51]]></name>
    <trkseg>
      <trkpt lat="49.31266" lon="1.23827">
        <ele>10.23</ele>
        <time>2018-05-29T08:43:36Z</time>
      </trkpt>
      <trkpt lat="49.31265" lon="1.23895">
        <ele>10.23</ele>
        <time>2018-05-29T08:43:46Z</time>
      </trkpt>
      <trkpt lat="49.31248" lon="1.24007">
        <ele>11.67</ele>
        <time>2018-05-29T08:44:02Z</time>
      </trkpt>
      <trkpt lat="49.31249" lon="1.24015">
        <ele>11.67</ele>
        <time>2018-05-29T08:44:03Z</time>
      </trkpt>
      <trkpt lat="49.31251" lon="1.24023">
        <ele>11.67</ele>
        <time>2018-05-29T08:44:04Z</time>
      </trkpt>
      <trkpt lat="49.31254" lon="1.24029">
        <ele>11.67</ele>
        <time>2018-05-29T08:44:05Z</time>
      </trkpt>
      <trkpt lat="49.31257" lon="1.24036">
        <ele>11.67</ele>
        <time>2018-05-29T08:44:06Z</time>
      </trkpt>
      <trkpt lat="49.31261" lon="1.24042">
        <ele>11.67</ele>
        <time>2018-05-29T08:44:07Z</time>
      </trkpt>
      <trkpt lat="49.31294" lon="1.24095">
        <ele>11.67</ele>
        <time>2018-05-29T08:44:15Z</time>
      </trkpt>
      <trkpt lat="49.31299" lon="1.24102">
        <ele>11.67</ele>
        <time>2018-05-29T08:44:16Z</time>
      </trkpt>
      <trkpt lat="49.31303" lon="1.24108">
        <ele>11.67</ele>
        <time>2018-05-29T08:44:17Z</time>
      </trkpt>
      <trkpt lat="49.31353" lon="1.24186">
        <ele>11.67</ele>
        <time>2018-05-29T08:44:29Z</time>
      </trkpt>
      <trkpt lat="49.31426" lon="1.24303">
        <ele>13.6</ele>
        <time>2018-05-29T08:44:47Z</time>
      </trkpt>
      <trkpt lat="49.31439" lon="1.24317">
        <ele>15.52</ele>
        <time>2018-05-29T08:44:54Z</time>
      </trkpt>
      <trkpt lat="49.31442" lon="1.24317">
        <ele>15.52</ele>
        <time>2018-05-29T08:44:55Z</time>
      </trkpt>
      <trkpt lat="49.31446" lon="1.24314">
        <ele>15.52</ele>
        <time>2018-05-29T08:44:56Z</time>
      </trkpt>
      <trkpt lat="49.31448" lon="1.2431">
        <ele>15.52</ele>
        <time>2018-05-29T08:44:57Z</time>
      </trkpt>
      <trkpt lat="49.31452" lon="1.24305">
        <ele>15.52</ele>
        <time>2018-05-29T08:44:58Z</time>
      </trkpt>
      <trkpt lat="49.3147" lon="1.24278">
        <ele>16.48</ele>
        <time>2018-05-29T08:45:03Z</time>
      </trkpt>
      <trkpt lat="49.31478" lon="1.24267">
        <ele>16.48</ele>
        <time>2018-05-29T08:45:05Z</time>
      </trkpt>
      <trkpt lat="49.31506" lon="1.24238">
        <ele>16.48</ele>
        <time>2018-05-29T08:45:11Z</time>
      </trkpt>
      <trkpt lat="49.31511" lon="1.24234">
        <ele>16.48</ele>
        <time>2018-05-29T08:45:12Z</time>
      </trkpt>
      <trkpt lat="49.3161" lon="1.24171">
        <ele>16.48</ele>
        <time>2018-05-29T08:45:30Z</time>
      </trkpt>
      <trkpt lat="49.31673" lon="1.24166">
        <ele>15.52</ele>
        <time>2018-05-29T08:45:39Z</time>
      </trkpt>
      <trkpt lat="49.31783" lon="1.24194">
        <ele>13.6</ele>
        <time>2018-05-29T08:45:53Z</time>
      </trkpt>
      <trkpt lat="49.31843" lon="1.24243">
        <ele>13.6</ele>
        <time>2018-05-29T08:46:02Z</time>
      </trkpt>
      <trkpt lat="49.31945" lon="1.24361">
        <ele>13.12</ele>
        <time>2018-05-29T08:46:20Z</time>
      </trkpt>
      <trkpt lat="49.3204" lon="1.24498">
        <ele>13.12</ele>
        <time>2018-05-29T08:46:39Z</time>
      </trkpt>
      <trkpt lat="49.32084" lon="1.24631">
        <ele>13.12</ele>
        <time>2018-05-29T08:46:53Z</time>
      </trkpt>
      <trkpt lat="49.3213" lon="1.24796">
        <ele>13.12</ele>
        <time>2018-05-29T08:47:10Z</time>
      </trkpt>
      <trkpt lat="49.32159" lon="1.24917">
        <ele>13.12</ele>
        <time>2018-05-29T08:47:23Z</time>
      </trkpt>
      <trkpt lat="49.32162" lon="1.24935">
        <ele>13.12</ele>
        <time>2018-05-29T08:47:25Z</time>
      </trkpt>
      <trkpt lat="49.32164" lon="1.24945">
        <ele>13.12</ele>
        <time>2018-05-29T08:47:26Z</time>
      </trkpt>
      <trkpt lat="49.32183" lon="1.25041">
        <ele>13.12</ele>
        <time>2018-05-29T08:47:39Z</time>
      </trkpt>
      <trkpt lat="49.32185" lon="1.25043">
        <ele>13.12</ele>
        <time>2018-05-29T08:47:40Z</time>
      </trkpt>
      <trkpt lat="49.32185" lon="1.25046">
        <ele>13.12</ele>
        <time>2018-05-29T08:47:41Z</time>
      </trkpt>
      <trkpt lat="49.32184" lon="1.25048">
        <ele>13.12</ele>
        <time>2018-05-29T08:47:42Z</time>
      </trkpt>
      <trkpt lat="49.32183" lon="1.25047">
        <ele>13.12</ele>
        <time>2018-05-29T08:47:43Z</time>
      </trkpt>
      <trkpt lat="49.32182" lon="1.25046">
        <ele>13.12</ele>
        <time>2018-05-29T08:47:44Z</time>
      </trkpt>
      <trkpt lat="49.32181" lon="1.25043">
        <ele>13.12</ele>
        <time>2018-05-29T08:47:45Z</time>
      </trkpt>
      <trkpt lat="49.3218" lon="1.25041">
        <ele>13.12</ele>
        <time>2018-05-29T08:47:46Z</time>
      </trkpt>
      <trkpt lat="49.32175" lon="1.25029">
        <ele>14.08</ele>
        <time>2018-05-29T08:47:51Z</time>
      </trkpt>
      <trkpt lat="49.32164" lon="1.25008">
        <ele>17.44</ele>
        <time>2018-05-29T08:48:00Z</time>
      </trkpt>
      <trkpt lat="49.32154" lon="1.24986">
        <ele>20.81</ele>
        <time>2018-05-29T08:48:09Z</time>
      </trkpt>
      <trkpt lat="49.32146" lon="1.24975">
        <ele>23.69</ele>
        <time>2018-05-29T08:48:15Z</time>
      </trkpt>
      <trkpt lat="49.32145" lon="1.24973">
        <ele>23.69</ele>
        <time>2018-05-29T08:48:16Z</time>
      </trkpt>
      <trkpt lat="49.32137" lon="1.24954">
        <ele>27.05</ele>
        <time>2018-05-29T08:48:25Z</time>
      </trkpt>
      <trkpt lat="49.32129" lon="1.24938">
        <ele>30.42</ele>
        <time>2018-05-29T08:48:34Z</time>
      </trkpt>
      <trkpt lat="49.32127" lon="1.24932">
        <ele>30.9</ele>
        <time>2018-05-29T08:48:37Z</time>
      </trkpt>
      <trkpt lat="49.32126" lon="1.2493">
        <ele>31.86</ele>
        <time>2018-05-29T08:48:38Z</time>
      </trkpt>
      <trkpt lat="49.32125" lon="1.24929">
        <ele>31.86</ele>
        <time>2018-05-29T08:48:39Z</time>
      </trkpt>
      <trkpt lat="49.32119" lon="1.24918">
        <ele>34.74</ele>
        <time>2018-05-29T08:48:46Z</time>
      </trkpt>
      <trkpt lat="49.32116" lon="1.24913">
        <ele>36.67</ele>
        <time>2018-05-29T08:48:57Z</time>
      </trkpt>
      <trkpt lat="49.3211" lon="1.249">
        <ele>39.55</ele>
        <time>2018-05-29T08:49:12Z</time>
      </trkpt>
      <trkpt lat="49.32106" lon="1.24892">
        <ele>41.47</ele>
        <time>2018-05-29T08:49:27Z</time>
      </trkpt>
      <trkpt lat="49.32099" lon="1.24879">
        <ele>43.88</ele>
        <time>2018-05-29T08:49:43Z</time>
      </trkpt>
      <trkpt lat="49.3209" lon="1.24865">
        <ele>46.76</ele>
        <time>2018-05-29T08:49:53Z</time>
      </trkpt>
      <trkpt lat="49.32085" lon="1.24858">
        <ele>47.72</ele>
        <time>2018-05-29T08:50:07Z</time>
      </trkpt>
      <trkpt lat="49.32075" lon="1.24842">
        <ele>50.61</ele>
        <time>2018-05-29T08:50:17Z</time>
      </trkpt>
      <trkpt lat="49.32073" lon="1.24839">
        <ele>51.57</ele>
        <time>2018-05-29T08:50:19Z</time>
      </trkpt>
      <trkpt lat="49.32064" lon="1.24829">
        <ele>54.45</ele>
        <time>2018-05-29T08:50:27Z</time>
      </trkpt>
      <trkpt lat="49.32055" lon="1.2482">
        <ele>57.82</ele>
        <time>2018-05-29T08:50:39Z</time>
      </trkpt>
      <trkpt lat="49.32049" lon="1.24813">
        <ele>59.74</ele>
        <time>2018-05-29T08:50:52Z</time>
      </trkpt>
      <trkpt lat="49.32044" lon="1.24807">
        <ele>60.22</ele>
        <time>2018-05-29T08:51:07Z</time>
      </trkpt>
      <trkpt lat="49.32034" lon="1.24793">
        <ele>62.62</ele>
        <time>2018-05-29T08:51:17Z</time>
      </trkpt>
      <trkpt lat="49.32029" lon="1.24791">
        <ele>64.07</ele>
        <time>2018-05-29T08:51:27Z</time>
      </trkpt>
      <trkpt lat="49.32019" lon="1.24781">
        <ele>67.43</ele>
        <time>2018-05-29T08:51:43Z</time>
      </trkpt>
      <trkpt lat="49.3201" lon="1.24777">
        <ele>70.31</ele>
        <time>2018-05-29T08:51:57Z</time>
      </trkpt>
      <trkpt lat="49.32003" lon="1.24773">
        <ele>72.72</ele>
        <time>2018-05-29T08:52:09Z</time>
      </trkpt>
      <trkpt lat="49.31995" lon="1.24766">
        <ele>74.64</ele>
        <time>2018-05-29T08:52:22Z</time>
      </trkpt>
      <trkpt lat="49.31985" lon="1.24762">
        <ele>77.04</ele>
        <time>2018-05-29T08:52:38Z</time>
      </trkpt>
      <trkpt lat="49.31971" lon="1.24756">
        <ele>80.89</ele>
        <time>2018-05-29T08:52:50Z</time>
      </trkpt>
      <trkpt lat="49.31962" lon="1.24748">
        <ele>84.25</ele>
        <time>2018-05-29T08:53:00Z</time>
      </trkpt>
      <trkpt lat="49.31956" lon="1.24744">
        <ele>85.69</ele>
        <time>2018-05-29T08:53:12Z</time>
      </trkpt>
      <trkpt lat="49.31953" lon="1.24739">
        <ele>89.06</ele>
        <time>2018-05-29T08:53:26Z</time>
      </trkpt>
      <trkpt lat="49.31951" lon="1.24737">
        <ele>91.46</ele>
        <time>2018-05-29T08:53:38Z</time>
      </trkpt>
      <trkpt lat="49.31949" lon="1.24739">
        <ele>92.9</ele>
        <time>2018-05-29T08:53:54Z</time>
      </trkpt>
      <trkpt lat="49.31943" lon="1.24743">
        <ele>94.35</ele>
        <time>2018-05-29T08:53:59Z</time>
      </trkpt>
      <trkpt lat="49.31938" lon="1.24747">
        <ele>95.31</ele>
        <time>2018-05-29T08:54:02Z</time>
      </trkpt>
      <trkpt lat="49.31933" lon="1.24754">
        <ele>97.23</ele>
        <time>2018-05-29T08:54:07Z</time>
      </trkpt>
      <trkpt lat="49.31926" lon="1.24758">
        <ele>99.15</ele>
        <time>2018-05-29T08:54:12Z</time>
      </trkpt>
      <trkpt lat="49.31918" lon="1.24763">
        <ele>101.08</ele>
        <time>2018-05-29T08:54:25Z</time>
      </trkpt>
      <trkpt lat="49.31914" lon="1.24759">
        <ele>103.96</ele>
        <time>2018-05-29T08:54:39Z</time>
      </trkpt>
      <trkpt lat="49.31915" lon="1.24751">
        <ele>105.88</ele>
        <time>2018-05-29T08:54:50Z</time>
      </trkpt>
      <trkpt lat="49.31915" lon="1.24739">
        <ele>108.29</ele>
        <time>2018-05-29T08:55:03Z</time>
      </trkpt>
      <trkpt lat="49.31922" lon="1.24728">
        <ele>109.73</ele>
        <time>2018-05-29T08:55:19Z</time>
      </trkpt>
      <trkpt lat="49.31916" lon="1.24724">
        <ele>112.61</ele>
        <time>2018-05-29T08:55:30Z</time>
      </trkpt>
      <trkpt lat="49.3191" lon="1.24719">
        <ele>115.01</ele>
        <time>2018-05-29T08:55:42Z</time>
      </trkpt>
      <trkpt lat="49.31904" lon="1.24718">
        <ele>117.9</ele>
        <time>2018-05-29T08:55:55Z</time>
      </trkpt>
      <trkpt lat="49.31904" lon="1.24712">
        <ele>119.82</ele>
        <time>2018-05-29T08:56:10Z</time>
      </trkpt>
      <trkpt lat="49.31906" lon="1.24709">
        <ele>120.3</ele>
        <time>2018-05-29T08:56:21Z</time>
      </trkpt>
      <trkpt lat="49.31909" lon="1.24699">
        <ele>121.74</ele>
        <time>2018-05-29T08:56:32Z</time>
      </trkpt>
      <trkpt lat="49.31915" lon="1.24686">
        <ele>124.15</ele>
        <time>2018-05-29T08:56:43Z</time>
      </trkpt>
      <trkpt lat="49.31923" lon="1.24675">
        <ele>125.11</ele>
        <time>2018-05-29T08:56:58Z</time>
      </trkpt>
      <trkpt lat="49.31932" lon="1.2464">
        <ele>128.47</ele>
        <time>2018-05-29T08:57:10Z</time>
      </trkpt>
      <trkpt lat="49.31933" lon="1.24635">
        <ele>128.95</ele>
        <time>2018-05-29T08:57:12Z</time>
      </trkpt>
      <trkpt lat="49.31932" lon="1.24631">
        <ele>129.43</ele>
        <time>2018-05-29T08:57:15Z</time>
      </trkpt>
      <trkpt lat="49.31909" lon="1.2463">
        <ele>129.92</ele>
        <time>2018-05-29T08:57:28Z</time>
      </trkpt>
      <trkpt lat="49.319" lon="1.2463">
        <ele>130.4</ele>
        <time>2018-05-29T08:57:43Z</time>
      </trkpt>
      <trkpt lat="49.31888" lon="1.24638">
        <ele>133.76</ele>
        <time>2018-05-29T08:57:54Z</time>
      </trkpt>
      <trkpt lat="49.3188" lon="1.24648">
        <ele>136.16</ele>
        <time>2018-05-29T08:58:01Z</time>
      </trkpt>
      <trkpt lat="49.31865" lon="1.24663">
        <ele>139.53</ele>
        <time>2018-05-29T08:58:11Z</time>
      </trkpt>
      <trkpt lat="49.31855" lon="1.24672">
        <ele>141.93</ele>
        <time>2018-05-29T08:58:18Z</time>
      </trkpt>
      <trkpt lat="49.3184" lon="1.24689">
        <ele>145.78</ele>
        <time>2018-05-29T08:58:29Z</time>
      </trkpt>
      <trkpt lat="49.31824" lon="1.24711">
        <ele>148.18</ele>
        <time>2018-05-29T08:58:43Z</time>
      </trkpt>
      <trkpt lat="49.31807" lon="1.24727">
        <ele>148.66</ele>
        <time>2018-05-29T08:58:55Z</time>
      </trkpt>
      <trkpt lat="49.3179" lon="1.24738">
        <ele>148.66</ele>
        <time>2018-05-29T08:59:05Z</time>
      </trkpt>
      <trkpt lat="49.31771" lon="1.24775">
        <ele>148.66</ele>
        <time>2018-05-29T08:59:17Z</time>
      </trkpt>
      <trkpt lat="49.31767" lon="1.24837">
        <ele>148.66</ele>
        <time>2018-05-29T08:59:28Z</time>
      </trkpt>
      <trkpt lat="49.31759" lon="1.24883">
        <ele>148.66</ele>
        <time>2018-05-29T08:59:37Z</time>
      </trkpt>
      <trkpt lat="49.31756" lon="1.24883">
        <ele>148.66</ele>
        <time>2018-05-29T08:59:38Z</time>
      </trkpt>
      <trkpt lat="49.31753" lon="1.24883">
        <ele>148.66</ele>
        <time>2018-05-29T08:59:39Z</time>
      </trkpt>
      <trkpt lat="49.3175" lon="1.2488">
        <ele>148.66</ele>
        <time>2018-05-29T08:59:40Z</time>
      </trkpt>
      <trkpt lat="49.31748" lon="1.24876">
        <ele>148.66</ele>
        <time>2018-05-29T08:59:41Z</time>
      </trkpt>
      <trkpt lat="49.31747" lon="1.24871">
        <ele>148.66</ele>
        <time>2018-05-29T08:59:42Z</time>
      </trkpt>
      <trkpt lat="49.31746" lon="1.24866">
        <ele>148.66</ele>
        <time>2018-05-29T08:59:43Z</time>
      </trkpt>
      <trkpt lat="49.31745" lon="1.2486">
        <ele>148.66</ele>
        <time>2018-05-29T08:59:44Z</time>
      </trkpt>
      <trkpt lat="49.31743" lon="1.24854">
        <ele>148.66</ele>
        <time>2018-05-29T08:59:45Z</time>
      </trkpt>
      <trkpt lat="49.31712" lon="1.24772">
        <ele>145.78</ele>
        <time>2018-05-29T08:59:57Z</time>
      </trkpt>
      <trkpt lat="49.31707" lon="1.24756">
        <ele>144.34</ele>
        <time>2018-05-29T08:59:59Z</time>
      </trkpt>
      <trkpt lat="49.31703" lon="1.24733">
        <ele>143.37</ele>
        <time>2018-05-29T09:00:02Z</time>
      </trkpt>
      <trkpt lat="49.317" lon="1.24727">
        <ele>142.41</ele>
        <time>2018-05-29T09:00:03Z</time>
      </trkpt>
      <trkpt lat="49.31698" lon="1.24722">
        <ele>142.41</ele>
        <time>2018-05-29T09:00:04Z</time>
      </trkpt>
      <trkpt lat="49.31696" lon="1.24716">
        <ele>141.45</ele>
        <time>2018-05-29T09:00:05Z</time>
      </trkpt>
      <trkpt lat="49.31694" lon="1.2471">
        <ele>141.45</ele>
        <time>2018-05-29T09:00:06Z</time>
      </trkpt>
      <trkpt lat="49.31693" lon="1.24708">
        <ele>140.97</ele>
        <time>2018-05-29T09:00:07Z</time>
      </trkpt>
      <trkpt lat="49.3169" lon="1.24696">
        <ele>140.49</ele>
        <time>2018-05-29T09:00:08Z</time>
      </trkpt>
      <trkpt lat="49.31679" lon="1.24647">
        <ele>137.13</ele>
        <time>2018-05-29T09:00:13Z</time>
      </trkpt>
      <trkpt lat="49.31677" lon="1.24636">
        <ele>137.13</ele>
        <time>2018-05-29T09:00:14Z</time>
      </trkpt>
      <trkpt lat="49.31671" lon="1.2461">
        <ele>135.68</ele>
        <time>2018-05-29T09:00:16Z</time>
      </trkpt>
      <trkpt lat="49.31659" lon="1.24569">
        <ele>132.8</ele>
        <time>2018-05-29T09:00:19Z</time>
      </trkpt>
      <trkpt lat="49.31642" lon="1.24501">
        <ele>129.43</ele>
        <time>2018-05-29T09:00:25Z</time>
      </trkpt>
      <trkpt lat="49.31633" lon="1.24467">
        <ele>127.03</ele>
        <time>2018-05-29T09:00:29Z</time>
      </trkpt>
      <trkpt lat="49.31623" lon="1.24425">
        <ele>123.19</ele>
        <time>2018-05-29T09:00:37Z</time>
      </trkpt>
      <trkpt lat="49.31622" lon="1.24421">
        <ele>122.71</ele>
        <time>2018-05-29T09:00:47Z</time>
      </trkpt>
      <trkpt lat="49.31621" lon="1.24422">
        <ele>122.71</ele>
        <time>2018-05-29T09:00:48Z</time>
      </trkpt>
      <trkpt lat="49.3162" lon="1.24422">
        <ele>122.22</ele>
        <time>2018-05-29T09:01:03Z</time>
      </trkpt>
      <trkpt lat="49.31622" lon="1.24421">
        <ele>121.74</ele>
        <time>2018-05-29T09:01:46Z</time>
      </trkpt>
      <trkpt lat="49.31623" lon="1.2442">
        <ele>121.74</ele>
        <time>2018-05-29T09:02:32Z</time>
      </trkpt>
      <trkpt lat="49.31622" lon="1.24421">
        <ele>121.74</ele>
        <time>2018-05-29T09:02:54Z</time>
      </trkpt>
      <trkpt lat="49.31621" lon="1.24421">
        <ele>121.74</ele>
        <time>2018-05-29T09:03:15Z</time>
      </trkpt>
      <trkpt lat="49.3162" lon="1.24424">
        <ele>121.26</ele>
        <time>2018-05-29T09:03:53Z</time>
      </trkpt>
      <trkpt lat="49.3162" lon="1.24424">
        <ele>121.26</ele>
        <time>2018-05-29T09:04:38Z</time>
      </trkpt>
      <trkpt lat="49.31623" lon="1.24424">
        <ele>120.78</ele>
        <time>2018-05-29T09:04:56Z</time>
      </trkpt>
      <trkpt lat="49.31625" lon="1.24426">
        <ele>122.22</ele>
        <time>2018-05-29T09:05:00Z</time>
      </trkpt>
      <trkpt lat="49.31626" lon="1.24429">
        <ele>122.22</ele>
        <time>2018-05-29T09:05:18Z</time>
      </trkpt>
      <trkpt lat="49.31635" lon="1.24461">
        <ele>125.11</ele>
        <time>2018-05-29T09:05:30Z</time>
      </trkpt>
      <trkpt lat="49.31648" lon="1.24512">
        <ele>127.99</ele>
        <time>2018-05-29T09:05:46Z</time>
      </trkpt>
      <trkpt lat="49.31662" lon="1.24565">
        <ele>129.92</ele>
        <time>2018-05-29T09:06:02Z</time>
      </trkpt>
      <trkpt lat="49.31672" lon="1.24608">
        <ele>132.8</ele>
        <time>2018-05-29T09:06:16Z</time>
      </trkpt>
      <trkpt lat="49.31672" lon="1.2461">
        <ele>132.8</ele>
        <time>2018-05-29T09:06:17Z</time>
      </trkpt>
      <trkpt lat="49.31673" lon="1.24613">
        <ele>133.28</ele>
        <time>2018-05-29T09:06:18Z</time>
      </trkpt>
      <trkpt lat="49.31673" lon="1.24615">
        <ele>133.28</ele>
        <time>2018-05-29T09:06:19Z</time>
      </trkpt>
      <trkpt lat="49.31673" lon="1.24617">
        <ele>133.28</ele>
        <time>2018-05-29T09:06:20Z</time>
      </trkpt>
      <trkpt lat="49.31674" lon="1.2462">
        <ele>133.76</ele>
        <time>2018-05-29T09:06:21Z</time>
      </trkpt>
      <trkpt lat="49.31674" lon="1.24622">
        <ele>133.76</ele>
        <time>2018-05-29T09:06:22Z</time>
      </trkpt>
      <trkpt lat="49.31675" lon="1.24625">
        <ele>134.24</ele>
        <time>2018-05-29T09:06:23Z</time>
      </trkpt>
      <trkpt lat="49.31685" lon="1.24664">
        <ele>136.64</ele>
        <time>2018-05-29T09:06:35Z</time>
      </trkpt>
      <trkpt lat="49.31681" lon="1.24675">
        <ele>136.64</ele>
        <time>2018-05-29T09:06:47Z</time>
      </trkpt>
      <trkpt lat="49.31668" lon="1.24693">
        <ele>133.76</ele>
        <time>2018-05-29T09:06:53Z</time>
      </trkpt>
      <trkpt lat="49.31649" lon="1.24698">
        <ele>129.43</ele>
        <time>2018-05-29T09:07:01Z</time>
      </trkpt>
      <trkpt lat="49.31638" lon="1.24699">
        <ele>127.51</ele>
        <time>2018-05-29T09:07:05Z</time>
      </trkpt>
      <trkpt lat="49.31636" lon="1.247">
        <ele>126.55</ele>
        <time>2018-05-29T09:07:06Z</time>
      </trkpt>
      <trkpt lat="49.31634" lon="1.247">
        <ele>126.55</ele>
        <time>2018-05-29T09:07:07Z</time>
      </trkpt>
      <trkpt lat="49.31629" lon="1.24698">
        <ele>125.11</ele>
        <time>2018-05-29T09:07:10Z</time>
      </trkpt>
      <trkpt lat="49.31626" lon="1.24699">
        <ele>124.15</ele>
        <time>2018-05-29T09:07:12Z</time>
      </trkpt>
      <trkpt lat="49.31624" lon="1.247">
        <ele>123.67</ele>
        <time>2018-05-29T09:07:13Z</time>
      </trkpt>
      <trkpt lat="49.31623" lon="1.24702">
        <ele>123.67</ele>
        <time>2018-05-29T09:07:14Z</time>
      </trkpt>
      <trkpt lat="49.31607" lon="1.24732">
        <ele>125.11</ele>
        <time>2018-05-29T09:07:25Z</time>
      </trkpt>
      <trkpt lat="49.31586" lon="1.24753">
        <ele>125.59</ele>
        <time>2018-05-29T09:07:36Z</time>
      </trkpt>
      <trkpt lat="49.31581" lon="1.24758">
        <ele>125.59</ele>
        <time>2018-05-29T09:07:38Z</time>
      </trkpt>
      <trkpt lat="49.31576" lon="1.2476">
        <ele>124.15</ele>
        <time>2018-05-29T09:07:40Z</time>
      </trkpt>
      <trkpt lat="49.31571" lon="1.24765">
        <ele>123.67</ele>
        <time>2018-05-29T09:07:43Z</time>
      </trkpt>
      <trkpt lat="49.3157" lon="1.24767">
        <ele>123.67</ele>
        <time>2018-05-29T09:07:44Z</time>
      </trkpt>
      <trkpt lat="49.31546" lon="1.24788">
        <ele>123.19</ele>
        <time>2018-05-29T09:07:54Z</time>
      </trkpt>
      <trkpt lat="49.3152" lon="1.24802">
        <ele>123.19</ele>
        <time>2018-05-29T09:08:06Z</time>
      </trkpt>
      <trkpt lat="49.31518" lon="1.24804">
        <ele>123.19</ele>
        <time>2018-05-29T09:08:07Z</time>
      </trkpt>
      <trkpt lat="49.31515" lon="1.24807">
        <ele>123.19</ele>
        <time>2018-05-29T09:08:08Z</time>
      </trkpt>
      <trkpt lat="49.31512" lon="1.24809">
        <ele>123.19</ele>
        <time>2018-05-29T09:08:09Z</time>
      </trkpt>
      <trkpt lat="49.3151" lon="1.24811">
        <ele>123.19</ele>
        <time>2018-05-29T09:08:10Z</time>
      </trkpt>
      <trkpt lat="49.31503" lon="1.24812">
        <ele>124.63</ele>
        <time>2018-05-29T09:08:13Z</time>
      </trkpt>
      <trkpt lat="49.31501" lon="1.24813">
        <ele>125.11</ele>
        <time>2018-05-29T09:08:14Z</time>
      </trkpt>
      <trkpt lat="49.31481" lon="1.24818">
        <ele>127.99</ele>
        <time>2018-05-29T09:08:25Z</time>
      </trkpt>
      <trkpt lat="49.31453" lon="1.24827">
        <ele>128.95</ele>
        <time>2018-05-29T09:08:37Z</time>
      </trkpt>
      <trkpt lat="49.31449" lon="1.24831">
        <ele>129.43</ele>
        <time>2018-05-29T09:08:39Z</time>
      </trkpt>
      <trkpt lat="49.31447" lon="1.24834">
        <ele>129.43</ele>
        <time>2018-05-29T09:08:40Z</time>
      </trkpt>
      <trkpt lat="49.31445" lon="1.24837">
        <ele>129.43</ele>
        <time>2018-05-29T09:08:41Z</time>
      </trkpt>
      <trkpt lat="49.31443" lon="1.24839">
        <ele>129.92</ele>
        <time>2018-05-29T09:08:42Z</time>
      </trkpt>
      <trkpt lat="49.31442" lon="1.24842">
        <ele>129.92</ele>
        <time>2018-05-29T09:08:43Z</time>
      </trkpt>
      <trkpt lat="49.31439" lon="1.24844">
        <ele>129.92</ele>
        <time>2018-05-29T09:08:44Z</time>
      </trkpt>
      <trkpt lat="49.31437" lon="1.24847">
        <ele>130.88</ele>
        <time>2018-05-29T09:08:45Z</time>
      </trkpt>
      <trkpt lat="49.31434" lon="1.24849">
        <ele>130.88</ele>
        <time>2018-05-29T09:08:46Z</time>
      </trkpt>
      <trkpt lat="49.31431" lon="1.24852">
        <ele>130.88</ele>
        <time>2018-05-29T09:08:47Z</time>
      </trkpt>
      <trkpt lat="49.31429" lon="1.24854">
        <ele>130.88</ele>
        <time>2018-05-29T09:08:48Z</time>
      </trkpt>
      <trkpt lat="49.31426" lon="1.24857">
        <ele>130.88</ele>
        <time>2018-05-29T09:08:49Z</time>
      </trkpt>
      <trkpt lat="49.31424" lon="1.24859">
        <ele>130.88</ele>
        <time>2018-05-29T09:08:50Z</time>
      </trkpt>
      <trkpt lat="49.31423" lon="1.24862">
        <ele>131.36</ele>
        <time>2018-05-29T09:08:51Z</time>
      </trkpt>
      <trkpt lat="49.31422" lon="1.24865">
        <ele>131.84</ele>
        <time>2018-05-29T09:08:52Z</time>
      </trkpt>
      <trkpt lat="49.31413" lon="1.24894">
        <ele>133.28</ele>
        <time>2018-05-29T09:09:04Z</time>
      </trkpt>
      <trkpt lat="49.31402" lon="1.2493">
        <ele>134.24</ele>
        <time>2018-05-29T09:09:17Z</time>
      </trkpt>
      <trkpt lat="49.31403" lon="1.24941">
        <ele>133.28</ele>
        <time>2018-05-29T09:09:21Z</time>
      </trkpt>
      <trkpt lat="49.31404" lon="1.24943">
        <ele>132.8</ele>
        <time>2018-05-29T09:09:22Z</time>
      </trkpt>
      <trkpt lat="49.31422" lon="1.24972">
        <ele>128.95</ele>
        <time>2018-05-29T09:09:34Z</time>
      </trkpt>
      <trkpt lat="49.31431" lon="1.24983">
        <ele>127.51</ele>
        <time>2018-05-29T09:09:40Z</time>
      </trkpt>
      <trkpt lat="49.31433" lon="1.24984">
        <ele>127.51</ele>
        <time>2018-05-29T09:09:41Z</time>
      </trkpt>
      <trkpt lat="49.31434" lon="1.24986">
        <ele>127.51</ele>
        <time>2018-05-29T09:09:42Z</time>
      </trkpt>
      <trkpt lat="49.31438" lon="1.24993">
        <ele>127.03</ele>
        <time>2018-05-29T09:09:45Z</time>
      </trkpt>
      <trkpt lat="49.3144" lon="1.24999">
        <ele>126.07</ele>
        <time>2018-05-29T09:09:48Z</time>
      </trkpt>
      <trkpt lat="49.31441" lon="1.25001">
        <ele>126.07</ele>
        <time>2018-05-29T09:09:49Z</time>
      </trkpt>
      <trkpt lat="49.31443" lon="1.25003">
        <ele>126.07</ele>
        <time>2018-05-29T09:09:50Z</time>
      </trkpt>
      <trkpt lat="49.31444" lon="1.25006">
        <ele>126.07</ele>
        <time>2018-05-29T09:09:51Z</time>
      </trkpt>
      <trkpt lat="49.31445" lon="1.25009">
        <ele>126.07</ele>
        <time>2018-05-29T09:09:52Z</time>
      </trkpt>
      <trkpt lat="49.31446" lon="1.25012">
        <ele>125.59</ele>
        <time>2018-05-29T09:09:53Z</time>
      </trkpt>
      <trkpt lat="49.31448" lon="1.25018">
        <ele>124.63</ele>
        <time>2018-05-29T09:09:54Z</time>
      </trkpt>
      <trkpt lat="49.3145" lon="1.25024">
        <ele>124.63</ele>
        <time>2018-05-29T09:09:55Z</time>
      </trkpt>
      <trkpt lat="49.31453" lon="1.25029">
        <ele>124.15</ele>
        <time>2018-05-29T09:09:56Z</time>
      </trkpt>
      <trkpt lat="49.31456" lon="1.25034">
        <ele>124.15</ele>
        <time>2018-05-29T09:09:57Z</time>
      </trkpt>
      <trkpt lat="49.31463" lon="1.25048">
        <ele>125.59</ele>
        <time>2018-05-29T09:10:01Z</time>
      </trkpt>
      <trkpt lat="49.31467" lon="1.25098">
        <ele>126.07</ele>
        <time>2018-05-29T09:10:12Z</time>
      </trkpt>
      <trkpt lat="49.31465" lon="1.25145">
        <ele>127.51</ele>
        <time>2018-05-29T09:10:23Z</time>
      </trkpt>
      <trkpt lat="49.31464" lon="1.25161">
        <ele>127.51</ele>
        <time>2018-05-29T09:10:31Z</time>
      </trkpt>
      <trkpt lat="49.31463" lon="1.25165">
        <ele>127.51</ele>
        <time>2018-05-29T09:10:33Z</time>
      </trkpt>
      <trkpt lat="49.31462" lon="1.25168">
        <ele>127.51</ele>
        <time>2018-05-29T09:10:34Z</time>
      </trkpt>
      <trkpt lat="49.31455" lon="1.25197">
        <ele>129.92</ele>
        <time>2018-05-29T09:10:43Z</time>
      </trkpt>
      <trkpt lat="49.31454" lon="1.25217">
        <ele>133.28</ele>
        <time>2018-05-29T09:10:49Z</time>
      </trkpt>
      <trkpt lat="49.31455" lon="1.2522">
        <ele>133.76</ele>
        <time>2018-05-29T09:10:50Z</time>
      </trkpt>
      <trkpt lat="49.31456" lon="1.25222">
        <ele>134.24</ele>
        <time>2018-05-29T09:10:51Z</time>
      </trkpt>
      <trkpt lat="49.31452" lon="1.25234">
        <ele>135.2</ele>
        <time>2018-05-29T09:10:57Z</time>
      </trkpt>
      <trkpt lat="49.3145" lon="1.25237">
        <ele>135.2</ele>
        <time>2018-05-29T09:10:58Z</time>
      </trkpt>
      <trkpt lat="49.31449" lon="1.25239">
        <ele>135.2</ele>
        <time>2018-05-29T09:10:59Z</time>
      </trkpt>
      <trkpt lat="49.31441" lon="1.25256">
        <ele>136.16</ele>
        <time>2018-05-29T09:11:09Z</time>
      </trkpt>
      <trkpt lat="49.3144" lon="1.25258">
        <ele>136.64</ele>
        <time>2018-05-29T09:11:10Z</time>
      </trkpt>
      <trkpt lat="49.31439" lon="1.2526">
        <ele>136.64</ele>
        <time>2018-05-29T09:11:11Z</time>
      </trkpt>
      <trkpt lat="49.31438" lon="1.25262">
        <ele>136.64</ele>
        <time>2018-05-29T09:11:12Z</time>
      </trkpt>
      <trkpt lat="49.31437" lon="1.25264">
        <ele>136.64</ele>
        <time>2018-05-29T09:11:13Z</time>
      </trkpt>
      <trkpt lat="49.31426" lon="1.25287">
        <ele>136.64</ele>
        <time>2018-05-29T09:11:20Z</time>
      </trkpt>
      <trkpt lat="49.31425" lon="1.25289">
        <ele>136.64</ele>
        <time>2018-05-29T09:11:21Z</time>
      </trkpt>
      <trkpt lat="49.31424" lon="1.25291">
        <ele>135.68</ele>
        <time>2018-05-29T09:11:22Z</time>
      </trkpt>
      <trkpt lat="49.31422" lon="1.25294">
        <ele>135.2</ele>
        <time>2018-05-29T09:11:23Z</time>
      </trkpt>
      <trkpt lat="49.3142" lon="1.25297">
        <ele>134.24</ele>
        <time>2018-05-29T09:11:24Z</time>
      </trkpt>
      <trkpt lat="49.31418" lon="1.253">
        <ele>134.24</ele>
        <time>2018-05-29T09:11:25Z</time>
      </trkpt>
      <trkpt lat="49.31416" lon="1.25302">
        <ele>133.76</ele>
        <time>2018-05-29T09:11:26Z</time>
      </trkpt>
      <trkpt lat="49.31415" lon="1.25305">
        <ele>133.76</ele>
        <time>2018-05-29T09:11:27Z</time>
      </trkpt>
      <trkpt lat="49.31413" lon="1.25308">
        <ele>133.28</ele>
        <time>2018-05-29T09:11:28Z</time>
      </trkpt>
      <trkpt lat="49.31411" lon="1.25312">
        <ele>133.28</ele>
        <time>2018-05-29T09:11:29Z</time>
      </trkpt>
      <trkpt lat="49.3141" lon="1.25315">
        <ele>132.32</ele>
        <time>2018-05-29T09:11:30Z</time>
      </trkpt>
      <trkpt lat="49.31409" lon="1.25317">
        <ele>132.32</ele>
        <time>2018-05-29T09:11:31Z</time>
      </trkpt>
      <trkpt lat="49.31409" lon="1.2532">
        <ele>132.32</ele>
        <time>2018-05-29T09:11:32Z</time>
      </trkpt>
      <trkpt lat="49.31408" lon="1.25323">
        <ele>132.32</ele>
        <time>2018-05-29T09:11:33Z</time>
      </trkpt>
      <trkpt lat="49.31407" lon="1.25326">
        <ele>132.32</ele>
        <time>2018-05-29T09:11:34Z</time>
      </trkpt>
      <trkpt lat="49.31406" lon="1.25331">
        <ele>132.8</ele>
        <time>2018-05-29T09:11:36Z</time>
      </trkpt>
      <trkpt lat="49.31405" lon="1.25334">
        <ele>132.8</ele>
        <time>2018-05-29T09:11:37Z</time>
      </trkpt>
      <trkpt lat="49.31405" lon="1.25337">
        <ele>132.8</ele>
        <time>2018-05-29T09:11:38Z</time>
      </trkpt>
      <trkpt lat="49.31404" lon="1.2534">
        <ele>132.8</ele>
        <time>2018-05-29T09:11:39Z</time>
      </trkpt>
      <trkpt lat="49.31404" lon="1.25343">
        <ele>133.76</ele>
        <time>2018-05-29T09:11:40Z</time>
      </trkpt>
      <trkpt lat="49.31403" lon="1.25346">
        <ele>133.76</ele>
        <time>2018-05-29T09:11:41Z</time>
      </trkpt>
      <trkpt lat="49.31403" lon="1.25349">
        <ele>133.76</ele>
        <time>2018-05-29T09:11:42Z</time>
      </trkpt>
      <trkpt lat="49.31403" lon="1.25353">
        <ele>134.72</ele>
        <time>2018-05-29T09:11:43Z</time>
      </trkpt>
      <trkpt lat="49.31403" lon="1.25356">
        <ele>134.72</ele>
        <time>2018-05-29T09:11:44Z</time>
      </trkpt>
      <trkpt lat="49.31402" lon="1.25358">
        <ele>134.72</ele>
        <time>2018-05-29T09:11:45Z</time>
      </trkpt>
      <trkpt lat="49.314" lon="1.25361">
        <ele>134.72</ele>
        <time>2018-05-29T09:11:46Z</time>
      </trkpt>
      <trkpt lat="49.31399" lon="1.25364">
        <ele>134.72</ele>
        <time>2018-05-29T09:11:47Z</time>
      </trkpt>
      <trkpt lat="49.31398" lon="1.25368">
        <ele>134.72</ele>
        <time>2018-05-29T09:11:48Z</time>
      </trkpt>
      <trkpt lat="49.31397" lon="1.25371">
        <ele>134.72</ele>
        <time>2018-05-29T09:11:49Z</time>
      </trkpt>
      <trkpt lat="49.31396" lon="1.25374">
        <ele>134.72</ele>
        <time>2018-05-29T09:11:50Z</time>
      </trkpt>
      <trkpt lat="49.31388" lon="1.25401">
        <ele>131.36</ele>
        <time>2018-05-29T09:12:00Z</time>
      </trkpt>
      <trkpt lat="49.31384" lon="1.25435">
        <ele>130.4</ele>
        <time>2018-05-29T09:12:09Z</time>
      </trkpt>
      <trkpt lat="49.31382" lon="1.25441">
        <ele>130.4</ele>
        <time>2018-05-29T09:12:11Z</time>
      </trkpt>
      <trkpt lat="49.3137" lon="1.25458">
        <ele>127.03</ele>
        <time>2018-05-29T09:12:16Z</time>
      </trkpt>
      <trkpt lat="49.31342" lon="1.25475">
        <ele>125.59</ele>
        <time>2018-05-29T09:12:26Z</time>
      </trkpt>
      <trkpt lat="49.3134" lon="1.25475">
        <ele>125.11</ele>
        <time>2018-05-29T09:12:27Z</time>
      </trkpt>
      <trkpt lat="49.31338" lon="1.25476">
        <ele>125.11</ele>
        <time>2018-05-29T09:12:28Z</time>
      </trkpt>
      <trkpt lat="49.31336" lon="1.25477">
        <ele>125.11</ele>
        <time>2018-05-29T09:12:29Z</time>
      </trkpt>
      <trkpt lat="49.31334" lon="1.25477">
        <ele>125.11</ele>
        <time>2018-05-29T09:12:30Z</time>
      </trkpt>
      <trkpt lat="49.31328" lon="1.25487">
        <ele>126.55</ele>
        <time>2018-05-29T09:12:42Z</time>
      </trkpt>
      <trkpt lat="49.31327" lon="1.25488">
        <ele>126.55</ele>
        <time>2018-05-29T09:12:43Z</time>
      </trkpt>
      <trkpt lat="49.31321" lon="1.25493">
        <ele>127.03</ele>
        <time>2018-05-29T09:12:54Z</time>
      </trkpt>
      <trkpt lat="49.313" lon="1.255">
        <ele>129.43</ele>
        <time>2018-05-29T09:13:07Z</time>
      </trkpt>
      <trkpt lat="49.31295" lon="1.25503">
        <ele>129.92</ele>
        <time>2018-05-29T09:13:10Z</time>
      </trkpt>
      <trkpt lat="49.31294" lon="1.25503">
        <ele>129.92</ele>
        <time>2018-05-29T09:13:11Z</time>
      </trkpt>
      <trkpt lat="49.31292" lon="1.25504">
        <ele>129.92</ele>
        <time>2018-05-29T09:13:12Z</time>
      </trkpt>
      <trkpt lat="49.3129" lon="1.25504">
        <ele>129.92</ele>
        <time>2018-05-29T09:13:13Z</time>
      </trkpt>
      <trkpt lat="49.31287" lon="1.25504">
        <ele>129.92</ele>
        <time>2018-05-29T09:13:14Z</time>
      </trkpt>
      <trkpt lat="49.31285" lon="1.25505">
        <ele>129.92</ele>
        <time>2018-05-29T09:13:15Z</time>
      </trkpt>
      <trkpt lat="49.31273" lon="1.25511">
        <ele>130.4</ele>
        <time>2018-05-29T09:13:20Z</time>
      </trkpt>
      <trkpt lat="49.31271" lon="1.25512">
        <ele>130.88</ele>
        <time>2018-05-29T09:13:21Z</time>
      </trkpt>
      <trkpt lat="49.31267" lon="1.25515">
        <ele>130.88</ele>
        <time>2018-05-29T09:13:23Z</time>
      </trkpt>
      <trkpt lat="49.31245" lon="1.25533">
        <ele>131.36</ele>
        <time>2018-05-29T09:13:34Z</time>
      </trkpt>
      <trkpt lat="49.31242" lon="1.25534">
        <ele>129.92</ele>
        <time>2018-05-29T09:13:35Z</time>
      </trkpt>
      <trkpt lat="49.3124" lon="1.25536">
        <ele>129.92</ele>
        <time>2018-05-29T09:13:36Z</time>
      </trkpt>
      <trkpt lat="49.31239" lon="1.25538">
        <ele>129.43</ele>
        <time>2018-05-29T09:13:37Z</time>
      </trkpt>
      <trkpt lat="49.31238" lon="1.2554">
        <ele>129.43</ele>
        <time>2018-05-29T09:13:38Z</time>
      </trkpt>
      <trkpt lat="49.31237" lon="1.25543">
        <ele>129.43</ele>
        <time>2018-05-29T09:13:39Z</time>
      </trkpt>
      <trkpt lat="49.31236" lon="1.25545">
        <ele>129.43</ele>
        <time>2018-05-29T09:13:40Z</time>
      </trkpt>
      <trkpt lat="49.31235" lon="1.25548">
        <ele>130.88</ele>
        <time>2018-05-29T09:13:41Z</time>
      </trkpt>
      <trkpt lat="49.31234" lon="1.25554">
        <ele>131.36</ele>
        <time>2018-05-29T09:13:43Z</time>
      </trkpt>
      <trkpt lat="49.31227" lon="1.25565">
        <ele>132.32</ele>
        <time>2018-05-29T09:13:48Z</time>
      </trkpt>
      <trkpt lat="49.31206" lon="1.2559">
        <ele>132.8</ele>
        <time>2018-05-29T09:13:59Z</time>
      </trkpt>
      <trkpt lat="49.31196" lon="1.25604">
        <ele>132.8</ele>
        <time>2018-05-29T09:14:05Z</time>
      </trkpt>
      <trkpt lat="49.31194" lon="1.25607">
        <ele>131.84</ele>
        <time>2018-05-29T09:14:06Z</time>
      </trkpt>
      <trkpt lat="49.31193" lon="1.25609">
        <ele>131.84</ele>
        <time>2018-05-29T09:14:07Z</time>
      </trkpt>
      <trkpt lat="49.31192" lon="1.25612">
        <ele>131.84</ele>
        <time>2018-05-29T09:14:08Z</time>
      </trkpt>
      <trkpt lat="49.3119" lon="1.25615">
        <ele>131.84</ele>
        <time>2018-05-29T09:14:09Z</time>
      </trkpt>
      <trkpt lat="49.31189" lon="1.25619">
        <ele>131.84</ele>
        <time>2018-05-29T09:14:10Z</time>
      </trkpt>
      <trkpt lat="49.31187" lon="1.25622">
        <ele>131.84</ele>
        <time>2018-05-29T09:14:11Z</time>
      </trkpt>
      <trkpt lat="49.31172" lon="1.2566">
        <ele>131.36</ele>
        <time>2018-05-29T09:14:22Z</time>
      </trkpt>
      <trkpt lat="49.31164" lon="1.25689">
        <ele>131.36</ele>
        <time>2018-05-29T09:14:33Z</time>
      </trkpt>
      <trkpt lat="49.31161" lon="1.25701">
        <ele>132.32</ele>
        <time>2018-05-29T09:14:37Z</time>
      </trkpt>
      <trkpt lat="49.3116" lon="1.25704">
        <ele>132.32</ele>
        <time>2018-05-29T09:14:38Z</time>
      </trkpt>
      <trkpt lat="49.31159" lon="1.25706">
        <ele>132.32</ele>
        <time>2018-05-29T09:14:39Z</time>
      </trkpt>
      <trkpt lat="49.31158" lon="1.25708">
        <ele>132.8</ele>
        <time>2018-05-29T09:14:40Z</time>
      </trkpt>
      <trkpt lat="49.31157" lon="1.25711">
        <ele>133.28</ele>
        <time>2018-05-29T09:14:41Z</time>
      </trkpt>
      <trkpt lat="49.3115" lon="1.25724">
        <ele>134.24</ele>
        <time>2018-05-29T09:14:46Z</time>
      </trkpt>
      <trkpt lat="49.3115" lon="1.25728">
        <ele>134.72</ele>
        <time>2018-05-29T09:14:47Z</time>
      </trkpt>
      <trkpt lat="49.3115" lon="1.25731">
        <ele>135.68</ele>
        <time>2018-05-29T09:14:48Z</time>
      </trkpt>
      <trkpt lat="49.31151" lon="1.25734">
        <ele>136.16</ele>
        <time>2018-05-29T09:14:49Z</time>
      </trkpt>
      <trkpt lat="49.31151" lon="1.25736">
        <ele>136.64</ele>
        <time>2018-05-29T09:14:50Z</time>
      </trkpt>
      <trkpt lat="49.31151" lon="1.2574">
        <ele>137.13</ele>
        <time>2018-05-29T09:14:51Z</time>
      </trkpt>
      <trkpt lat="49.31152" lon="1.25743">
        <ele>137.61</ele>
        <time>2018-05-29T09:14:52Z</time>
      </trkpt>
      <trkpt lat="49.31154" lon="1.25755">
        <ele>140.01</ele>
        <time>2018-05-29T09:14:56Z</time>
      </trkpt>
      <trkpt lat="49.31155" lon="1.25758">
        <ele>140.49</ele>
        <time>2018-05-29T09:14:57Z</time>
      </trkpt>
      <trkpt lat="49.31156" lon="1.25761">
        <ele>140.49</ele>
        <time>2018-05-29T09:14:58Z</time>
      </trkpt>
      <trkpt lat="49.31157" lon="1.25763">
        <ele>140.97</ele>
        <time>2018-05-29T09:14:59Z</time>
      </trkpt>
      <trkpt lat="49.31158" lon="1.25766">
        <ele>141.45</ele>
        <time>2018-05-29T09:15:00Z</time>
      </trkpt>
      <trkpt lat="49.31159" lon="1.25768">
        <ele>141.45</ele>
        <time>2018-05-29T09:15:01Z</time>
      </trkpt>
      <trkpt lat="49.3116" lon="1.2577">
        <ele>142.41</ele>
        <time>2018-05-29T09:15:02Z</time>
      </trkpt>
      <trkpt lat="49.31162" lon="1.25773">
        <ele>142.89</ele>
        <time>2018-05-29T09:15:03Z</time>
      </trkpt>
      <trkpt lat="49.31163" lon="1.25775">
        <ele>142.89</ele>
        <time>2018-05-29T09:15:04Z</time>
      </trkpt>
      <trkpt lat="49.31165" lon="1.25777">
        <ele>143.37</ele>
        <time>2018-05-29T09:15:05Z</time>
      </trkpt>
      <trkpt lat="49.31165" lon="1.25779">
        <ele>143.37</ele>
        <time>2018-05-29T09:15:06Z</time>
      </trkpt>
      <trkpt lat="49.31166" lon="1.25782">
        <ele>143.85</ele>
        <time>2018-05-29T09:15:07Z</time>
      </trkpt>
      <trkpt lat="49.31167" lon="1.25784">
        <ele>143.85</ele>
        <time>2018-05-29T09:15:08Z</time>
      </trkpt>
      <trkpt lat="49.31168" lon="1.25786">
        <ele>143.85</ele>
        <time>2018-05-29T09:15:09Z</time>
      </trkpt>
      <trkpt lat="49.3117" lon="1.25789">
        <ele>144.34</ele>
        <time>2018-05-29T09:15:10Z</time>
      </trkpt>
      <trkpt lat="49.31171" lon="1.25791">
        <ele>144.34</ele>
        <time>2018-05-29T09:15:11Z</time>
      </trkpt>
      <trkpt lat="49.31173" lon="1.25795">
        <ele>144.34</ele>
        <time>2018-05-29T09:15:12Z</time>
      </trkpt>
      <trkpt lat="49.31174" lon="1.25798">
        <ele>144.34</ele>
        <time>2018-05-29T09:15:13Z</time>
      </trkpt>
      <trkpt lat="49.31174" lon="1.25802">
        <ele>144.34</ele>
        <time>2018-05-29T09:15:14Z</time>
      </trkpt>
      <trkpt lat="49.31179" lon="1.25833">
        <ele>144.34</ele>
        <time>2018-05-29T09:15:22Z</time>
      </trkpt>
      <trkpt lat="49.312" lon="1.25872">
        <ele>144.82</ele>
        <time>2018-05-29T09:15:33Z</time>
      </trkpt>
      <trkpt lat="49.31202" lon="1.25878">
        <ele>144.82</ele>
        <time>2018-05-29T09:15:35Z</time>
      </trkpt>
      <trkpt lat="49.31206" lon="1.2589">
        <ele>144.82</ele>
        <time>2018-05-29T09:15:41Z</time>
      </trkpt>
      <trkpt lat="49.31199" lon="1.25916">
        <ele>143.37</ele>
        <time>2018-05-29T09:15:49Z</time>
      </trkpt>
      <trkpt lat="49.31188" lon="1.25951">
        <ele>142.89</ele>
        <time>2018-05-29T09:15:58Z</time>
      </trkpt>
      <trkpt lat="49.31145" lon="1.25988">
        <ele>144.34</ele>
        <time>2018-05-29T09:16:12Z</time>
      </trkpt>
      <trkpt lat="49.31125" lon="1.26028">
        <ele>145.3</ele>
        <time>2018-05-29T09:16:22Z</time>
      </trkpt>
      <trkpt lat="49.31105" lon="1.26108">
        <ele>146.74</ele>
        <time>2018-05-29T09:16:39Z</time>
      </trkpt>
      <trkpt lat="49.31102" lon="1.26124">
        <ele>146.74</ele>
        <time>2018-05-29T09:16:43Z</time>
      </trkpt>
      <trkpt lat="49.31102" lon="1.2613">
        <ele>146.74</ele>
        <time>2018-05-29T09:16:46Z</time>
      </trkpt>
      <trkpt lat="49.31087" lon="1.26175">
        <ele>147.7</ele>
        <time>2018-05-29T09:16:58Z</time>
      </trkpt>
      <trkpt lat="49.31044" lon="1.26275">
        <ele>148.18</ele>
        <time>2018-05-29T09:17:18Z</time>
      </trkpt>
      <trkpt lat="49.31" lon="1.26375">
        <ele>148.66</ele>
        <time>2018-05-29T09:17:37Z</time>
      </trkpt>
      <trkpt lat="49.30968" lon="1.26447">
        <ele>148.66</ele>
        <time>2018-05-29T09:17:52Z</time>
      </trkpt>
      <trkpt lat="49.30965" lon="1.26446">
        <ele>148.66</ele>
        <time>2018-05-29T09:17:53Z</time>
      </trkpt>
      <trkpt lat="49.30963" lon="1.26444">
        <ele>148.66</ele>
        <time>2018-05-29T09:17:54Z</time>
      </trkpt>
      <trkpt lat="49.3093" lon="1.26383">
        <ele>146.26</ele>
        <time>2018-05-29T09:18:11Z</time>
      </trkpt>
      <trkpt lat="49.3091" lon="1.26348">
        <ele>144.82</ele>
        <time>2018-05-29T09:18:20Z</time>
      </trkpt>
      <trkpt lat="49.30893" lon="1.26324">
        <ele>141.93</ele>
        <time>2018-05-29T09:18:29Z</time>
      </trkpt>
      <trkpt lat="49.30891" lon="1.2632">
        <ele>141.45</ele>
        <time>2018-05-29T09:18:30Z</time>
      </trkpt>
      <trkpt lat="49.30887" lon="1.26308">
        <ele>140.97</ele>
        <time>2018-05-29T09:18:33Z</time>
      </trkpt>
      <trkpt lat="49.30887" lon="1.26304">
        <ele>140.49</ele>
        <time>2018-05-29T09:18:34Z</time>
      </trkpt>
      <trkpt lat="49.3088" lon="1.26281">
        <ele>136.64</ele>
        <time>2018-05-29T09:18:40Z</time>
      </trkpt>
      <trkpt lat="49.30869" lon="1.26259">
        <ele>134.24</ele>
        <time>2018-05-29T09:18:46Z</time>
      </trkpt>
      <trkpt lat="49.3086" lon="1.26234">
        <ele>130.88</ele>
        <time>2018-05-29T09:18:51Z</time>
      </trkpt>
      <trkpt lat="49.30858" lon="1.26229">
        <ele>130.88</ele>
        <time>2018-05-29T09:18:52Z</time>
      </trkpt>
      <trkpt lat="49.30849" lon="1.26215">
        <ele>128.95</ele>
        <time>2018-05-29T09:18:56Z</time>
      </trkpt>
      <trkpt lat="49.30846" lon="1.2621">
        <ele>127.51</ele>
        <time>2018-05-29T09:18:57Z</time>
      </trkpt>
      <trkpt lat="49.30843" lon="1.26206">
        <ele>126.55</ele>
        <time>2018-05-29T09:18:58Z</time>
      </trkpt>
      <trkpt lat="49.30841" lon="1.26202">
        <ele>126.07</ele>
        <time>2018-05-29T09:18:59Z</time>
      </trkpt>
      <trkpt lat="49.30839" lon="1.26199">
        <ele>125.59</ele>
        <time>2018-05-29T09:19:00Z</time>
      </trkpt>
      <trkpt lat="49.30837" lon="1.26195">
        <ele>124.63</ele>
        <time>2018-05-29T09:19:01Z</time>
      </trkpt>
      <trkpt lat="49.30835" lon="1.26192">
        <ele>124.15</ele>
        <time>2018-05-29T09:19:02Z</time>
      </trkpt>
      <trkpt lat="49.30834" lon="1.26189">
        <ele>123.67</ele>
        <time>2018-05-29T09:19:03Z</time>
      </trkpt>
      <trkpt lat="49.30833" lon="1.26187">
        <ele>123.19</ele>
        <time>2018-05-29T09:19:04Z</time>
      </trkpt>
      <trkpt lat="49.3083" lon="1.26184">
        <ele>121.74</ele>
        <time>2018-05-29T09:19:06Z</time>
      </trkpt>
      <trkpt lat="49.30828" lon="1.26182">
        <ele>120.78</ele>
        <time>2018-05-29T09:19:07Z</time>
      </trkpt>
      <trkpt lat="49.30818" lon="1.26172">
        <ele>117.9</ele>
        <time>2018-05-29T09:19:11Z</time>
      </trkpt>
      <trkpt lat="49.30806" lon="1.26157">
        <ele>114.53</ele>
        <time>2018-05-29T09:19:16Z</time>
      </trkpt>
      <trkpt lat="49.30804" lon="1.26155">
        <ele>114.05</ele>
        <time>2018-05-29T09:19:17Z</time>
      </trkpt>
      <trkpt lat="49.30799" lon="1.26144">
        <ele>110.69</ele>
        <time>2018-05-29T09:19:21Z</time>
      </trkpt>
      <trkpt lat="49.30791" lon="1.26134">
        <ele>107.32</ele>
        <time>2018-05-29T09:19:25Z</time>
      </trkpt>
      <trkpt lat="49.30779" lon="1.26121">
        <ele>103.96</ele>
        <time>2018-05-29T09:19:30Z</time>
      </trkpt>
      <trkpt lat="49.30771" lon="1.26107">
        <ele>100.11</ele>
        <time>2018-05-29T09:19:34Z</time>
      </trkpt>
      <trkpt lat="49.30759" lon="1.26095">
        <ele>96.75</ele>
        <time>2018-05-29T09:19:38Z</time>
      </trkpt>
      <trkpt lat="49.30751" lon="1.26085">
        <ele>92.42</ele>
        <time>2018-05-29T09:19:44Z</time>
      </trkpt>
      <trkpt lat="49.30746" lon="1.26081">
        <ele>89.06</ele>
        <time>2018-05-29T09:19:47Z</time>
      </trkpt>
      <trkpt lat="49.30733" lon="1.26068">
        <ele>85.69</ele>
        <time>2018-05-29T09:19:52Z</time>
      </trkpt>
      <trkpt lat="49.30732" lon="1.26067">
        <ele>85.21</ele>
        <time>2018-05-29T09:19:53Z</time>
      </trkpt>
      <trkpt lat="49.3073" lon="1.26065">
        <ele>84.25</ele>
        <time>2018-05-29T09:19:54Z</time>
      </trkpt>
      <trkpt lat="49.30729" lon="1.26062">
        <ele>83.77</ele>
        <time>2018-05-29T09:19:55Z</time>
      </trkpt>
      <trkpt lat="49.30727" lon="1.2606">
        <ele>82.81</ele>
        <time>2018-05-29T09:19:56Z</time>
      </trkpt>
      <trkpt lat="49.30726" lon="1.26057">
        <ele>82.33</ele>
        <time>2018-05-29T09:19:57Z</time>
      </trkpt>
      <trkpt lat="49.30725" lon="1.26055">
        <ele>81.85</ele>
        <time>2018-05-29T09:19:58Z</time>
      </trkpt>
      <trkpt lat="49.30723" lon="1.26054">
        <ele>81.37</ele>
        <time>2018-05-29T09:19:59Z</time>
      </trkpt>
      <trkpt lat="49.30722" lon="1.26052">
        <ele>80.89</ele>
        <time>2018-05-29T09:20:00Z</time>
      </trkpt>
      <trkpt lat="49.30721" lon="1.2605">
        <ele>80.41</ele>
        <time>2018-05-29T09:20:01Z</time>
      </trkpt>
      <trkpt lat="49.30712" lon="1.26039">
        <ele>78</ele>
        <time>2018-05-29T09:20:11Z</time>
      </trkpt>
      <trkpt lat="49.30704" lon="1.2603">
        <ele>76.08</ele>
        <time>2018-05-29T09:20:34Z</time>
      </trkpt>
      <trkpt lat="49.30698" lon="1.26025">
        <ele>74.64</ele>
        <time>2018-05-29T09:20:50Z</time>
      </trkpt>
      <trkpt lat="49.30693" lon="1.26017">
        <ele>73.68</ele>
        <time>2018-05-29T09:21:04Z</time>
      </trkpt>
      <trkpt lat="49.30687" lon="1.2601">
        <ele>70.79</ele>
        <time>2018-05-29T09:21:09Z</time>
      </trkpt>
      <trkpt lat="49.30686" lon="1.26007">
        <ele>69.83</ele>
        <time>2018-05-29T09:21:10Z</time>
      </trkpt>
      <trkpt lat="49.30685" lon="1.26005">
        <ele>69.35</ele>
        <time>2018-05-29T09:21:11Z</time>
      </trkpt>
      <trkpt lat="49.30683" lon="1.26003">
        <ele>68.87</ele>
        <time>2018-05-29T09:21:12Z</time>
      </trkpt>
      <trkpt lat="49.30682" lon="1.26001">
        <ele>67.91</ele>
        <time>2018-05-29T09:21:13Z</time>
      </trkpt>
      <trkpt lat="49.3068" lon="1.25999">
        <ele>67.43</ele>
        <time>2018-05-29T09:21:14Z</time>
      </trkpt>
      <trkpt lat="49.30679" lon="1.25998">
        <ele>66.47</ele>
        <time>2018-05-29T09:21:15Z</time>
      </trkpt>
      <trkpt lat="49.30671" lon="1.25994">
        <ele>63.1</ele>
        <time>2018-05-29T09:21:20Z</time>
      </trkpt>
      <trkpt lat="49.3067" lon="1.25993">
        <ele>62.62</ele>
        <time>2018-05-29T09:21:21Z</time>
      </trkpt>
      <trkpt lat="49.30668" lon="1.25992">
        <ele>61.66</ele>
        <time>2018-05-29T09:21:22Z</time>
      </trkpt>
      <trkpt lat="49.30661" lon="1.25988">
        <ele>58.78</ele>
        <time>2018-05-29T09:21:26Z</time>
      </trkpt>
      <trkpt lat="49.30653" lon="1.25982">
        <ele>55.41</ele>
        <time>2018-05-29T09:21:30Z</time>
      </trkpt>
      <trkpt lat="49.30645" lon="1.25978">
        <ele>52.53</ele>
        <time>2018-05-29T09:21:34Z</time>
      </trkpt>
      <trkpt lat="49.30637" lon="1.25973">
        <ele>49.16</ele>
        <time>2018-05-29T09:21:38Z</time>
      </trkpt>
      <trkpt lat="49.3063" lon="1.25968">
        <ele>45.8</ele>
        <time>2018-05-29T09:21:42Z</time>
      </trkpt>
      <trkpt lat="49.30624" lon="1.25964">
        <ele>43.4</ele>
        <time>2018-05-29T09:21:45Z</time>
      </trkpt>
      <trkpt lat="49.30622" lon="1.25964">
        <ele>42.92</ele>
        <time>2018-05-29T09:21:46Z</time>
      </trkpt>
      <trkpt lat="49.3062" lon="1.25962">
        <ele>41.95</ele>
        <time>2018-05-29T09:21:47Z</time>
      </trkpt>
      <trkpt lat="49.30617" lon="1.25961">
        <ele>40.99</ele>
        <time>2018-05-29T09:21:48Z</time>
      </trkpt>
      <trkpt lat="49.30616" lon="1.25959">
        <ele>40.03</ele>
        <time>2018-05-29T09:21:49Z</time>
      </trkpt>
      <trkpt lat="49.30614" lon="1.25958">
        <ele>39.55</ele>
        <time>2018-05-29T09:21:50Z</time>
      </trkpt>
      <trkpt lat="49.30612" lon="1.25957">
        <ele>39.07</ele>
        <time>2018-05-29T09:21:51Z</time>
      </trkpt>
      <trkpt lat="49.30603" lon="1.25951">
        <ele>36.67</ele>
        <time>2018-05-29T09:22:02Z</time>
      </trkpt>
      <trkpt lat="49.30592" lon="1.25942">
        <ele>33.78</ele>
        <time>2018-05-29T09:22:09Z</time>
      </trkpt>
      <trkpt lat="49.30587" lon="1.25938">
        <ele>31.86</ele>
        <time>2018-05-29T09:22:19Z</time>
      </trkpt>
      <trkpt lat="49.30581" lon="1.25936">
        <ele>30.42</ele>
        <time>2018-05-29T09:22:25Z</time>
      </trkpt>
      <trkpt lat="49.3058" lon="1.25936">
        <ele>29.94</ele>
        <time>2018-05-29T09:22:26Z</time>
      </trkpt>
      <trkpt lat="49.30568" lon="1.25933">
        <ele>26.57</ele>
        <time>2018-05-29T09:22:38Z</time>
      </trkpt>
      <trkpt lat="49.30564" lon="1.2593">
        <ele>26.09</ele>
        <time>2018-05-29T09:22:45Z</time>
      </trkpt>
      <trkpt lat="49.30562" lon="1.25927">
        <ele>25.61</ele>
        <time>2018-05-29T09:22:46Z</time>
      </trkpt>
      <trkpt lat="49.30561" lon="1.25923">
        <ele>25.13</ele>
        <time>2018-05-29T09:22:47Z</time>
      </trkpt>
      <trkpt lat="49.3056" lon="1.25918">
        <ele>25.13</ele>
        <time>2018-05-29T09:22:48Z</time>
      </trkpt>
      <trkpt lat="49.30558" lon="1.25914">
        <ele>24.65</ele>
        <time>2018-05-29T09:22:49Z</time>
      </trkpt>
      <trkpt lat="49.30557" lon="1.2591">
        <ele>24.65</ele>
        <time>2018-05-29T09:22:50Z</time>
      </trkpt>
      <trkpt lat="49.30556" lon="1.25907">
        <ele>24.17</ele>
        <time>2018-05-29T09:22:51Z</time>
      </trkpt>
      <trkpt lat="49.30556" lon="1.25905">
        <ele>24.17</ele>
        <time>2018-05-29T09:22:52Z</time>
      </trkpt>
      <trkpt lat="49.30555" lon="1.25903">
        <ele>24.17</ele>
        <time>2018-05-29T09:22:53Z</time>
      </trkpt>
      <trkpt lat="49.30554" lon="1.25901">
        <ele>23.69</ele>
        <time>2018-05-29T09:22:54Z</time>
      </trkpt>
      <trkpt lat="49.30551" lon="1.25902">
        <ele>23.69</ele>
        <time>2018-05-29T09:22:55Z</time>
      </trkpt>
      <trkpt lat="49.30549" lon="1.25904">
        <ele>23.21</ele>
        <time>2018-05-29T09:22:56Z</time>
      </trkpt>
      <trkpt lat="49.30546" lon="1.25905">
        <ele>23.21</ele>
        <time>2018-05-29T09:22:57Z</time>
      </trkpt>
      <trkpt lat="49.30538" lon="1.2591">
        <ele>23.21</ele>
        <time>2018-05-29T09:23:03Z</time>
      </trkpt>
      <trkpt lat="49.30536" lon="1.25911">
        <ele>22.25</ele>
        <time>2018-05-29T09:23:19Z</time>
      </trkpt>
      <trkpt lat="49.30535" lon="1.25912">
        <ele>22.25</ele>
        <time>2018-05-29T09:23:32Z</time>
      </trkpt>
      <trkpt lat="49.30534" lon="1.25912">
        <ele>22.25</ele>
        <time>2018-05-29T09:23:33Z</time>
      </trkpt>
      <trkpt lat="49.30532" lon="1.25914">
        <ele>22.25</ele>
        <time>2018-05-29T09:23:34Z</time>
      </trkpt>
      <trkpt lat="49.30531" lon="1.25917">
        <ele>22.25</ele>
        <time>2018-05-29T09:23:35Z</time>
      </trkpt>
      <trkpt lat="49.30532" lon="1.25919">
        <ele>22.25</ele>
        <time>2018-05-29T09:23:36Z</time>
      </trkpt>
      <trkpt lat="49.30535" lon="1.25919">
        <ele>22.25</ele>
        <time>2018-05-29T09:23:37Z</time>
      </trkpt>
      <trkpt lat="49.30536" lon="1.25918">
        <ele>22.25</ele>
        <time>2018-05-29T09:23:38Z</time>
      </trkpt>
      <trkpt lat="49.30538" lon="1.25917">
        <ele>22.25</ele>
        <time>2018-05-29T09:23:39Z</time>
      </trkpt>
      <trkpt lat="49.3054" lon="1.25915">
        <ele>22.25</ele>
        <time>2018-05-29T09:23:40Z</time>
      </trkpt>
      <trkpt lat="49.30542" lon="1.25913">
        <ele>22.25</ele>
        <time>2018-05-29T09:23:41Z</time>
      </trkpt>
      <trkpt lat="49.30545" lon="1.25913">
        <ele>22.25</ele>
        <time>2018-05-29T09:23:42Z</time>
      </trkpt>
      <trkpt lat="49.30547" lon="1.25913">
        <ele>22.25</ele>
        <time>2018-05-29T09:23:43Z</time>
      </trkpt>
      <trkpt lat="49.30551" lon="1.25914">
        <ele>22.25</ele>
        <time>2018-05-29T09:23:44Z</time>
      </trkpt>
      <trkpt lat="49.30555" lon="1.25917">
        <ele>23.69</ele>
        <time>2018-05-29T09:23:46Z</time>
      </trkpt>
      <trkpt lat="49.30572" lon="1.25956">
        <ele>26.57</ele>
        <time>2018-05-29T09:23:59Z</time>
      </trkpt>
      <trkpt lat="49.30586" lon="1.26007">
        <ele>29.94</ele>
        <time>2018-05-29T09:24:15Z</time>
      </trkpt>
      <trkpt lat="49.30603" lon="1.26051">
        <ele>32.82</ele>
        <time>2018-05-29T09:24:30Z</time>
      </trkpt>
      <trkpt lat="49.30611" lon="1.26096">
        <ele>35.71</ele>
        <time>2018-05-29T09:24:44Z</time>
      </trkpt>
      <trkpt lat="49.30613" lon="1.26139">
        <ele>38.59</ele>
        <time>2018-05-29T09:24:57Z</time>
      </trkpt>
      <trkpt lat="49.30617" lon="1.2618">
        <ele>41.47</ele>
        <time>2018-05-29T09:25:10Z</time>
      </trkpt>
      <trkpt lat="49.30615" lon="1.26182">
        <ele>41.47</ele>
        <time>2018-05-29T09:25:11Z</time>
      </trkpt>
      <trkpt lat="49.30614" lon="1.26183">
        <ele>41.95</ele>
        <time>2018-05-29T09:25:12Z</time>
      </trkpt>
      <trkpt lat="49.30612" lon="1.26184">
        <ele>42.44</ele>
        <time>2018-05-29T09:25:13Z</time>
      </trkpt>
      <trkpt lat="49.3061" lon="1.26183">
        <ele>42.44</ele>
        <time>2018-05-29T09:25:14Z</time>
      </trkpt>
      <trkpt lat="49.30608" lon="1.26182">
        <ele>42.92</ele>
        <time>2018-05-29T09:25:15Z</time>
      </trkpt>
      <trkpt lat="49.30606" lon="1.26181">
        <ele>42.92</ele>
        <time>2018-05-29T09:25:16Z</time>
      </trkpt>
      <trkpt lat="49.30587" lon="1.26154">
        <ele>44.84</ele>
        <time>2018-05-29T09:25:28Z</time>
      </trkpt>
      <trkpt lat="49.30565" lon="1.26132">
        <ele>47.24</ele>
        <time>2018-05-29T09:25:41Z</time>
      </trkpt>
      <trkpt lat="49.30543" lon="1.26108">
        <ele>49.16</ele>
        <time>2018-05-29T09:25:54Z</time>
      </trkpt>
      <trkpt lat="49.30517" lon="1.26078">
        <ele>52.05</ele>
        <time>2018-05-29T09:26:08Z</time>
      </trkpt>
      <trkpt lat="49.30508" lon="1.26077">
        <ele>53.49</ele>
        <time>2018-05-29T09:26:13Z</time>
      </trkpt>
      <trkpt lat="49.30506" lon="1.26079">
        <ele>53.49</ele>
        <time>2018-05-29T09:26:14Z</time>
      </trkpt>
      <trkpt lat="49.30505" lon="1.26082">
        <ele>53.01</ele>
        <time>2018-05-29T09:26:15Z</time>
      </trkpt>
      <trkpt lat="49.30505" lon="1.26085">
        <ele>53.49</ele>
        <time>2018-05-29T09:26:16Z</time>
      </trkpt>
      <trkpt lat="49.30505" lon="1.26088">
        <ele>53.97</ele>
        <time>2018-05-29T09:26:17Z</time>
      </trkpt>
      <trkpt lat="49.30505" lon="1.26091">
        <ele>53.97</ele>
        <time>2018-05-29T09:26:18Z</time>
      </trkpt>
      <trkpt lat="49.30505" lon="1.26093">
        <ele>53.97</ele>
        <time>2018-05-29T09:26:19Z</time>
      </trkpt>
      <trkpt lat="49.30528" lon="1.26125">
        <ele>56.37</ele>
        <time>2018-05-29T09:26:34Z</time>
      </trkpt>
      <trkpt lat="49.30547" lon="1.26162">
        <ele>58.78</ele>
        <time>2018-05-29T09:26:49Z</time>
      </trkpt>
      <trkpt lat="49.3056" lon="1.26191">
        <ele>61.18</ele>
        <time>2018-05-29T09:27:00Z</time>
      </trkpt>
      <trkpt lat="49.30562" lon="1.26193">
        <ele>61.18</ele>
        <time>2018-05-29T09:27:01Z</time>
      </trkpt>
      <trkpt lat="49.30581" lon="1.26235">
        <ele>63.58</ele>
        <time>2018-05-29T09:27:17Z</time>
      </trkpt>
      <trkpt lat="49.30599" lon="1.26268">
        <ele>65.99</ele>
        <time>2018-05-29T09:27:30Z</time>
      </trkpt>
      <trkpt lat="49.30616" lon="1.26311">
        <ele>68.39</ele>
        <time>2018-05-29T09:27:46Z</time>
      </trkpt>
      <trkpt lat="49.30627" lon="1.26347">
        <ele>70.79</ele>
        <time>2018-05-29T09:27:59Z</time>
      </trkpt>
      <trkpt lat="49.30615" lon="1.26384">
        <ele>72.72</ele>
        <time>2018-05-29T09:28:13Z</time>
      </trkpt>
      <trkpt lat="49.30614" lon="1.26387">
        <ele>73.2</ele>
        <time>2018-05-29T09:28:14Z</time>
      </trkpt>
      <trkpt lat="49.306" lon="1.26433">
        <ele>75.12</ele>
        <time>2018-05-29T09:28:28Z</time>
      </trkpt>
      <trkpt lat="49.30597" lon="1.26449">
        <ele>76.08</ele>
        <time>2018-05-29T09:28:33Z</time>
      </trkpt>
      <trkpt lat="49.30596" lon="1.26452">
        <ele>76.08</ele>
        <time>2018-05-29T09:28:34Z</time>
      </trkpt>
      <trkpt lat="49.30595" lon="1.26454">
        <ele>76.08</ele>
        <time>2018-05-29T09:28:35Z</time>
      </trkpt>
      <trkpt lat="49.30594" lon="1.26457">
        <ele>76.08</ele>
        <time>2018-05-29T09:28:36Z</time>
      </trkpt>
      <trkpt lat="49.30593" lon="1.26461">
        <ele>76.08</ele>
        <time>2018-05-29T09:28:37Z</time>
      </trkpt>
      <trkpt lat="49.30592" lon="1.26464">
        <ele>76.56</ele>
        <time>2018-05-29T09:28:38Z</time>
      </trkpt>
      <trkpt lat="49.30591" lon="1.26468">
        <ele>76.56</ele>
        <time>2018-05-29T09:28:39Z</time>
      </trkpt>
      <trkpt lat="49.30585" lon="1.26489">
        <ele>77.52</ele>
        <time>2018-05-29T09:28:45Z</time>
      </trkpt>
      <trkpt lat="49.30585" lon="1.26493">
        <ele>77.52</ele>
        <time>2018-05-29T09:28:46Z</time>
      </trkpt>
      <trkpt lat="49.30581" lon="1.26509">
        <ele>78.97</ele>
        <time>2018-05-29T09:28:51Z</time>
      </trkpt>
      <trkpt lat="49.30579" lon="1.2651">
        <ele>78.97</ele>
        <time>2018-05-29T09:28:52Z</time>
      </trkpt>
      <trkpt lat="49.30578" lon="1.26509">
        <ele>79.93</ele>
        <time>2018-05-29T09:28:53Z</time>
      </trkpt>
      <trkpt lat="49.30578" lon="1.26507">
        <ele>79.93</ele>
        <time>2018-05-29T09:28:54Z</time>
      </trkpt>
      <trkpt lat="49.30578" lon="1.26505">
        <ele>80.41</ele>
        <time>2018-05-29T09:28:55Z</time>
      </trkpt>
      <trkpt lat="49.30578" lon="1.26493">
        <ele>80.89</ele>
        <time>2018-05-29T09:28:59Z</time>
      </trkpt>
      <trkpt lat="49.30578" lon="1.26489">
        <ele>81.37</ele>
        <time>2018-05-29T09:29:00Z</time>
      </trkpt>
      <trkpt lat="49.30578" lon="1.26486">
        <ele>81.37</ele>
        <time>2018-05-29T09:29:01Z</time>
      </trkpt>
      <trkpt lat="49.30579" lon="1.26483">
        <ele>81.37</ele>
        <time>2018-05-29T09:29:02Z</time>
      </trkpt>
      <trkpt lat="49.30579" lon="1.26479">
        <ele>81.37</ele>
        <time>2018-05-29T09:29:03Z</time>
      </trkpt>
      <trkpt lat="49.3058" lon="1.26473">
        <ele>81.85</ele>
        <time>2018-05-29T09:29:05Z</time>
      </trkpt>
      <trkpt lat="49.30581" lon="1.2647">
        <ele>81.37</ele>
        <time>2018-05-29T09:29:06Z</time>
      </trkpt>
      <trkpt lat="49.30581" lon="1.26468">
        <ele>81.85</ele>
        <time>2018-05-29T09:29:07Z</time>
      </trkpt>
      <trkpt lat="49.30582" lon="1.26464">
        <ele>81.85</ele>
        <time>2018-05-29T09:29:08Z</time>
      </trkpt>
      <trkpt lat="49.30582" lon="1.26461">
        <ele>82.33</ele>
        <time>2018-05-29T09:29:09Z</time>
      </trkpt>
      <trkpt lat="49.30583" lon="1.26458">
        <ele>82.33</ele>
        <time>2018-05-29T09:29:10Z</time>
      </trkpt>
      <trkpt lat="49.3059" lon="1.26414">
        <ele>84.73</ele>
        <time>2018-05-29T09:29:24Z</time>
      </trkpt>
      <trkpt lat="49.30589" lon="1.26369">
        <ele>87.14</ele>
        <time>2018-05-29T09:29:38Z</time>
      </trkpt>
      <trkpt lat="49.30571" lon="1.26333">
        <ele>89.06</ele>
        <time>2018-05-29T09:29:52Z</time>
      </trkpt>
      <trkpt lat="49.30553" lon="1.26303">
        <ele>90.98</ele>
        <time>2018-05-29T09:30:05Z</time>
      </trkpt>
      <trkpt lat="49.30539" lon="1.26288">
        <ele>92.9</ele>
        <time>2018-05-29T09:30:12Z</time>
      </trkpt>
      <trkpt lat="49.30537" lon="1.26285">
        <ele>92.9</ele>
        <time>2018-05-29T09:30:13Z</time>
      </trkpt>
      <trkpt lat="49.30509" lon="1.26255">
        <ele>95.31</ele>
        <time>2018-05-29T09:30:26Z</time>
      </trkpt>
      <trkpt lat="49.30474" lon="1.26238">
        <ele>98.19</ele>
        <time>2018-05-29T09:30:39Z</time>
      </trkpt>
      <trkpt lat="49.30443" lon="1.26248">
        <ele>100.6</ele>
        <time>2018-05-29T09:30:52Z</time>
      </trkpt>
      <trkpt lat="49.30411" lon="1.26265">
        <ele>103.48</ele>
        <time>2018-05-29T09:31:05Z</time>
      </trkpt>
      <trkpt lat="49.30375" lon="1.26287">
        <ele>106.36</ele>
        <time>2018-05-29T09:31:20Z</time>
      </trkpt>
      <trkpt lat="49.30345" lon="1.26318">
        <ele>108.77</ele>
        <time>2018-05-29T09:31:34Z</time>
      </trkpt>
      <trkpt lat="49.30315" lon="1.26349">
        <ele>111.65</ele>
        <time>2018-05-29T09:31:48Z</time>
      </trkpt>
      <trkpt lat="49.30287" lon="1.26385">
        <ele>115.01</ele>
        <time>2018-05-29T09:32:03Z</time>
      </trkpt>
      <trkpt lat="49.30265" lon="1.26417">
        <ele>116.46</ele>
        <time>2018-05-29T09:32:15Z</time>
      </trkpt>
      <trkpt lat="49.30223" lon="1.26435">
        <ele>119.82</ele>
        <time>2018-05-29T09:32:30Z</time>
      </trkpt>
      <trkpt lat="49.30209" lon="1.26472">
        <ele>122.22</ele>
        <time>2018-05-29T09:32:42Z</time>
      </trkpt>
      <trkpt lat="49.30236" lon="1.26526">
        <ele>124.63</ele>
        <time>2018-05-29T09:32:58Z</time>
      </trkpt>
      <trkpt lat="49.30258" lon="1.2658">
        <ele>127.51</ele>
        <time>2018-05-29T09:33:13Z</time>
      </trkpt>
      <trkpt lat="49.30274" lon="1.26624">
        <ele>129.43</ele>
        <time>2018-05-29T09:33:26Z</time>
      </trkpt>
      <trkpt lat="49.30288" lon="1.26674">
        <ele>131.84</ele>
        <time>2018-05-29T09:33:39Z</time>
      </trkpt>
      <trkpt lat="49.30297" lon="1.26728">
        <ele>134.24</ele>
        <time>2018-05-29T09:33:53Z</time>
      </trkpt>
      <trkpt lat="49.30301" lon="1.26787">
        <ele>137.13</ele>
        <time>2018-05-29T09:34:07Z</time>
      </trkpt>
      <trkpt lat="49.30302" lon="1.26844">
        <ele>140.01</ele>
        <time>2018-05-29T09:34:21Z</time>
      </trkpt>
      <trkpt lat="49.30309" lon="1.26885">
        <ele>141.45</ele>
        <time>2018-05-29T09:34:32Z</time>
      </trkpt>
      <trkpt lat="49.30301" lon="1.26948">
        <ele>141.93</ele>
        <time>2018-05-29T09:34:46Z</time>
      </trkpt>
      <trkpt lat="49.30292" lon="1.27028">
        <ele>142.89</ele>
        <time>2018-05-29T09:35:01Z</time>
      </trkpt>
      <trkpt lat="49.30289" lon="1.27127">
        <ele>142.89</ele>
        <time>2018-05-29T09:35:17Z</time>
      </trkpt>
      <trkpt lat="49.30288" lon="1.27134">
        <ele>142.89</ele>
        <time>2018-05-29T09:35:18Z</time>
      </trkpt>
      <trkpt lat="49.3028" lon="1.2719">
        <ele>142.89</ele>
        <time>2018-05-29T09:35:26Z</time>
      </trkpt>
      <trkpt lat="49.30279" lon="1.27198">
        <ele>142.89</ele>
        <time>2018-05-29T09:35:27Z</time>
      </trkpt>
      <trkpt lat="49.30278" lon="1.27206">
        <ele>142.89</ele>
        <time>2018-05-29T09:35:28Z</time>
      </trkpt>
      <trkpt lat="49.30277" lon="1.27222">
        <ele>142.89</ele>
        <time>2018-05-29T09:35:30Z</time>
      </trkpt>
      <trkpt lat="49.30277" lon="1.2723">
        <ele>142.89</ele>
        <time>2018-05-29T09:35:31Z</time>
      </trkpt>
      <trkpt lat="49.30278" lon="1.27238">
        <ele>142.89</ele>
        <time>2018-05-29T09:35:32Z</time>
      </trkpt>
      <trkpt lat="49.30279" lon="1.27245">
        <ele>142.89</ele>
        <time>2018-05-29T09:35:33Z</time>
      </trkpt>
      <trkpt lat="49.30282" lon="1.2725">
        <ele>142.89</ele>
        <time>2018-05-29T09:35:34Z</time>
      </trkpt>
      <trkpt lat="49.30285" lon="1.27255">
        <ele>142.89</ele>
        <time>2018-05-29T09:35:35Z</time>
      </trkpt>
      <trkpt lat="49.30289" lon="1.27258">
        <ele>142.89</ele>
        <time>2018-05-29T09:35:36Z</time>
      </trkpt>
      <trkpt lat="49.30293" lon="1.2726">
        <ele>142.89</ele>
        <time>2018-05-29T09:35:37Z</time>
      </trkpt>
      <trkpt lat="49.30297" lon="1.2726">
        <ele>142.89</ele>
        <time>2018-05-29T09:35:38Z</time>
      </trkpt>
      <trkpt lat="49.30301" lon="1.2726">
        <ele>142.89</ele>
        <time>2018-05-29T09:35:39Z</time>
      </trkpt>
      <trkpt lat="49.30309" lon="1.27258">
        <ele>143.37</ele>
        <time>2018-05-29T09:35:41Z</time>
      </trkpt>
      <trkpt lat="49.30313" lon="1.27258">
        <ele>143.37</ele>
        <time>2018-05-29T09:35:42Z</time>
      </trkpt>
      <trkpt lat="49.30318" lon="1.27259">
        <ele>143.37</ele>
        <time>2018-05-29T09:35:43Z</time>
      </trkpt>
      <trkpt lat="49.30322" lon="1.27259">
        <ele>143.37</ele>
        <time>2018-05-29T09:35:44Z</time>
      </trkpt>
      <trkpt lat="49.30326" lon="1.2726">
        <ele>143.37</ele>
        <time>2018-05-29T09:35:45Z</time>
      </trkpt>
      <trkpt lat="49.30336" lon="1.27264">
        <ele>143.85</ele>
        <time>2018-05-29T09:35:48Z</time>
      </trkpt>
      <trkpt lat="49.30339" lon="1.27269">
        <ele>143.85</ele>
        <time>2018-05-29T09:35:49Z</time>
      </trkpt>
      <trkpt lat="49.3034" lon="1.27275">
        <ele>143.85</ele>
        <time>2018-05-29T09:35:50Z</time>
      </trkpt>
      <trkpt lat="49.3034" lon="1.27281">
        <ele>143.85</ele>
        <time>2018-05-29T09:35:51Z</time>
      </trkpt>
      <trkpt lat="49.3034" lon="1.27288">
        <ele>143.85</ele>
        <time>2018-05-29T09:35:52Z</time>
      </trkpt>
      <trkpt lat="49.30341" lon="1.27295">
        <ele>143.85</ele>
        <time>2018-05-29T09:35:53Z</time>
      </trkpt>
      <trkpt lat="49.30342" lon="1.27302">
        <ele>143.85</ele>
        <time>2018-05-29T09:35:54Z</time>
      </trkpt>
      <trkpt lat="49.30356" lon="1.27354">
        <ele>143.85</ele>
        <time>2018-05-29T09:36:02Z</time>
      </trkpt>
      <trkpt lat="49.30383" lon="1.27408">
        <ele>145.3</ele>
        <time>2018-05-29T09:36:13Z</time>
      </trkpt>
      <trkpt lat="49.30381" lon="1.27425">
        <ele>145.3</ele>
        <time>2018-05-29T09:36:16Z</time>
      </trkpt>
      <trkpt lat="49.3038" lon="1.27431">
        <ele>145.3</ele>
        <time>2018-05-29T09:36:17Z</time>
      </trkpt>
      <trkpt lat="49.30367" lon="1.27462">
        <ele>145.3</ele>
        <time>2018-05-29T09:36:22Z</time>
      </trkpt>
      <trkpt lat="49.30331" lon="1.27528">
        <ele>145.78</ele>
        <time>2018-05-29T09:36:33Z</time>
      </trkpt>
      <trkpt lat="49.30327" lon="1.27534">
        <ele>145.78</ele>
        <time>2018-05-29T09:36:34Z</time>
      </trkpt>
      <trkpt lat="49.3026" lon="1.27635">
        <ele>145.78</ele>
        <time>2018-05-29T09:36:51Z</time>
      </trkpt>
      <trkpt lat="49.30195" lon="1.27745">
        <ele>145.78</ele>
        <time>2018-05-29T09:37:07Z</time>
      </trkpt>
      <trkpt lat="49.30175" lon="1.27787">
        <ele>145.78</ele>
        <time>2018-05-29T09:37:13Z</time>
      </trkpt>
      <trkpt lat="49.30171" lon="1.27791">
        <ele>145.78</ele>
        <time>2018-05-29T09:37:14Z</time>
      </trkpt>
      <trkpt lat="49.30166" lon="1.27792">
        <ele>145.78</ele>
        <time>2018-05-29T09:37:15Z</time>
      </trkpt>
      <trkpt lat="49.30161" lon="1.27789">
        <ele>145.78</ele>
        <time>2018-05-29T09:37:16Z</time>
      </trkpt>
      <trkpt lat="49.30157" lon="1.27785">
        <ele>145.78</ele>
        <time>2018-05-29T09:37:17Z</time>
      </trkpt>
      <trkpt lat="49.30152" lon="1.2778">
        <ele>145.78</ele>
        <time>2018-05-29T09:37:18Z</time>
      </trkpt>
      <trkpt lat="49.30104" lon="1.27737">
        <ele>145.78</ele>
        <time>2018-05-29T09:37:30Z</time>
      </trkpt>
      <trkpt lat="49.30099" lon="1.27735">
        <ele>145.78</ele>
        <time>2018-05-29T09:37:41Z</time>
      </trkpt>
      <trkpt lat="49.30101" lon="1.27734">
        <ele>145.78</ele>
        <time>2018-05-29T09:37:44Z</time>
      </trkpt>
      <trkpt lat="49.30102" lon="1.27735">
        <ele>145.78</ele>
        <time>2018-05-29T09:37:45Z</time>
      </trkpt>
      <trkpt lat="49.30108" lon="1.27731">
        <ele>145.78</ele>
        <time>2018-05-29T09:37:48Z</time>
      </trkpt>
      <trkpt lat="49.30108" lon="1.27727">
        <ele>145.78</ele>
        <time>2018-05-29T09:37:49Z</time>
      </trkpt>
      <trkpt lat="49.30108" lon="1.27723">
        <ele>144.34</ele>
        <time>2018-05-29T09:37:50Z</time>
      </trkpt>
      <trkpt lat="49.30106" lon="1.27718">
        <ele>144.34</ele>
        <time>2018-05-29T09:37:51Z</time>
      </trkpt>
      <trkpt lat="49.30105" lon="1.27714">
        <ele>144.34</ele>
        <time>2018-05-29T09:37:52Z</time>
      </trkpt>
      <trkpt lat="49.30102" lon="1.27709">
        <ele>143.85</ele>
        <time>2018-05-29T09:37:53Z</time>
      </trkpt>
      <trkpt lat="49.301" lon="1.27704">
        <ele>143.85</ele>
        <time>2018-05-29T09:37:54Z</time>
      </trkpt>
      <trkpt lat="49.30068" lon="1.27622">
        <ele>141.45</ele>
        <time>2018-05-29T09:38:05Z</time>
      </trkpt>
      <trkpt lat="49.30041" lon="1.27589">
        <ele>141.45</ele>
        <time>2018-05-29T09:38:14Z</time>
      </trkpt>
      <trkpt lat="49.30009" lon="1.27554">
        <ele>142.41</ele>
        <time>2018-05-29T09:38:27Z</time>
      </trkpt>
      <trkpt lat="49.29961" lon="1.27521">
        <ele>143.85</ele>
        <time>2018-05-29T09:38:44Z</time>
      </trkpt>
      <trkpt lat="49.29919" lon="1.27503">
        <ele>144.34</ele>
        <time>2018-05-29T09:38:58Z</time>
      </trkpt>
      <trkpt lat="49.29864" lon="1.2751">
        <ele>145.3</ele>
        <time>2018-05-29T09:39:14Z</time>
      </trkpt>
      <trkpt lat="49.29796" lon="1.27521">
        <ele>145.3</ele>
        <time>2018-05-29T09:39:32Z</time>
      </trkpt>
      <trkpt lat="49.29747" lon="1.27526">
        <ele>145.3</ele>
        <time>2018-05-29T09:39:45Z</time>
      </trkpt>
      <trkpt lat="49.29692" lon="1.27538">
        <ele>143.85</ele>
        <time>2018-05-29T09:39:59Z</time>
      </trkpt>
      <trkpt lat="49.29688" lon="1.2754">
        <ele>143.85</ele>
        <time>2018-05-29T09:40:00Z</time>
      </trkpt>
      <trkpt lat="49.29648" lon="1.27553">
        <ele>143.85</ele>
        <time>2018-05-29T09:40:15Z</time>
      </trkpt>
      <trkpt lat="49.29629" lon="1.27558">
        <ele>143.85</ele>
        <time>2018-05-29T09:40:24Z</time>
      </trkpt>
      <trkpt lat="49.29579" lon="1.2757">
        <ele>142.89</ele>
        <time>2018-05-29T09:40:37Z</time>
      </trkpt>
      <trkpt lat="49.29519" lon="1.27572">
        <ele>142.89</ele>
        <time>2018-05-29T09:40:53Z</time>
      </trkpt>
      <trkpt lat="49.29489" lon="1.27569">
        <ele>144.34</ele>
        <time>2018-05-29T09:41:01Z</time>
      </trkpt>
      <trkpt lat="49.29423" lon="1.2756">
        <ele>144.34</ele>
        <time>2018-05-29T09:41:17Z</time>
      </trkpt>
      <trkpt lat="49.29419" lon="1.27561">
        <ele>144.34</ele>
        <time>2018-05-29T09:41:18Z</time>
      </trkpt>
      <trkpt lat="49.29416" lon="1.27563">
        <ele>144.34</ele>
        <time>2018-05-29T09:41:19Z</time>
      </trkpt>
      <trkpt lat="49.29408" lon="1.27567">
        <ele>144.34</ele>
        <time>2018-05-29T09:41:21Z</time>
      </trkpt>
      <trkpt lat="49.29361" lon="1.27599">
        <ele>144.82</ele>
        <time>2018-05-29T09:41:36Z</time>
      </trkpt>
      <trkpt lat="49.2936" lon="1.27599">
        <ele>144.82</ele>
        <time>2018-05-29T09:41:37Z</time>
      </trkpt>
      <trkpt lat="49.29339" lon="1.27603">
        <ele>144.82</ele>
        <time>2018-05-29T09:41:48Z</time>
      </trkpt>
      <trkpt lat="49.29338" lon="1.27604">
        <ele>144.82</ele>
        <time>2018-05-29T09:42:10Z</time>
      </trkpt>
      <trkpt lat="49.29336" lon="1.27605">
        <ele>144.82</ele>
        <time>2018-05-29T09:42:27Z</time>
      </trkpt>
      <trkpt lat="49.29335" lon="1.27603">
        <ele>144.82</ele>
        <time>2018-05-29T09:42:48Z</time>
      </trkpt>
      <trkpt lat="49.29317" lon="1.27614">
        <ele>144.82</ele>
        <time>2018-05-29T09:43:02Z</time>
      </trkpt>
      <trkpt lat="49.29284" lon="1.27626">
        <ele>144.82</ele>
        <time>2018-05-29T09:43:12Z</time>
      </trkpt>
      <trkpt lat="49.29282" lon="1.27624">
        <ele>144.82</ele>
        <time>2018-05-29T09:43:13Z</time>
      </trkpt>
      <trkpt lat="49.29281" lon="1.27619">
        <ele>144.82</ele>
        <time>2018-05-29T09:43:14Z</time>
      </trkpt>
      <trkpt lat="49.2928" lon="1.27614">
        <ele>144.82</ele>
        <time>2018-05-29T09:43:15Z</time>
      </trkpt>
      <trkpt lat="49.29279" lon="1.27608">
        <ele>144.82</ele>
        <time>2018-05-29T09:43:16Z</time>
      </trkpt>
      <trkpt lat="49.29278" lon="1.27601">
        <ele>144.82</ele>
        <time>2018-05-29T09:43:17Z</time>
      </trkpt>
      <trkpt lat="49.29277" lon="1.27595">
        <ele>144.82</ele>
        <time>2018-05-29T09:43:18Z</time>
      </trkpt>
      <trkpt lat="49.29276" lon="1.27588">
        <ele>144.82</ele>
        <time>2018-05-29T09:43:19Z</time>
      </trkpt>
      <trkpt lat="49.29271" lon="1.27563">
        <ele>144.82</ele>
        <time>2018-05-29T09:43:23Z</time>
      </trkpt>
      <trkpt lat="49.29269" lon="1.27557">
        <ele>144.82</ele>
        <time>2018-05-29T09:43:24Z</time>
      </trkpt>
      <trkpt lat="49.29266" lon="1.27553">
        <ele>144.82</ele>
        <time>2018-05-29T09:43:25Z</time>
      </trkpt>
      <trkpt lat="49.29262" lon="1.27552">
        <ele>144.82</ele>
        <time>2018-05-29T09:43:26Z</time>
      </trkpt>
      <trkpt lat="49.29258" lon="1.27552">
        <ele>143.37</ele>
        <time>2018-05-29T09:43:27Z</time>
      </trkpt>
      <trkpt lat="49.29253" lon="1.27554">
        <ele>143.37</ele>
        <time>2018-05-29T09:43:28Z</time>
      </trkpt>
      <trkpt lat="49.2925" lon="1.27556">
        <ele>143.37</ele>
        <time>2018-05-29T09:43:29Z</time>
      </trkpt>
      <trkpt lat="49.29246" lon="1.27558">
        <ele>143.37</ele>
        <time>2018-05-29T09:43:30Z</time>
      </trkpt>
      <trkpt lat="49.292" lon="1.2758">
        <ele>142.41</ele>
        <time>2018-05-29T09:43:41Z</time>
      </trkpt>
      <trkpt lat="49.29165" lon="1.27601">
        <ele>140.97</ele>
        <time>2018-05-29T09:43:51Z</time>
      </trkpt>
      <trkpt lat="49.29161" lon="1.27605">
        <ele>140.01</ele>
        <time>2018-05-29T09:43:52Z</time>
      </trkpt>
      <trkpt lat="49.29159" lon="1.2761">
        <ele>140.01</ele>
        <time>2018-05-29T09:43:53Z</time>
      </trkpt>
      <trkpt lat="49.29145" lon="1.27639">
        <ele>136.64</ele>
        <time>2018-05-29T09:43:58Z</time>
      </trkpt>
      <trkpt lat="49.29138" lon="1.27667">
        <ele>133.28</ele>
        <time>2018-05-29T09:44:03Z</time>
      </trkpt>
      <trkpt lat="49.29136" lon="1.27677">
        <ele>131.84</ele>
        <time>2018-05-29T09:44:05Z</time>
      </trkpt>
      <trkpt lat="49.29131" lon="1.27682">
        <ele>130.4</ele>
        <time>2018-05-29T09:44:07Z</time>
      </trkpt>
      <trkpt lat="49.29128" lon="1.27683">
        <ele>129.92</ele>
        <time>2018-05-29T09:44:08Z</time>
      </trkpt>
      <trkpt lat="49.29126" lon="1.27682">
        <ele>129.43</ele>
        <time>2018-05-29T09:44:09Z</time>
      </trkpt>
      <trkpt lat="49.29125" lon="1.2768">
        <ele>129.43</ele>
        <time>2018-05-29T09:44:10Z</time>
      </trkpt>
      <trkpt lat="49.29124" lon="1.27676">
        <ele>128.47</ele>
        <time>2018-05-29T09:44:11Z</time>
      </trkpt>
      <trkpt lat="49.29123" lon="1.27671">
        <ele>127.99</ele>
        <time>2018-05-29T09:44:12Z</time>
      </trkpt>
      <trkpt lat="49.29121" lon="1.27647">
        <ele>124.63</ele>
        <time>2018-05-29T09:44:16Z</time>
      </trkpt>
      <trkpt lat="49.29121" lon="1.2764">
        <ele>124.15</ele>
        <time>2018-05-29T09:44:17Z</time>
      </trkpt>
      <trkpt lat="49.2912" lon="1.27633">
        <ele>123.19</ele>
        <time>2018-05-29T09:44:18Z</time>
      </trkpt>
      <trkpt lat="49.29118" lon="1.27626">
        <ele>122.22</ele>
        <time>2018-05-29T09:44:19Z</time>
      </trkpt>
      <trkpt lat="49.29111" lon="1.27602">
        <ele>120.3</ele>
        <time>2018-05-29T09:44:23Z</time>
      </trkpt>
      <trkpt lat="49.29105" lon="1.27587">
        <ele>118.38</ele>
        <time>2018-05-29T09:44:27Z</time>
      </trkpt>
      <trkpt lat="49.29102" lon="1.27585">
        <ele>117.42</ele>
        <time>2018-05-29T09:44:28Z</time>
      </trkpt>
      <trkpt lat="49.291" lon="1.27584">
        <ele>116.94</ele>
        <time>2018-05-29T09:44:29Z</time>
      </trkpt>
      <trkpt lat="49.29096" lon="1.27585">
        <ele>116.46</ele>
        <time>2018-05-29T09:44:30Z</time>
      </trkpt>
      <trkpt lat="49.29093" lon="1.27585">
        <ele>115.5</ele>
        <time>2018-05-29T09:44:31Z</time>
      </trkpt>
      <trkpt lat="49.29076" lon="1.27591">
        <ele>111.65</ele>
        <time>2018-05-29T09:44:35Z</time>
      </trkpt>
      <trkpt lat="49.29062" lon="1.27597">
        <ele>108.29</ele>
        <time>2018-05-29T09:44:38Z</time>
      </trkpt>
      <trkpt lat="49.29043" lon="1.27607">
        <ele>105.4</ele>
        <time>2018-05-29T09:44:42Z</time>
      </trkpt>
      <trkpt lat="49.29025" lon="1.27611">
        <ele>102.04</ele>
        <time>2018-05-29T09:44:46Z</time>
      </trkpt>
      <trkpt lat="49.29013" lon="1.27608">
        <ele>100.6</ele>
        <time>2018-05-29T09:44:49Z</time>
      </trkpt>
      <trkpt lat="49.2901" lon="1.27604">
        <ele>99.63</ele>
        <time>2018-05-29T09:44:50Z</time>
      </trkpt>
      <trkpt lat="49.29008" lon="1.27601">
        <ele>99.15</ele>
        <time>2018-05-29T09:44:51Z</time>
      </trkpt>
      <trkpt lat="49.29002" lon="1.27592">
        <ele>97.23</ele>
        <time>2018-05-29T09:44:53Z</time>
      </trkpt>
      <trkpt lat="49.29" lon="1.27588">
        <ele>96.75</ele>
        <time>2018-05-29T09:44:54Z</time>
      </trkpt>
      <trkpt lat="49.28991" lon="1.27574">
        <ele>94.35</ele>
        <time>2018-05-29T09:44:57Z</time>
      </trkpt>
      <trkpt lat="49.28987" lon="1.27573">
        <ele>93.87</ele>
        <time>2018-05-29T09:44:58Z</time>
      </trkpt>
      <trkpt lat="49.28984" lon="1.27574">
        <ele>93.39</ele>
        <time>2018-05-29T09:44:59Z</time>
      </trkpt>
      <trkpt lat="49.28971" lon="1.27578">
        <ele>90.5</ele>
        <time>2018-05-29T09:45:02Z</time>
      </trkpt>
      <trkpt lat="49.28966" lon="1.2758">
        <ele>89.54</ele>
        <time>2018-05-29T09:45:03Z</time>
      </trkpt>
      <trkpt lat="49.28953" lon="1.27586">
        <ele>87.62</ele>
        <time>2018-05-29T09:45:06Z</time>
      </trkpt>
      <trkpt lat="49.28938" lon="1.27589">
        <ele>84.25</ele>
        <time>2018-05-29T09:45:10Z</time>
      </trkpt>
      <trkpt lat="49.28921" lon="1.27583">
        <ele>81.37</ele>
        <time>2018-05-29T09:45:14Z</time>
      </trkpt>
      <trkpt lat="49.28904" lon="1.27576">
        <ele>78</ele>
        <time>2018-05-29T09:45:18Z</time>
      </trkpt>
      <trkpt lat="49.28883" lon="1.27563">
        <ele>74.64</ele>
        <time>2018-05-29T09:45:23Z</time>
      </trkpt>
      <trkpt lat="49.28868" lon="1.2755">
        <ele>71.27</ele>
        <time>2018-05-29T09:45:27Z</time>
      </trkpt>
      <trkpt lat="49.28852" lon="1.2754">
        <ele>68.39</ele>
        <time>2018-05-29T09:45:31Z</time>
      </trkpt>
      <trkpt lat="49.28838" lon="1.27527">
        <ele>64.55</ele>
        <time>2018-05-29T09:45:36Z</time>
      </trkpt>
      <trkpt lat="49.28822" lon="1.27515">
        <ele>60.7</ele>
        <time>2018-05-29T09:45:40Z</time>
      </trkpt>
      <trkpt lat="49.28809" lon="1.27509">
        <ele>57.34</ele>
        <time>2018-05-29T09:45:44Z</time>
      </trkpt>
      <trkpt lat="49.288" lon="1.27501">
        <ele>54.93</ele>
        <time>2018-05-29T09:45:47Z</time>
      </trkpt>
      <trkpt lat="49.28784" lon="1.27485">
        <ele>51.57</ele>
        <time>2018-05-29T09:45:52Z</time>
      </trkpt>
      <trkpt lat="49.28781" lon="1.27485">
        <ele>51.09</ele>
        <time>2018-05-29T09:45:53Z</time>
      </trkpt>
      <trkpt lat="49.28778" lon="1.27485">
        <ele>50.61</ele>
        <time>2018-05-29T09:45:54Z</time>
      </trkpt>
      <trkpt lat="49.28776" lon="1.27487">
        <ele>50.13</ele>
        <time>2018-05-29T09:45:55Z</time>
      </trkpt>
      <trkpt lat="49.28774" lon="1.27489">
        <ele>49.65</ele>
        <time>2018-05-29T09:45:56Z</time>
      </trkpt>
      <trkpt lat="49.28773" lon="1.27492">
        <ele>48.68</ele>
        <time>2018-05-29T09:45:57Z</time>
      </trkpt>
      <trkpt lat="49.28771" lon="1.27496">
        <ele>48.2</ele>
        <time>2018-05-29T09:45:58Z</time>
      </trkpt>
      <trkpt lat="49.2877" lon="1.27502">
        <ele>47.24</ele>
        <time>2018-05-29T09:45:59Z</time>
      </trkpt>
      <trkpt lat="49.28769" lon="1.27507">
        <ele>46.28</ele>
        <time>2018-05-29T09:46:00Z</time>
      </trkpt>
      <trkpt lat="49.28768" lon="1.27515">
        <ele>44.84</ele>
        <time>2018-05-29T09:46:01Z</time>
      </trkpt>
      <trkpt lat="49.28768" lon="1.27522">
        <ele>44.36</ele>
        <time>2018-05-29T09:46:02Z</time>
      </trkpt>
      <trkpt lat="49.28765" lon="1.27532">
        <ele>42.92</ele>
        <time>2018-05-29T09:46:04Z</time>
      </trkpt>
      <trkpt lat="49.28763" lon="1.27536">
        <ele>42.44</ele>
        <time>2018-05-29T09:46:05Z</time>
      </trkpt>
      <trkpt lat="49.2876" lon="1.2754">
        <ele>41.95</ele>
        <time>2018-05-29T09:46:06Z</time>
      </trkpt>
      <trkpt lat="49.28756" lon="1.27545">
        <ele>40.99</ele>
        <time>2018-05-29T09:46:07Z</time>
      </trkpt>
      <trkpt lat="49.28753" lon="1.27548">
        <ele>40.99</ele>
        <time>2018-05-29T09:46:08Z</time>
      </trkpt>
      <trkpt lat="49.28751" lon="1.2755">
        <ele>40.03</ele>
        <time>2018-05-29T09:46:09Z</time>
      </trkpt>
      <trkpt lat="49.28749" lon="1.27551">
        <ele>40.03</ele>
        <time>2018-05-29T09:46:10Z</time>
      </trkpt>
      <trkpt lat="49.28747" lon="1.2755">
        <ele>39.55</ele>
        <time>2018-05-29T09:46:11Z</time>
      </trkpt>
      <trkpt lat="49.28746" lon="1.27547">
        <ele>39.55</ele>
        <time>2018-05-29T09:46:12Z</time>
      </trkpt>
      <trkpt lat="49.28744" lon="1.27544">
        <ele>39.07</ele>
        <time>2018-05-29T09:46:13Z</time>
      </trkpt>
      <trkpt lat="49.28741" lon="1.27539">
        <ele>39.07</ele>
        <time>2018-05-29T09:46:14Z</time>
      </trkpt>
      <trkpt lat="49.28739" lon="1.27534">
        <ele>38.11</ele>
        <time>2018-05-29T09:46:15Z</time>
      </trkpt>
      <trkpt lat="49.28716" lon="1.275">
        <ele>37.15</ele>
        <time>2018-05-29T09:46:22Z</time>
      </trkpt>
      <trkpt lat="49.28713" lon="1.27495">
        <ele>36.67</ele>
        <time>2018-05-29T09:46:23Z</time>
      </trkpt>
      <trkpt lat="49.28694" lon="1.27465">
        <ele>35.23</ele>
        <time>2018-05-29T09:46:28Z</time>
      </trkpt>
      <trkpt lat="49.28687" lon="1.27453">
        <ele>34.26</ele>
        <time>2018-05-29T09:46:30Z</time>
      </trkpt>
      <trkpt lat="49.28677" lon="1.27428">
        <ele>33.3</ele>
        <time>2018-05-29T09:46:33Z</time>
      </trkpt>
      <trkpt lat="49.28671" lon="1.27411">
        <ele>32.82</ele>
        <time>2018-05-29T09:46:35Z</time>
      </trkpt>
      <trkpt lat="49.28665" lon="1.27396">
        <ele>32.34</ele>
        <time>2018-05-29T09:46:37Z</time>
      </trkpt>
      <trkpt lat="49.28662" lon="1.27388">
        <ele>31.86</ele>
        <time>2018-05-29T09:46:38Z</time>
      </trkpt>
      <trkpt lat="49.2866" lon="1.2738">
        <ele>31.86</ele>
        <time>2018-05-29T09:46:39Z</time>
      </trkpt>
      <trkpt lat="49.28658" lon="1.27362">
        <ele>31.38</ele>
        <time>2018-05-29T09:46:41Z</time>
      </trkpt>
      <trkpt lat="49.28657" lon="1.27347">
        <ele>30.9</ele>
        <time>2018-05-29T09:46:43Z</time>
      </trkpt>
      <trkpt lat="49.2865" lon="1.27298">
        <ele>29.46</ele>
        <time>2018-05-29T09:46:49Z</time>
      </trkpt>
      <trkpt lat="49.2865" lon="1.27289">
        <ele>29.46</ele>
        <time>2018-05-29T09:46:50Z</time>
      </trkpt>
      <trkpt lat="49.2865" lon="1.27272">
        <ele>29.46</ele>
        <time>2018-05-29T09:46:57Z</time>
      </trkpt>
      <trkpt lat="49.2865" lon="1.27273">
        <ele>28.5</ele>
        <time>2018-05-29T09:46:58Z</time>
      </trkpt>
      <trkpt lat="49.28645" lon="1.27277">
        <ele>28.98</ele>
        <time>2018-05-29T09:47:04Z</time>
      </trkpt>
      <trkpt lat="49.2863" lon="1.27282">
        <ele>28.98</ele>
        <time>2018-05-29T09:47:10Z</time>
      </trkpt>
      <trkpt lat="49.2862" lon="1.27282">
        <ele>32.34</ele>
        <time>2018-05-29T09:47:15Z</time>
      </trkpt>
      <trkpt lat="49.28618" lon="1.27284">
        <ele>33.78</ele>
        <time>2018-05-29T09:47:18Z</time>
      </trkpt>
      <trkpt lat="49.28613" lon="1.27281">
        <ele>34.26</ele>
        <time>2018-05-29T09:47:41Z</time>
      </trkpt>
      <trkpt lat="49.2861" lon="1.27283">
        <ele>34.74</ele>
        <time>2018-05-29T09:48:15Z</time>
      </trkpt>
      <trkpt lat="49.28603" lon="1.27286">
        <ele>36.67</ele>
        <time>2018-05-29T09:48:29Z</time>
      </trkpt>
      <trkpt lat="49.286" lon="1.27285">
        <ele>38.59</ele>
        <time>2018-05-29T09:48:40Z</time>
      </trkpt>
      <trkpt lat="49.28599" lon="1.27284">
        <ele>38.59</ele>
        <time>2018-05-29T09:48:54Z</time>
      </trkpt>
      <trkpt lat="49.28594" lon="1.27285">
        <ele>40.51</ele>
        <time>2018-05-29T09:49:05Z</time>
      </trkpt>
      <trkpt lat="49.28587" lon="1.27287">
        <ele>40.99</ele>
        <time>2018-05-29T09:49:16Z</time>
      </trkpt>
      <trkpt lat="49.28577" lon="1.27285">
        <ele>43.4</ele>
        <time>2018-05-29T09:49:25Z</time>
      </trkpt>
      <trkpt lat="49.28571" lon="1.27284">
        <ele>44.36</ele>
        <time>2018-05-29T09:49:38Z</time>
      </trkpt>
      <trkpt lat="49.28569" lon="1.27283">
        <ele>44.36</ele>
        <time>2018-05-29T09:49:41Z</time>
      </trkpt>
      <trkpt lat="49.28561" lon="1.27279">
        <ele>44.84</ele>
        <time>2018-05-29T09:49:46Z</time>
      </trkpt>
      <trkpt lat="49.28552" lon="1.2728">
        <ele>46.76</ele>
        <time>2018-05-29T09:49:52Z</time>
      </trkpt>
      <trkpt lat="49.28539" lon="1.27279">
        <ele>48.2</ele>
        <time>2018-05-29T09:50:02Z</time>
      </trkpt>
      <trkpt lat="49.28536" lon="1.27281">
        <ele>49.65</ele>
        <time>2018-05-29T09:50:06Z</time>
      </trkpt>
      <trkpt lat="49.28531" lon="1.27284">
        <ele>52.05</ele>
        <time>2018-05-29T09:50:17Z</time>
      </trkpt>
      <trkpt lat="49.28522" lon="1.2728">
        <ele>54.45</ele>
        <time>2018-05-29T09:50:31Z</time>
      </trkpt>
      <trkpt lat="49.28513" lon="1.27275">
        <ele>55.89</ele>
        <time>2018-05-29T09:50:45Z</time>
      </trkpt>
      <trkpt lat="49.28511" lon="1.27275">
        <ele>56.37</ele>
        <time>2018-05-29T09:50:51Z</time>
      </trkpt>
      <trkpt lat="49.2851" lon="1.27274">
        <ele>56.86</ele>
        <time>2018-05-29T09:50:53Z</time>
      </trkpt>
      <trkpt lat="49.28496" lon="1.2727">
        <ele>59.26</ele>
        <time>2018-05-29T09:51:04Z</time>
      </trkpt>
      <trkpt lat="49.2849" lon="1.27269">
        <ele>60.7</ele>
        <time>2018-05-29T09:51:16Z</time>
      </trkpt>
      <trkpt lat="49.28489" lon="1.27271">
        <ele>60.7</ele>
        <time>2018-05-29T09:51:42Z</time>
      </trkpt>
      <trkpt lat="49.28489" lon="1.27273">
        <ele>60.7</ele>
        <time>2018-05-29T09:52:19Z</time>
      </trkpt>
      <trkpt lat="49.28488" lon="1.27274">
        <ele>60.22</ele>
        <time>2018-05-29T09:52:47Z</time>
      </trkpt>
      <trkpt lat="49.28489" lon="1.27272">
        <ele>60.22</ele>
        <time>2018-05-29T09:53:21Z</time>
      </trkpt>
      <trkpt lat="49.28488" lon="1.27274">
        <ele>60.22</ele>
        <time>2018-05-29T09:53:32Z</time>
      </trkpt>
      <trkpt lat="49.28488" lon="1.2727">
        <ele>60.22</ele>
        <time>2018-05-29T09:53:44Z</time>
      </trkpt>
      <trkpt lat="49.2848" lon="1.27271">
        <ele>61.66</ele>
        <time>2018-05-29T09:53:52Z</time>
      </trkpt>
      <trkpt lat="49.28475" lon="1.27279">
        <ele>62.62</ele>
        <time>2018-05-29T09:54:00Z</time>
      </trkpt>
      <trkpt lat="49.2847" lon="1.27282">
        <ele>63.1</ele>
        <time>2018-05-29T09:54:04Z</time>
      </trkpt>
      <trkpt lat="49.28454" lon="1.27306">
        <ele>66.47</ele>
        <time>2018-05-29T09:54:19Z</time>
      </trkpt>
      <trkpt lat="49.28445" lon="1.27343">
        <ele>69.83</ele>
        <time>2018-05-29T09:54:35Z</time>
      </trkpt>
      <trkpt lat="49.28443" lon="1.27354">
        <ele>70.31</ele>
        <time>2018-05-29T09:54:50Z</time>
      </trkpt>
      <trkpt lat="49.28442" lon="1.27355">
        <ele>70.31</ele>
        <time>2018-05-29T09:55:08Z</time>
      </trkpt>
      <trkpt lat="49.28439" lon="1.27355">
        <ele>70.31</ele>
        <time>2018-05-29T09:55:16Z</time>
      </trkpt>
      <trkpt lat="49.28433" lon="1.27352">
        <ele>65.99</ele>
        <time>2018-05-29T09:55:22Z</time>
      </trkpt>
      <trkpt lat="49.28433" lon="1.27352">
        <ele>65.99</ele>
        <time>2018-05-29T09:55:23Z</time>
      </trkpt>
      <trkpt lat="49.28428" lon="1.27346">
        <ele>63.58</ele>
        <time>2018-05-29T09:55:32Z</time>
      </trkpt>
      <trkpt lat="49.28412" lon="1.27342">
        <ele>63.1</ele>
        <time>2018-05-29T09:55:40Z</time>
      </trkpt>
      <trkpt lat="49.28408" lon="1.27341">
        <ele>64.07</ele>
        <time>2018-05-29T09:55:41Z</time>
      </trkpt>
      <trkpt lat="49.28399" lon="1.27332">
        <ele>65.03</ele>
        <time>2018-05-29T09:55:48Z</time>
      </trkpt>
      <trkpt lat="49.28372" lon="1.27321">
        <ele>66.47</ele>
        <time>2018-05-29T09:56:02Z</time>
      </trkpt>
      <trkpt lat="49.28369" lon="1.27321">
        <ele>66.47</ele>
        <time>2018-05-29T09:56:03Z</time>
      </trkpt>
      <trkpt lat="49.28362" lon="1.273">
        <ele>68.87</ele>
        <time>2018-05-29T09:56:12Z</time>
      </trkpt>
      <trkpt lat="49.28358" lon="1.27271">
        <ele>71.76</ele>
        <time>2018-05-29T09:56:22Z</time>
      </trkpt>
      <trkpt lat="49.28353" lon="1.27246">
        <ele>75.6</ele>
        <time>2018-05-29T09:56:34Z</time>
      </trkpt>
      <trkpt lat="49.28345" lon="1.27222">
        <ele>78.97</ele>
        <time>2018-05-29T09:56:45Z</time>
      </trkpt>
      <trkpt lat="49.28337" lon="1.27203">
        <ele>81.85</ele>
        <time>2018-05-29T09:56:55Z</time>
      </trkpt>
      <trkpt lat="49.28334" lon="1.27189">
        <ele>83.77</ele>
        <time>2018-05-29T09:57:01Z</time>
      </trkpt>
      <trkpt lat="49.28323" lon="1.27178">
        <ele>86.18</ele>
        <time>2018-05-29T09:57:15Z</time>
      </trkpt>
      <trkpt lat="49.28324" lon="1.2718">
        <ele>86.18</ele>
        <time>2018-05-29T09:57:39Z</time>
      </trkpt>
      <trkpt lat="49.28324" lon="1.27184">
        <ele>86.18</ele>
        <time>2018-05-29T09:57:41Z</time>
      </trkpt>
      <trkpt lat="49.28323" lon="1.27195">
        <ele>86.66</ele>
        <time>2018-05-29T09:57:45Z</time>
      </trkpt>
      <trkpt lat="49.28318" lon="1.27221">
        <ele>89.54</ele>
        <time>2018-05-29T09:57:59Z</time>
      </trkpt>
      <trkpt lat="49.28316" lon="1.27227">
        <ele>90.5</ele>
        <time>2018-05-29T09:58:02Z</time>
      </trkpt>
      <trkpt lat="49.28314" lon="1.27238">
        <ele>91.94</ele>
        <time>2018-05-29T09:58:07Z</time>
      </trkpt>
      <trkpt lat="49.2831" lon="1.27256">
        <ele>93.87</ele>
        <time>2018-05-29T09:58:15Z</time>
      </trkpt>
      <trkpt lat="49.28305" lon="1.2727">
        <ele>96.27</ele>
        <time>2018-05-29T09:58:22Z</time>
      </trkpt>
      <trkpt lat="49.28304" lon="1.27273">
        <ele>96.75</ele>
        <time>2018-05-29T09:58:24Z</time>
      </trkpt>
      <trkpt lat="49.28296" lon="1.27292">
        <ele>99.63</ele>
        <time>2018-05-29T09:58:35Z</time>
      </trkpt>
      <trkpt lat="49.28282" lon="1.27313">
        <ele>103.48</ele>
        <time>2018-05-29T09:58:49Z</time>
      </trkpt>
      <trkpt lat="49.28276" lon="1.27326">
        <ele>106.36</ele>
        <time>2018-05-29T09:59:00Z</time>
      </trkpt>
      <trkpt lat="49.28269" lon="1.27336">
        <ele>109.25</ele>
        <time>2018-05-29T09:59:10Z</time>
      </trkpt>
      <trkpt lat="49.2826" lon="1.27347">
        <ele>112.61</ele>
        <time>2018-05-29T09:59:21Z</time>
      </trkpt>
      <trkpt lat="49.28253" lon="1.27355">
        <ele>113.57</ele>
        <time>2018-05-29T09:59:25Z</time>
      </trkpt>
      <trkpt lat="49.28248" lon="1.27361">
        <ele>114.53</ele>
        <time>2018-05-29T09:59:30Z</time>
      </trkpt>
      <trkpt lat="49.28237" lon="1.27374">
        <ele>118.38</ele>
        <time>2018-05-29T09:59:41Z</time>
      </trkpt>
      <trkpt lat="49.2822" lon="1.27397">
        <ele>122.22</ele>
        <time>2018-05-29T09:59:55Z</time>
      </trkpt>
      <trkpt lat="49.28206" lon="1.27419">
        <ele>124.15</ele>
        <time>2018-05-29T10:00:07Z</time>
      </trkpt>
      <trkpt lat="49.28198" lon="1.2744">
        <ele>126.07</ele>
        <time>2018-05-29T10:00:17Z</time>
      </trkpt>
      <trkpt lat="49.28182" lon="1.27455">
        <ele>128.47</ele>
        <time>2018-05-29T10:00:30Z</time>
      </trkpt>
      <trkpt lat="49.28168" lon="1.27464">
        <ele>129.92</ele>
        <time>2018-05-29T10:00:38Z</time>
      </trkpt>
      <trkpt lat="49.28161" lon="1.27471">
        <ele>130.88</ele>
        <time>2018-05-29T10:00:43Z</time>
      </trkpt>
      <trkpt lat="49.28155" lon="1.27479">
        <ele>131.84</ele>
        <time>2018-05-29T10:00:47Z</time>
      </trkpt>
      <trkpt lat="49.28144" lon="1.275">
        <ele>133.76</ele>
        <time>2018-05-29T10:00:56Z</time>
      </trkpt>
      <trkpt lat="49.28143" lon="1.27511">
        <ele>134.24</ele>
        <time>2018-05-29T10:01:00Z</time>
      </trkpt>
      <trkpt lat="49.28125" lon="1.27547">
        <ele>135.2</ele>
        <time>2018-05-29T10:01:13Z</time>
      </trkpt>
      <trkpt lat="49.28078" lon="1.27587">
        <ele>135.2</ele>
        <time>2018-05-29T10:01:26Z</time>
      </trkpt>
      <trkpt lat="49.28055" lon="1.27608">
        <ele>135.68</ele>
        <time>2018-05-29T10:01:33Z</time>
      </trkpt>
      <trkpt lat="49.28049" lon="1.27621">
        <ele>135.68</ele>
        <time>2018-05-29T10:01:38Z</time>
      </trkpt>
      <trkpt lat="49.28021" lon="1.27691">
        <ele>136.64</ele>
        <time>2018-05-29T10:01:53Z</time>
      </trkpt>
      <trkpt lat="49.27993" lon="1.27761">
        <ele>136.64</ele>
        <time>2018-05-29T10:02:06Z</time>
      </trkpt>
      <trkpt lat="49.27981" lon="1.27789">
        <ele>137.13</ele>
        <time>2018-05-29T10:02:11Z</time>
      </trkpt>
      <trkpt lat="49.27956" lon="1.27852">
        <ele>137.13</ele>
        <time>2018-05-29T10:02:22Z</time>
      </trkpt>
      <trkpt lat="49.27941" lon="1.27884">
        <ele>136.64</ele>
        <time>2018-05-29T10:02:28Z</time>
      </trkpt>
      <trkpt lat="49.27922" lon="1.27925">
        <ele>136.64</ele>
        <time>2018-05-29T10:02:36Z</time>
      </trkpt>
      <trkpt lat="49.27889" lon="1.28001">
        <ele>136.64</ele>
        <time>2018-05-29T10:02:50Z</time>
      </trkpt>
      <trkpt lat="49.27875" lon="1.28035">
        <ele>136.64</ele>
        <time>2018-05-29T10:02:56Z</time>
      </trkpt>
      <trkpt lat="49.27866" lon="1.28064">
        <ele>136.64</ele>
        <time>2018-05-29T10:03:01Z</time>
      </trkpt>
      <trkpt lat="49.27857" lon="1.28087">
        <ele>136.64</ele>
        <time>2018-05-29T10:03:05Z</time>
      </trkpt>
      <trkpt lat="49.27848" lon="1.28115">
        <ele>135.68</ele>
        <time>2018-05-29T10:03:09Z</time>
      </trkpt>
      <trkpt lat="49.27838" lon="1.28141">
        <ele>134.72</ele>
        <time>2018-05-29T10:03:13Z</time>
      </trkpt>
      <trkpt lat="49.27812" lon="1.28206">
        <ele>131.36</ele>
        <time>2018-05-29T10:03:22Z</time>
      </trkpt>
      <trkpt lat="49.27794" lon="1.28249">
        <ele>130.88</ele>
        <time>2018-05-29T10:03:28Z</time>
      </trkpt>
      <trkpt lat="49.27784" lon="1.28272">
        <ele>130.4</ele>
        <time>2018-05-29T10:03:32Z</time>
      </trkpt>
      <trkpt lat="49.2777" lon="1.28286">
        <ele>129.92</ele>
        <time>2018-05-29T10:03:38Z</time>
      </trkpt>
      <trkpt lat="49.27769" lon="1.28284">
        <ele>129.92</ele>
        <time>2018-05-29T10:03:39Z</time>
      </trkpt>
      <trkpt lat="49.27768" lon="1.2828">
        <ele>129.43</ele>
        <time>2018-05-29T10:03:40Z</time>
      </trkpt>
      <trkpt lat="49.27767" lon="1.28277">
        <ele>129.43</ele>
        <time>2018-05-29T10:03:41Z</time>
      </trkpt>
      <trkpt lat="49.27767" lon="1.28273">
        <ele>129.43</ele>
        <time>2018-05-29T10:03:42Z</time>
      </trkpt>
      <trkpt lat="49.27767" lon="1.2827">
        <ele>129.43</ele>
        <time>2018-05-29T10:03:43Z</time>
      </trkpt>
      <trkpt lat="49.27766" lon="1.28266">
        <ele>129.43</ele>
        <time>2018-05-29T10:03:44Z</time>
      </trkpt>
      <trkpt lat="49.27765" lon="1.28262">
        <ele>129.43</ele>
        <time>2018-05-29T10:03:45Z</time>
      </trkpt>
      <trkpt lat="49.27764" lon="1.28257">
        <ele>129.43</ele>
        <time>2018-05-29T10:03:46Z</time>
      </trkpt>
      <trkpt lat="49.27762" lon="1.28252">
        <ele>129.43</ele>
        <time>2018-05-29T10:03:47Z</time>
      </trkpt>
      <trkpt lat="49.27753" lon="1.28231">
        <ele>129.43</ele>
        <time>2018-05-29T10:03:51Z</time>
      </trkpt>
      <trkpt lat="49.2775" lon="1.28226">
        <ele>129.43</ele>
        <time>2018-05-29T10:03:52Z</time>
      </trkpt>
      <trkpt lat="49.27725" lon="1.28196">
        <ele>129.43</ele>
        <time>2018-05-29T10:04:03Z</time>
      </trkpt>
      <trkpt lat="49.27724" lon="1.28197">
        <ele>129.43</ele>
        <time>2018-05-29T10:04:06Z</time>
      </trkpt>
      <trkpt lat="49.27724" lon="1.28199">
        <ele>129.43</ele>
        <time>2018-05-29T10:04:07Z</time>
      </trkpt>
      <trkpt lat="49.27726" lon="1.282">
        <ele>129.43</ele>
        <time>2018-05-29T10:04:08Z</time>
      </trkpt>
      <trkpt lat="49.27753" lon="1.28234">
        <ele>129.43</ele>
        <time>2018-05-29T10:04:19Z</time>
      </trkpt>
      <trkpt lat="49.27766" lon="1.28272">
        <ele>129.43</ele>
        <time>2018-05-29T10:04:27Z</time>
      </trkpt>
      <trkpt lat="49.27767" lon="1.28278">
        <ele>129.43</ele>
        <time>2018-05-29T10:04:28Z</time>
      </trkpt>
      <trkpt lat="49.27768" lon="1.28284">
        <ele>129.43</ele>
        <time>2018-05-29T10:04:29Z</time>
      </trkpt>
      <trkpt lat="49.27769" lon="1.28328">
        <ele>129.43</ele>
        <time>2018-05-29T10:04:40Z</time>
      </trkpt>
      <trkpt lat="49.27768" lon="1.28326">
        <ele>129.43</ele>
        <time>2018-05-29T10:04:47Z</time>
      </trkpt>
      <trkpt lat="49.27768" lon="1.2832">
        <ele>129.43</ele>
        <time>2018-05-29T10:04:49Z</time>
      </trkpt>
      <trkpt lat="49.27768" lon="1.28316">
        <ele>129.43</ele>
        <time>2018-05-29T10:04:50Z</time>
      </trkpt>
      <trkpt lat="49.27768" lon="1.28311">
        <ele>129.43</ele>
        <time>2018-05-29T10:04:51Z</time>
      </trkpt>
      <trkpt lat="49.2777" lon="1.28294">
        <ele>129.43</ele>
        <time>2018-05-29T10:04:54Z</time>
      </trkpt>
      <trkpt lat="49.27769" lon="1.28287">
        <ele>129.43</ele>
        <time>2018-05-29T10:04:55Z</time>
      </trkpt>
      <trkpt lat="49.27767" lon="1.28274">
        <ele>129.43</ele>
        <time>2018-05-29T10:04:57Z</time>
      </trkpt>
      <trkpt lat="49.27764" lon="1.2826">
        <ele>129.43</ele>
        <time>2018-05-29T10:04:59Z</time>
      </trkpt>
      <trkpt lat="49.27755" lon="1.28234">
        <ele>129.43</ele>
        <time>2018-05-29T10:05:03Z</time>
      </trkpt>
      <trkpt lat="49.27752" lon="1.28229">
        <ele>129.43</ele>
        <time>2018-05-29T10:05:04Z</time>
      </trkpt>
      <trkpt lat="49.27722" lon="1.28194">
        <ele>129.43</ele>
        <time>2018-05-29T10:05:12Z</time>
      </trkpt>
      <trkpt lat="49.27717" lon="1.28189">
        <ele>129.43</ele>
        <time>2018-05-29T10:05:13Z</time>
      </trkpt>
      <trkpt lat="49.27713" lon="1.28184">
        <ele>129.43</ele>
        <time>2018-05-29T10:05:14Z</time>
      </trkpt>
      <trkpt lat="49.27709" lon="1.28179">
        <ele>129.43</ele>
        <time>2018-05-29T10:05:15Z</time>
      </trkpt>
      <trkpt lat="49.27704" lon="1.28174">
        <ele>130.88</ele>
        <time>2018-05-29T10:05:16Z</time>
      </trkpt>
      <trkpt lat="49.277" lon="1.28168">
        <ele>130.88</ele>
        <time>2018-05-29T10:05:17Z</time>
      </trkpt>
      <trkpt lat="49.27656" lon="1.2811">
        <ele>132.8</ele>
        <time>2018-05-29T10:05:27Z</time>
      </trkpt>
      <trkpt lat="49.27637" lon="1.28093">
        <ele>132.8</ele>
        <time>2018-05-29T10:05:31Z</time>
      </trkpt>
      <trkpt lat="49.27617" lon="1.28079">
        <ele>132.8</ele>
        <time>2018-05-29T10:05:38Z</time>
      </trkpt>
      <trkpt lat="49.27617" lon="1.28081">
        <ele>132.8</ele>
        <time>2018-05-29T10:05:39Z</time>
      </trkpt>
      <trkpt lat="49.27617" lon="1.28082">
        <ele>132.8</ele>
        <time>2018-05-29T10:05:40Z</time>
      </trkpt>
      <trkpt lat="49.27622" lon="1.28084">
        <ele>132.8</ele>
        <time>2018-05-29T10:05:43Z</time>
      </trkpt>
      <trkpt lat="49.27634" lon="1.28095">
        <ele>132.8</ele>
        <time>2018-05-29T10:05:51Z</time>
      </trkpt>
      <trkpt lat="49.27631" lon="1.28101">
        <ele>132.8</ele>
        <time>2018-05-29T10:06:00Z</time>
      </trkpt>
      <trkpt lat="49.27631" lon="1.281">
        <ele>132.8</ele>
        <time>2018-05-29T10:06:26Z</time>
      </trkpt>
      <trkpt lat="49.27631" lon="1.28101">
        <ele>132.8</ele>
        <time>2018-05-29T10:06:51Z</time>
      </trkpt>
      <trkpt lat="49.2763" lon="1.28101">
        <ele>132.8</ele>
        <time>2018-05-29T10:07:17Z</time>
      </trkpt>
      <trkpt lat="49.27631" lon="1.28102">
        <ele>132.8</ele>
        <time>2018-05-29T10:07:50Z</time>
      </trkpt>
      <trkpt lat="49.27626" lon="1.28107">
        <ele>132.8</ele>
        <time>2018-05-29T10:08:20Z</time>
      </trkpt>
      <trkpt lat="49.27597" lon="1.28143">
        <ele>131.84</ele>
        <time>2018-05-29T10:08:30Z</time>
      </trkpt>
      <trkpt lat="49.27555" lon="1.28202">
        <ele>129.92</ele>
        <time>2018-05-29T10:08:43Z</time>
      </trkpt>
      <trkpt lat="49.27523" lon="1.28242">
        <ele>127.51</ele>
        <time>2018-05-29T10:08:52Z</time>
      </trkpt>
      <trkpt lat="49.27517" lon="1.28251">
        <ele>127.51</ele>
        <time>2018-05-29T10:08:54Z</time>
      </trkpt>
      <trkpt lat="49.2749" lon="1.28278">
        <ele>124.63</ele>
        <time>2018-05-29T10:09:06Z</time>
      </trkpt>
      <trkpt lat="49.27491" lon="1.28292">
        <ele>123.19</ele>
        <time>2018-05-29T10:09:16Z</time>
      </trkpt>
      <trkpt lat="49.27491" lon="1.28292">
        <ele>123.19</ele>
        <time>2018-05-29T10:09:33Z</time>
      </trkpt>
      <trkpt lat="49.2748" lon="1.28293">
        <ele>122.71</ele>
        <time>2018-05-29T10:09:40Z</time>
      </trkpt>
      <trkpt lat="49.27479" lon="1.28268">
        <ele>124.63</ele>
        <time>2018-05-29T10:09:52Z</time>
      </trkpt>
      <trkpt lat="49.27499" lon="1.28266">
        <ele>125.59</ele>
        <time>2018-05-29T10:10:01Z</time>
      </trkpt>
      <trkpt lat="49.27537" lon="1.28225">
        <ele>127.51</ele>
        <time>2018-05-29T10:10:21Z</time>
      </trkpt>
      <trkpt lat="49.27571" lon="1.28182">
        <ele>129.43</ele>
        <time>2018-05-29T10:10:39Z</time>
      </trkpt>
      <trkpt lat="49.27601" lon="1.2814">
        <ele>131.36</ele>
        <time>2018-05-29T10:10:54Z</time>
      </trkpt>
      <trkpt lat="49.27634" lon="1.28097">
        <ele>132.32</ele>
        <time>2018-05-29T10:11:11Z</time>
      </trkpt>
      <trkpt lat="49.27635" lon="1.2809">
        <ele>132.32</ele>
        <time>2018-05-29T10:11:14Z</time>
      </trkpt>
      <trkpt lat="49.27633" lon="1.28088">
        <ele>132.32</ele>
        <time>2018-05-29T10:11:15Z</time>
      </trkpt>
      <trkpt lat="49.2763" lon="1.28086">
        <ele>132.32</ele>
        <time>2018-05-29T10:11:16Z</time>
      </trkpt>
      <trkpt lat="49.27627" lon="1.28085">
        <ele>132.32</ele>
        <time>2018-05-29T10:11:17Z</time>
      </trkpt>
      <trkpt lat="49.27572" lon="1.28048">
        <ele>132.8</ele>
        <time>2018-05-29T10:11:31Z</time>
      </trkpt>
      <trkpt lat="49.2747" lon="1.2798">
        <ele>131.84</ele>
        <time>2018-05-29T10:11:50Z</time>
      </trkpt>
      <trkpt lat="49.27376" lon="1.27916">
        <ele>128.47</ele>
        <time>2018-05-29T10:12:07Z</time>
      </trkpt>
      <trkpt lat="49.27371" lon="1.27913">
        <ele>127.99</ele>
        <time>2018-05-29T10:12:10Z</time>
      </trkpt>
      <trkpt lat="49.27371" lon="1.27915">
        <ele>127.99</ele>
        <time>2018-05-29T10:12:11Z</time>
      </trkpt>
      <trkpt lat="49.27372" lon="1.27917">
        <ele>127.99</ele>
        <time>2018-05-29T10:12:12Z</time>
      </trkpt>
      <trkpt lat="49.27374" lon="1.27918">
        <ele>127.99</ele>
        <time>2018-05-29T10:12:13Z</time>
      </trkpt>
      <trkpt lat="49.27375" lon="1.27918">
        <ele>127.99</ele>
        <time>2018-05-29T10:12:14Z</time>
      </trkpt>
      <trkpt lat="49.27376" lon="1.2792">
        <ele>127.99</ele>
        <time>2018-05-29T10:12:15Z</time>
      </trkpt>
      <trkpt lat="49.27377" lon="1.27923">
        <ele>127.99</ele>
        <time>2018-05-29T10:12:16Z</time>
      </trkpt>
      <trkpt lat="49.27364" lon="1.27941">
        <ele>127.99</ele>
        <time>2018-05-29T10:12:22Z</time>
      </trkpt>
      <trkpt lat="49.27354" lon="1.27954">
        <ele>127.51</ele>
        <time>2018-05-29T10:12:25Z</time>
      </trkpt>
      <trkpt lat="49.27314" lon="1.28003">
        <ele>125.59</ele>
        <time>2018-05-29T10:12:35Z</time>
      </trkpt>
      <trkpt lat="49.27295" lon="1.28011">
        <ele>124.15</ele>
        <time>2018-05-29T10:12:38Z</time>
      </trkpt>
      <trkpt lat="49.2726" lon="1.28018">
        <ele>123.19</ele>
        <time>2018-05-29T10:12:44Z</time>
      </trkpt>
      <trkpt lat="49.27242" lon="1.28022">
        <ele>122.71</ele>
        <time>2018-05-29T10:12:48Z</time>
      </trkpt>
      <trkpt lat="49.27159" lon="1.28038">
        <ele>120.78</ele>
        <time>2018-05-29T10:13:04Z</time>
      </trkpt>
      <trkpt lat="49.27125" lon="1.28046">
        <ele>120.3</ele>
        <time>2018-05-29T10:13:10Z</time>
      </trkpt>
      <trkpt lat="49.27118" lon="1.28068">
        <ele>119.82</ele>
        <time>2018-05-29T10:13:14Z</time>
      </trkpt>
      <trkpt lat="49.27123" lon="1.2808">
        <ele>118.86</ele>
        <time>2018-05-29T10:13:16Z</time>
      </trkpt>
      <trkpt lat="49.2713" lon="1.28105">
        <ele>118.38</ele>
        <time>2018-05-29T10:13:20Z</time>
      </trkpt>
      <trkpt lat="49.27142" lon="1.28156">
        <ele>116.94</ele>
        <time>2018-05-29T10:13:27Z</time>
      </trkpt>
      <trkpt lat="49.2715" lon="1.28188">
        <ele>115.5</ele>
        <time>2018-05-29T10:13:31Z</time>
      </trkpt>
      <trkpt lat="49.27142" lon="1.28223">
        <ele>112.61</ele>
        <time>2018-05-29T10:13:38Z</time>
      </trkpt>
      <trkpt lat="49.27133" lon="1.28225">
        <ele>112.13</ele>
        <time>2018-05-29T10:13:40Z</time>
      </trkpt>
      <trkpt lat="49.27099" lon="1.28233">
        <ele>110.69</ele>
        <time>2018-05-29T10:13:47Z</time>
      </trkpt>
      <trkpt lat="49.27061" lon="1.2824">
        <ele>107.81</ele>
        <time>2018-05-29T10:13:53Z</time>
      </trkpt>
      <trkpt lat="49.26998" lon="1.28252">
        <ele>104.92</ele>
        <time>2018-05-29T10:14:03Z</time>
      </trkpt>
      <trkpt lat="49.26929" lon="1.28257">
        <ele>103.48</ele>
        <time>2018-05-29T10:14:18Z</time>
      </trkpt>
      <trkpt lat="49.26925" lon="1.28256">
        <ele>103.48</ele>
        <time>2018-05-29T10:14:19Z</time>
      </trkpt>
      <trkpt lat="49.26904" lon="1.28249">
        <ele>102.04</ele>
        <time>2018-05-29T10:14:24Z</time>
      </trkpt>
      <trkpt lat="49.26832" lon="1.28207">
        <ele>100.11</ele>
        <time>2018-05-29T10:14:41Z</time>
      </trkpt>
      <trkpt lat="49.26823" lon="1.28203">
        <ele>101.56</ele>
        <time>2018-05-29T10:14:44Z</time>
      </trkpt>
      <trkpt lat="49.26809" lon="1.28221">
        <ele>102.04</ele>
        <time>2018-05-29T10:14:50Z</time>
      </trkpt>
      <trkpt lat="49.26803" lon="1.28254">
        <ele>99.63</ele>
        <time>2018-05-29T10:14:54Z</time>
      </trkpt>
      <trkpt lat="49.26795" lon="1.28297">
        <ele>96.75</ele>
        <time>2018-05-29T10:14:58Z</time>
      </trkpt>
      <trkpt lat="49.26788" lon="1.28335">
        <ele>93.39</ele>
        <time>2018-05-29T10:15:02Z</time>
      </trkpt>
      <trkpt lat="49.26781" lon="1.28372">
        <ele>89.54</ele>
        <time>2018-05-29T10:15:06Z</time>
      </trkpt>
      <trkpt lat="49.26774" lon="1.28413">
        <ele>86.18</ele>
        <time>2018-05-29T10:15:10Z</time>
      </trkpt>
      <trkpt lat="49.26768" lon="1.28441">
        <ele>82.81</ele>
        <time>2018-05-29T10:15:13Z</time>
      </trkpt>
      <trkpt lat="49.26758" lon="1.28487">
        <ele>79.45</ele>
        <time>2018-05-29T10:15:18Z</time>
      </trkpt>
      <trkpt lat="49.26747" lon="1.28532">
        <ele>76.08</ele>
        <time>2018-05-29T10:15:23Z</time>
      </trkpt>
      <trkpt lat="49.26739" lon="1.2857">
        <ele>72.24</ele>
        <time>2018-05-29T10:15:27Z</time>
      </trkpt>
      <trkpt lat="49.26733" lon="1.28593">
        <ele>70.79</ele>
        <time>2018-05-29T10:15:30Z</time>
      </trkpt>
      <trkpt lat="49.26728" lon="1.28616">
        <ele>69.35</ele>
        <time>2018-05-29T10:15:33Z</time>
      </trkpt>
      <trkpt lat="49.26718" lon="1.28656">
        <ele>66.95</ele>
        <time>2018-05-29T10:15:38Z</time>
      </trkpt>
      <trkpt lat="49.26691" lon="1.28684">
        <ele>64.55</ele>
        <time>2018-05-29T10:15:46Z</time>
      </trkpt>
      <trkpt lat="49.2668" lon="1.28677">
        <ele>64.07</ele>
        <time>2018-05-29T10:15:51Z</time>
      </trkpt>
      <trkpt lat="49.2663" lon="1.28659">
        <ele>64.07</ele>
        <time>2018-05-29T10:16:02Z</time>
      </trkpt>
      <trkpt lat="49.2657" lon="1.28681">
        <ele>60.7</ele>
        <time>2018-05-29T10:16:14Z</time>
      </trkpt>
      <trkpt lat="49.26558" lon="1.28686">
        <ele>59.74</ele>
        <time>2018-05-29T10:16:16Z</time>
      </trkpt>
      <trkpt lat="49.26518" lon="1.28702">
        <ele>55.89</ele>
        <time>2018-05-29T10:16:22Z</time>
      </trkpt>
      <trkpt lat="49.26489" lon="1.28713">
        <ele>52.53</ele>
        <time>2018-05-29T10:16:26Z</time>
      </trkpt>
      <trkpt lat="49.26483" lon="1.28715">
        <ele>52.53</ele>
        <time>2018-05-29T10:16:27Z</time>
      </trkpt>
      <trkpt lat="49.26427" lon="1.28736">
        <ele>49.65</ele>
        <time>2018-05-29T10:16:36Z</time>
      </trkpt>
      <trkpt lat="49.26407" lon="1.28747">
        <ele>48.2</ele>
        <time>2018-05-29T10:16:39Z</time>
      </trkpt>
      <trkpt lat="49.26403" lon="1.28751">
        <ele>47.72</ele>
        <time>2018-05-29T10:16:40Z</time>
      </trkpt>
      <trkpt lat="49.26398" lon="1.28758">
        <ele>47.72</ele>
        <time>2018-05-29T10:16:41Z</time>
      </trkpt>
      <trkpt lat="49.26393" lon="1.28765">
        <ele>46.76</ele>
        <time>2018-05-29T10:16:42Z</time>
      </trkpt>
      <trkpt lat="49.26389" lon="1.28772">
        <ele>46.76</ele>
        <time>2018-05-29T10:16:43Z</time>
      </trkpt>
      <trkpt lat="49.26372" lon="1.28799">
        <ele>45.32</ele>
        <time>2018-05-29T10:16:51Z</time>
      </trkpt>
      <trkpt lat="49.26371" lon="1.28799">
        <ele>44.84</ele>
        <time>2018-05-29T10:17:22Z</time>
      </trkpt>
      <trkpt lat="49.2637" lon="1.28809">
        <ele>44.84</ele>
        <time>2018-05-29T10:17:39Z</time>
      </trkpt>
      <trkpt lat="49.2637" lon="1.28812">
        <ele>44.84</ele>
        <time>2018-05-29T10:17:40Z</time>
      </trkpt>
      <trkpt lat="49.2637" lon="1.28815">
        <ele>44.84</ele>
        <time>2018-05-29T10:17:41Z</time>
      </trkpt>
      <trkpt lat="49.26364" lon="1.28834">
        <ele>43.88</ele>
        <time>2018-05-29T10:17:45Z</time>
      </trkpt>
      <trkpt lat="49.26354" lon="1.28869">
        <ele>40.51</ele>
        <time>2018-05-29T10:17:50Z</time>
      </trkpt>
      <trkpt lat="49.26352" lon="1.28879">
        <ele>39.55</ele>
        <time>2018-05-29T10:17:51Z</time>
      </trkpt>
      <trkpt lat="49.26343" lon="1.28927">
        <ele>35.71</ele>
        <time>2018-05-29T10:17:55Z</time>
      </trkpt>
      <trkpt lat="49.26339" lon="1.28952">
        <ele>33.3</ele>
        <time>2018-05-29T10:17:57Z</time>
      </trkpt>
      <trkpt lat="49.26331" lon="1.28981">
        <ele>29.94</ele>
        <time>2018-05-29T10:18:00Z</time>
      </trkpt>
      <trkpt lat="49.26328" lon="1.2899">
        <ele>29.94</ele>
        <time>2018-05-29T10:18:01Z</time>
      </trkpt>
      <trkpt lat="49.26325" lon="1.28997">
        <ele>28.98</ele>
        <time>2018-05-29T10:18:02Z</time>
      </trkpt>
      <trkpt lat="49.26323" lon="1.29001">
        <ele>28.5</ele>
        <time>2018-05-29T10:18:03Z</time>
      </trkpt>
      <trkpt lat="49.26321" lon="1.29004">
        <ele>27.53</ele>
        <time>2018-05-29T10:18:04Z</time>
      </trkpt>
      <trkpt lat="49.26319" lon="1.29006">
        <ele>28.02</ele>
        <time>2018-05-29T10:18:05Z</time>
      </trkpt>
      <trkpt lat="49.26319" lon="1.29007">
        <ele>27.53</ele>
        <time>2018-05-29T10:18:16Z</time>
      </trkpt>
      <trkpt lat="49.2632" lon="1.29008">
        <ele>27.53</ele>
        <time>2018-05-29T10:18:31Z</time>
      </trkpt>
      <trkpt lat="49.2632" lon="1.2901">
        <ele>27.53</ele>
        <time>2018-05-29T10:18:32Z</time>
      </trkpt>
      <trkpt lat="49.2632" lon="1.29012">
        <ele>27.53</ele>
        <time>2018-05-29T10:18:33Z</time>
      </trkpt>
      <trkpt lat="49.26321" lon="1.29015">
        <ele>27.53</ele>
        <time>2018-05-29T10:18:34Z</time>
      </trkpt>
      <trkpt lat="49.26323" lon="1.29019">
        <ele>27.53</ele>
        <time>2018-05-29T10:18:35Z</time>
      </trkpt>
      <trkpt lat="49.26326" lon="1.29023">
        <ele>27.53</ele>
        <time>2018-05-29T10:18:36Z</time>
      </trkpt>
      <trkpt lat="49.26328" lon="1.29028">
        <ele>27.53</ele>
        <time>2018-05-29T10:18:37Z</time>
      </trkpt>
      <trkpt lat="49.26394" lon="1.29122">
        <ele>28.5</ele>
        <time>2018-05-29T10:18:54Z</time>
      </trkpt>
      <trkpt lat="49.26433" lon="1.29228">
        <ele>28.98</ele>
        <time>2018-05-29T10:19:08Z</time>
      </trkpt>
      <trkpt lat="49.26435" lon="1.29237">
        <ele>28.98</ele>
        <time>2018-05-29T10:19:09Z</time>
      </trkpt>
      <trkpt lat="49.26437" lon="1.29245">
        <ele>28.98</ele>
        <time>2018-05-29T10:19:10Z</time>
      </trkpt>
      <trkpt lat="49.26439" lon="1.29253">
        <ele>28.98</ele>
        <time>2018-05-29T10:19:11Z</time>
      </trkpt>
      <trkpt lat="49.2644" lon="1.29261">
        <ele>29.46</ele>
        <time>2018-05-29T10:19:12Z</time>
      </trkpt>
      <trkpt lat="49.26443" lon="1.2927">
        <ele>29.46</ele>
        <time>2018-05-29T10:19:13Z</time>
      </trkpt>
      <trkpt lat="49.26479" lon="1.29421">
        <ele>29.94</ele>
        <time>2018-05-29T10:19:31Z</time>
      </trkpt>
      <trkpt lat="49.26514" lon="1.29579">
        <ele>30.9</ele>
        <time>2018-05-29T10:19:50Z</time>
      </trkpt>
      <trkpt lat="49.2655" lon="1.29733">
        <ele>31.38</ele>
        <time>2018-05-29T10:20:09Z</time>
      </trkpt>
      <trkpt lat="49.26585" lon="1.29887">
        <ele>32.34</ele>
        <time>2018-05-29T10:20:29Z</time>
      </trkpt>
      <trkpt lat="49.26595" lon="1.30023">
        <ele>34.74</ele>
        <time>2018-05-29T10:20:48Z</time>
      </trkpt>
      <trkpt lat="49.26599" lon="1.30147">
        <ele>35.71</ele>
        <time>2018-05-29T10:21:06Z</time>
      </trkpt>
      <trkpt lat="49.26595" lon="1.30173">
        <ele>36.19</ele>
        <time>2018-05-29T10:21:13Z</time>
      </trkpt>
      <trkpt lat="49.26595" lon="1.30175">
        <ele>35.71</ele>
        <time>2018-05-29T10:21:14Z</time>
      </trkpt>
      <trkpt lat="49.26595" lon="1.30177">
        <ele>35.71</ele>
        <time>2018-05-29T10:21:15Z</time>
      </trkpt>
      <trkpt lat="49.26594" lon="1.30179">
        <ele>35.71</ele>
        <time>2018-05-29T10:21:16Z</time>
      </trkpt>
      <trkpt lat="49.26592" lon="1.30179">
        <ele>35.71</ele>
        <time>2018-05-29T10:21:17Z</time>
      </trkpt>
      <trkpt lat="49.2659" lon="1.30177">
        <ele>35.71</ele>
        <time>2018-05-29T10:21:18Z</time>
      </trkpt>
      <trkpt lat="49.26588" lon="1.30175">
        <ele>35.71</ele>
        <time>2018-05-29T10:21:19Z</time>
      </trkpt>
      <trkpt lat="49.26585" lon="1.30174">
        <ele>35.71</ele>
        <time>2018-05-29T10:21:20Z</time>
      </trkpt>
      <trkpt lat="49.26582" lon="1.30172">
        <ele>35.71</ele>
        <time>2018-05-29T10:21:21Z</time>
      </trkpt>
      <trkpt lat="49.26578" lon="1.30172">
        <ele>35.71</ele>
        <time>2018-05-29T10:21:22Z</time>
      </trkpt>
      <trkpt lat="49.26566" lon="1.3017">
        <ele>35.71</ele>
        <time>2018-05-29T10:21:25Z</time>
      </trkpt>
      <trkpt lat="49.26562" lon="1.3017">
        <ele>35.71</ele>
        <time>2018-05-29T10:21:26Z</time>
      </trkpt>
      <trkpt lat="49.26546" lon="1.3017">
        <ele>35.71</ele>
        <time>2018-05-29T10:21:30Z</time>
      </trkpt>
      <trkpt lat="49.26542" lon="1.3017">
        <ele>35.71</ele>
        <time>2018-05-29T10:21:31Z</time>
      </trkpt>
      <trkpt lat="49.26538" lon="1.30165">
        <ele>35.71</ele>
        <time>2018-05-29T10:21:32Z</time>
      </trkpt>
      <trkpt lat="49.26536" lon="1.30162">
        <ele>35.71</ele>
        <time>2018-05-29T10:21:33Z</time>
      </trkpt>
      <trkpt lat="49.26533" lon="1.30158">
        <ele>35.71</ele>
        <time>2018-05-29T10:21:34Z</time>
      </trkpt>
      <trkpt lat="49.2653" lon="1.30153">
        <ele>35.71</ele>
        <time>2018-05-29T10:21:35Z</time>
      </trkpt>
      <trkpt lat="49.26525" lon="1.3015">
        <ele>35.71</ele>
        <time>2018-05-29T10:21:36Z</time>
      </trkpt>
      <trkpt lat="49.26522" lon="1.30148">
        <ele>36.19</ele>
        <time>2018-05-29T10:21:37Z</time>
      </trkpt>
      <trkpt lat="49.26518" lon="1.30146">
        <ele>36.19</ele>
        <time>2018-05-29T10:21:38Z</time>
      </trkpt>
      <trkpt lat="49.26495" lon="1.30134">
        <ele>38.11</ele>
        <time>2018-05-29T10:21:48Z</time>
      </trkpt>
      <trkpt lat="49.26466" lon="1.30123">
        <ele>40.99</ele>
        <time>2018-05-29T10:22:02Z</time>
      </trkpt>
      <trkpt lat="49.26441" lon="1.30118">
        <ele>43.4</ele>
        <time>2018-05-29T10:22:18Z</time>
      </trkpt>
      <trkpt lat="49.26412" lon="1.30118">
        <ele>46.28</ele>
        <time>2018-05-29T10:22:32Z</time>
      </trkpt>
      <trkpt lat="49.26383" lon="1.30121">
        <ele>49.65</ele>
        <time>2018-05-29T10:22:48Z</time>
      </trkpt>
      <trkpt lat="49.26355" lon="1.30125">
        <ele>52.05</ele>
        <time>2018-05-29T10:23:04Z</time>
      </trkpt>
      <trkpt lat="49.26327" lon="1.30128">
        <ele>54.45</ele>
        <time>2018-05-29T10:23:20Z</time>
      </trkpt>
      <trkpt lat="49.26299" lon="1.30126">
        <ele>56.86</ele>
        <time>2018-05-29T10:23:35Z</time>
      </trkpt>
      <trkpt lat="49.26256" lon="1.30116">
        <ele>59.26</ele>
        <time>2018-05-29T10:23:51Z</time>
      </trkpt>
      <trkpt lat="49.26229" lon="1.30117">
        <ele>60.22</ele>
        <time>2018-05-29T10:24:04Z</time>
      </trkpt>
      <trkpt lat="49.26228" lon="1.30117">
        <ele>60.22</ele>
        <time>2018-05-29T10:24:05Z</time>
      </trkpt>
      <trkpt lat="49.26227" lon="1.30116">
        <ele>60.22</ele>
        <time>2018-05-29T10:24:06Z</time>
      </trkpt>
      <trkpt lat="49.26225" lon="1.30117">
        <ele>60.22</ele>
        <time>2018-05-29T10:24:07Z</time>
      </trkpt>
      <trkpt lat="49.26224" lon="1.30119">
        <ele>60.22</ele>
        <time>2018-05-29T10:24:08Z</time>
      </trkpt>
      <trkpt lat="49.26223" lon="1.30123">
        <ele>60.7</ele>
        <time>2018-05-29T10:24:09Z</time>
      </trkpt>
      <trkpt lat="49.26223" lon="1.30127">
        <ele>60.7</ele>
        <time>2018-05-29T10:24:10Z</time>
      </trkpt>
      <trkpt lat="49.26224" lon="1.30132">
        <ele>60.7</ele>
        <time>2018-05-29T10:24:11Z</time>
      </trkpt>
      <trkpt lat="49.26224" lon="1.30136">
        <ele>60.7</ele>
        <time>2018-05-29T10:24:12Z</time>
      </trkpt>
      <trkpt lat="49.26224" lon="1.30141">
        <ele>60.7</ele>
        <time>2018-05-29T10:24:13Z</time>
      </trkpt>
      <trkpt lat="49.2623" lon="1.30218">
        <ele>62.62</ele>
        <time>2018-05-29T10:24:27Z</time>
      </trkpt>
      <trkpt lat="49.26234" lon="1.3027">
        <ele>62.62</ele>
        <time>2018-05-29T10:24:35Z</time>
      </trkpt>
      <trkpt lat="49.26235" lon="1.30277">
        <ele>62.62</ele>
        <time>2018-05-29T10:24:36Z</time>
      </trkpt>
      <trkpt lat="49.26244" lon="1.30395">
        <ele>63.1</ele>
        <time>2018-05-29T10:24:51Z</time>
      </trkpt>
      <trkpt lat="49.26251" lon="1.30549">
        <ele>63.58</ele>
        <time>2018-05-29T10:25:08Z</time>
      </trkpt>
      <trkpt lat="49.26253" lon="1.30602">
        <ele>63.58</ele>
        <time>2018-05-29T10:25:14Z</time>
      </trkpt>
      <trkpt lat="49.26251" lon="1.30697">
        <ele>63.58</ele>
        <time>2018-05-29T10:25:25Z</time>
      </trkpt>
      <trkpt lat="49.26248" lon="1.307">
        <ele>63.58</ele>
        <time>2018-05-29T10:25:26Z</time>
      </trkpt>
      <trkpt lat="49.26245" lon="1.30702">
        <ele>63.58</ele>
        <time>2018-05-29T10:25:27Z</time>
      </trkpt>
      <trkpt lat="49.26242" lon="1.30704">
        <ele>63.58</ele>
        <time>2018-05-29T10:25:28Z</time>
      </trkpt>
      <trkpt lat="49.26239" lon="1.30705">
        <ele>63.58</ele>
        <time>2018-05-29T10:25:29Z</time>
      </trkpt>
      <trkpt lat="49.26235" lon="1.30706">
        <ele>63.58</ele>
        <time>2018-05-29T10:25:30Z</time>
      </trkpt>
      <trkpt lat="49.26205" lon="1.30712">
        <ele>63.58</ele>
        <time>2018-05-29T10:25:37Z</time>
      </trkpt>
      <trkpt lat="49.26138" lon="1.30713">
        <ele>63.58</ele>
        <time>2018-05-29T10:25:53Z</time>
      </trkpt>
      <trkpt lat="49.26055" lon="1.30719">
        <ele>63.58</ele>
        <time>2018-05-29T10:26:14Z</time>
      </trkpt>
      <trkpt lat="49.26032" lon="1.3072">
        <ele>64.07</ele>
        <time>2018-05-29T10:26:20Z</time>
      </trkpt>
      <trkpt lat="49.26028" lon="1.3072">
        <ele>64.07</ele>
        <time>2018-05-29T10:26:21Z</time>
      </trkpt>
      <trkpt lat="49.26024" lon="1.30721">
        <ele>64.07</ele>
        <time>2018-05-29T10:26:22Z</time>
      </trkpt>
      <trkpt lat="49.25987" lon="1.30727">
        <ele>64.07</ele>
        <time>2018-05-29T10:26:31Z</time>
      </trkpt>
      <trkpt lat="49.25899" lon="1.30734">
        <ele>64.07</ele>
        <time>2018-05-29T10:26:51Z</time>
      </trkpt>
      <trkpt lat="49.2582" lon="1.30744">
        <ele>64.55</ele>
        <time>2018-05-29T10:27:10Z</time>
      </trkpt>
      <trkpt lat="49.25757" lon="1.30752">
        <ele>65.51</ele>
        <time>2018-05-29T10:27:26Z</time>
      </trkpt>
      <trkpt lat="49.2569" lon="1.30764">
        <ele>66.95</ele>
        <time>2018-05-29T10:27:44Z</time>
      </trkpt>
      <trkpt lat="49.25621" lon="1.30777">
        <ele>67.91</ele>
        <time>2018-05-29T10:28:03Z</time>
      </trkpt>
      <trkpt lat="49.2555" lon="1.3079">
        <ele>68.87</ele>
        <time>2018-05-29T10:28:23Z</time>
      </trkpt>
      <trkpt lat="49.25476" lon="1.30805">
        <ele>68.87</ele>
        <time>2018-05-29T10:28:42Z</time>
      </trkpt>
      <trkpt lat="49.25398" lon="1.3082">
        <ele>66.95</ele>
        <time>2018-05-29T10:29:01Z</time>
      </trkpt>
      <trkpt lat="49.25393" lon="1.30823">
        <ele>66.95</ele>
        <time>2018-05-29T10:29:03Z</time>
      </trkpt>
      <trkpt lat="49.25392" lon="1.30827">
        <ele>66.95</ele>
        <time>2018-05-29T10:29:04Z</time>
      </trkpt>
      <trkpt lat="49.25392" lon="1.30833">
        <ele>66.95</ele>
        <time>2018-05-29T10:29:05Z</time>
      </trkpt>
      <trkpt lat="49.25407" lon="1.30935">
        <ele>66.47</ele>
        <time>2018-05-29T10:29:19Z</time>
      </trkpt>
      <trkpt lat="49.25425" lon="1.31079">
        <ele>65.03</ele>
        <time>2018-05-29T10:29:34Z</time>
      </trkpt>
      <trkpt lat="49.25452" lon="1.31307">
        <ele>63.1</ele>
        <time>2018-05-29T10:29:55Z</time>
      </trkpt>
      <trkpt lat="49.25469" lon="1.31486">
        <ele>62.62</ele>
        <time>2018-05-29T10:30:12Z</time>
      </trkpt>
      <trkpt lat="49.25487" lon="1.31656">
        <ele>62.14</ele>
        <time>2018-05-29T10:30:29Z</time>
      </trkpt>
      <trkpt lat="49.25504" lon="1.3183">
        <ele>61.66</ele>
        <time>2018-05-29T10:30:47Z</time>
      </trkpt>
      <trkpt lat="49.2551" lon="1.31899">
        <ele>61.66</ele>
        <time>2018-05-29T10:30:55Z</time>
      </trkpt>
      <trkpt lat="49.25522" lon="1.32039">
        <ele>63.1</ele>
        <time>2018-05-29T10:31:11Z</time>
      </trkpt>
      <trkpt lat="49.25536" lon="1.322">
        <ele>65.51</ele>
        <time>2018-05-29T10:31:31Z</time>
      </trkpt>
      <trkpt lat="49.25544" lon="1.3226">
        <ele>65.51</ele>
        <time>2018-05-29T10:31:39Z</time>
      </trkpt>
      <trkpt lat="49.25569" lon="1.3235">
        <ele>66.47</ele>
        <time>2018-05-29T10:31:52Z</time>
      </trkpt>
      <trkpt lat="49.25577" lon="1.32376">
        <ele>67.43</ele>
        <time>2018-05-29T10:31:56Z</time>
      </trkpt>
      <trkpt lat="49.25611" lon="1.32486">
        <ele>70.31</ele>
        <time>2018-05-29T10:32:13Z</time>
      </trkpt>
      <trkpt lat="49.25639" lon="1.32583">
        <ele>72.72</ele>
        <time>2018-05-29T10:32:28Z</time>
      </trkpt>
      <trkpt lat="49.25658" lon="1.32633">
        <ele>74.64</ele>
        <time>2018-05-29T10:32:39Z</time>
      </trkpt>
      <trkpt lat="49.25669" lon="1.3271">
        <ele>77.52</ele>
        <time>2018-05-29T10:32:53Z</time>
      </trkpt>
      <trkpt lat="49.25672" lon="1.32781">
        <ele>80.41</ele>
        <time>2018-05-29T10:33:08Z</time>
      </trkpt>
      <trkpt lat="49.25682" lon="1.32855">
        <ele>83.77</ele>
        <time>2018-05-29T10:33:25Z</time>
      </trkpt>
      <trkpt lat="49.2569" lon="1.32905">
        <ele>86.66</ele>
        <time>2018-05-29T10:33:37Z</time>
      </trkpt>
      <trkpt lat="49.25702" lon="1.32941">
        <ele>88.58</ele>
        <time>2018-05-29T10:33:47Z</time>
      </trkpt>
      <trkpt lat="49.25701" lon="1.32944">
        <ele>88.58</ele>
        <time>2018-05-29T10:33:48Z</time>
      </trkpt>
      <trkpt lat="49.25699" lon="1.32946">
        <ele>88.58</ele>
        <time>2018-05-29T10:33:49Z</time>
      </trkpt>
      <trkpt lat="49.25697" lon="1.32946">
        <ele>89.06</ele>
        <time>2018-05-29T10:33:50Z</time>
      </trkpt>
      <trkpt lat="49.25695" lon="1.32945">
        <ele>89.06</ele>
        <time>2018-05-29T10:33:51Z</time>
      </trkpt>
      <trkpt lat="49.25693" lon="1.32945">
        <ele>89.06</ele>
        <time>2018-05-29T10:33:52Z</time>
      </trkpt>
      <trkpt lat="49.25691" lon="1.32944">
        <ele>89.06</ele>
        <time>2018-05-29T10:33:53Z</time>
      </trkpt>
      <trkpt lat="49.25688" lon="1.32943">
        <ele>89.06</ele>
        <time>2018-05-29T10:33:54Z</time>
      </trkpt>
      <trkpt lat="49.25685" lon="1.32943">
        <ele>89.06</ele>
        <time>2018-05-29T10:33:55Z</time>
      </trkpt>
      <trkpt lat="49.25645" lon="1.32964">
        <ele>90.98</ele>
        <time>2018-05-29T10:34:13Z</time>
      </trkpt>
      <trkpt lat="49.25616" lon="1.32996">
        <ele>94.35</ele>
        <time>2018-05-29T10:34:28Z</time>
      </trkpt>
      <trkpt lat="49.25592" lon="1.33028">
        <ele>97.23</ele>
        <time>2018-05-29T10:34:43Z</time>
      </trkpt>
      <trkpt lat="49.25567" lon="1.33073">
        <ele>100.6</ele>
        <time>2018-05-29T10:35:01Z</time>
      </trkpt>
      <trkpt lat="49.2555" lon="1.33106">
        <ele>103.96</ele>
        <time>2018-05-29T10:35:14Z</time>
      </trkpt>
      <trkpt lat="49.25528" lon="1.33141">
        <ele>107.32</ele>
        <time>2018-05-29T10:35:30Z</time>
      </trkpt>
      <trkpt lat="49.25506" lon="1.33177">
        <ele>110.21</ele>
        <time>2018-05-29T10:35:46Z</time>
      </trkpt>
      <trkpt lat="49.2549" lon="1.33191">
        <ele>111.65</ele>
        <time>2018-05-29T10:35:56Z</time>
      </trkpt>
      <trkpt lat="49.25472" lon="1.3321">
        <ele>113.09</ele>
        <time>2018-05-29T10:36:07Z</time>
      </trkpt>
      <trkpt lat="49.2547" lon="1.33212">
        <ele>113.09</ele>
        <time>2018-05-29T10:36:08Z</time>
      </trkpt>
      <trkpt lat="49.25456" lon="1.3323">
        <ele>115.5</ele>
        <time>2018-05-29T10:36:18Z</time>
      </trkpt>
      <trkpt lat="49.25446" lon="1.33246">
        <ele>116.94</ele>
        <time>2018-05-29T10:36:25Z</time>
      </trkpt>
      <trkpt lat="49.25434" lon="1.33268">
        <ele>119.34</ele>
        <time>2018-05-29T10:36:34Z</time>
      </trkpt>
      <trkpt lat="49.2542" lon="1.33289">
        <ele>122.22</ele>
        <time>2018-05-29T10:36:44Z</time>
      </trkpt>
      <trkpt lat="49.25417" lon="1.33295">
        <ele>122.71</ele>
        <time>2018-05-29T10:36:47Z</time>
      </trkpt>
      <trkpt lat="49.2541" lon="1.33314">
        <ele>124.63</ele>
        <time>2018-05-29T10:36:55Z</time>
      </trkpt>
      <trkpt lat="49.25389" lon="1.33349">
        <ele>127.51</ele>
        <time>2018-05-29T10:37:10Z</time>
      </trkpt>
      <trkpt lat="49.2538" lon="1.3336">
        <ele>128.47</ele>
        <time>2018-05-29T10:37:16Z</time>
      </trkpt>
      <trkpt lat="49.25367" lon="1.33394">
        <ele>130.88</ele>
        <time>2018-05-29T10:37:29Z</time>
      </trkpt>
      <trkpt lat="49.25344" lon="1.33424">
        <ele>132.8</ele>
        <time>2018-05-29T10:37:41Z</time>
      </trkpt>
      <trkpt lat="49.25327" lon="1.33469">
        <ele>133.28</ele>
        <time>2018-05-29T10:37:52Z</time>
      </trkpt>
      <trkpt lat="49.25301" lon="1.33517">
        <ele>133.28</ele>
        <time>2018-05-29T10:38:02Z</time>
      </trkpt>
      <trkpt lat="49.25287" lon="1.33578">
        <ele>133.28</ele>
        <time>2018-05-29T10:38:12Z</time>
      </trkpt>
      <trkpt lat="49.25274" lon="1.3362">
        <ele>133.28</ele>
        <time>2018-05-29T10:38:18Z</time>
      </trkpt>
      <trkpt lat="49.2527" lon="1.33644">
        <ele>131.84</ele>
        <time>2018-05-29T10:38:21Z</time>
      </trkpt>
      <trkpt lat="49.25267" lon="1.33662">
        <ele>130.88</ele>
        <time>2018-05-29T10:38:23Z</time>
      </trkpt>
      <trkpt lat="49.25236" lon="1.33777">
        <ele>127.99</ele>
        <time>2018-05-29T10:38:37Z</time>
      </trkpt>
      <trkpt lat="49.25213" lon="1.33895">
        <ele>124.63</ele>
        <time>2018-05-29T10:38:51Z</time>
      </trkpt>
      <trkpt lat="49.25208" lon="1.33931">
        <ele>124.15</ele>
        <time>2018-05-29T10:38:55Z</time>
      </trkpt>
      <trkpt lat="49.25208" lon="1.33937">
        <ele>124.15</ele>
        <time>2018-05-29T10:38:56Z</time>
      </trkpt>
      <trkpt lat="49.25203" lon="1.33978">
        <ele>127.51</ele>
        <time>2018-05-29T10:39:06Z</time>
      </trkpt>
      <trkpt lat="49.25204" lon="1.33979">
        <ele>127.03</ele>
        <time>2018-05-29T10:39:27Z</time>
      </trkpt>
      <trkpt lat="49.25202" lon="1.33979">
        <ele>127.03</ele>
        <time>2018-05-29T10:39:52Z</time>
      </trkpt>
      <trkpt lat="49.252" lon="1.33983">
        <ele>127.03</ele>
        <time>2018-05-29T10:40:31Z</time>
      </trkpt>
      <trkpt lat="49.25195" lon="1.33991">
        <ele>127.03</ele>
        <time>2018-05-29T10:40:59Z</time>
      </trkpt>
      <trkpt lat="49.25195" lon="1.34002">
        <ele>127.03</ele>
        <time>2018-05-29T10:41:02Z</time>
      </trkpt>
      <trkpt lat="49.25194" lon="1.34006">
        <ele>127.03</ele>
        <time>2018-05-29T10:41:03Z</time>
      </trkpt>
      <trkpt lat="49.25194" lon="1.34011">
        <ele>127.03</ele>
        <time>2018-05-29T10:41:04Z</time>
      </trkpt>
      <trkpt lat="49.25193" lon="1.34016">
        <ele>127.99</ele>
        <time>2018-05-29T10:41:05Z</time>
      </trkpt>
      <trkpt lat="49.25193" lon="1.34022">
        <ele>127.99</ele>
        <time>2018-05-29T10:41:06Z</time>
      </trkpt>
      <trkpt lat="49.25185" lon="1.34088">
        <ele>128.95</ele>
        <time>2018-05-29T10:41:15Z</time>
      </trkpt>
      <trkpt lat="49.25183" lon="1.34095">
        <ele>129.43</ele>
        <time>2018-05-29T10:41:16Z</time>
      </trkpt>
      <trkpt lat="49.25165" lon="1.34167">
        <ele>129.43</ele>
        <time>2018-05-29T10:41:25Z</time>
      </trkpt>
      <trkpt lat="49.25156" lon="1.34203">
        <ele>129.92</ele>
        <time>2018-05-29T10:41:30Z</time>
      </trkpt>
      <trkpt lat="49.25149" lon="1.34225">
        <ele>129.92</ele>
        <time>2018-05-29T10:41:33Z</time>
      </trkpt>
      <trkpt lat="49.25144" lon="1.34243">
        <ele>129.92</ele>
        <time>2018-05-29T10:41:35Z</time>
      </trkpt>
      <trkpt lat="49.2514" lon="1.3426">
        <ele>129.92</ele>
        <time>2018-05-29T10:41:37Z</time>
      </trkpt>
      <trkpt lat="49.25139" lon="1.34269">
        <ele>129.92</ele>
        <time>2018-05-29T10:41:38Z</time>
      </trkpt>
      <trkpt lat="49.25133" lon="1.34321">
        <ele>129.92</ele>
        <time>2018-05-29T10:41:44Z</time>
      </trkpt>
      <trkpt lat="49.25134" lon="1.34359">
        <ele>129.92</ele>
        <time>2018-05-29T10:41:49Z</time>
      </trkpt>
      <trkpt lat="49.25135" lon="1.34366">
        <ele>130.4</ele>
        <time>2018-05-29T10:41:50Z</time>
      </trkpt>
      <trkpt lat="49.25137" lon="1.34373">
        <ele>129.92</ele>
        <time>2018-05-29T10:41:51Z</time>
      </trkpt>
      <trkpt lat="49.2514" lon="1.34379">
        <ele>130.4</ele>
        <time>2018-05-29T10:41:52Z</time>
      </trkpt>
      <trkpt lat="49.25143" lon="1.34383">
        <ele>130.4</ele>
        <time>2018-05-29T10:41:53Z</time>
      </trkpt>
      <trkpt lat="49.25157" lon="1.34413">
        <ele>130.88</ele>
        <time>2018-05-29T10:42:02Z</time>
      </trkpt>
      <trkpt lat="49.25157" lon="1.34415">
        <ele>130.88</ele>
        <time>2018-05-29T10:42:17Z</time>
      </trkpt>
      <trkpt lat="49.25157" lon="1.34417">
        <ele>130.88</ele>
        <time>2018-05-29T10:43:03Z</time>
      </trkpt>
      <trkpt lat="49.25157" lon="1.34418">
        <ele>130.88</ele>
        <time>2018-05-29T10:43:26Z</time>
      </trkpt>
      <trkpt lat="49.25161" lon="1.34447">
        <ele>131.36</ele>
        <time>2018-05-29T10:43:37Z</time>
      </trkpt>
      <trkpt lat="49.25138" lon="1.34501">
        <ele>129.43</ele>
        <time>2018-05-29T10:43:47Z</time>
      </trkpt>
      <trkpt lat="49.25126" lon="1.34528">
        <ele>129.43</ele>
        <time>2018-05-29T10:43:51Z</time>
      </trkpt>
      <trkpt lat="49.25124" lon="1.34535">
        <ele>129.43</ele>
        <time>2018-05-29T10:43:52Z</time>
      </trkpt>
      <trkpt lat="49.25123" lon="1.34541">
        <ele>129.43</ele>
        <time>2018-05-29T10:43:53Z</time>
      </trkpt>
      <trkpt lat="49.25122" lon="1.34546">
        <ele>129.43</ele>
        <time>2018-05-29T10:43:54Z</time>
      </trkpt>
      <trkpt lat="49.25121" lon="1.34551">
        <ele>128.95</ele>
        <time>2018-05-29T10:43:55Z</time>
      </trkpt>
      <trkpt lat="49.25121" lon="1.34555">
        <ele>129.43</ele>
        <time>2018-05-29T10:43:56Z</time>
      </trkpt>
      <trkpt lat="49.25121" lon="1.34558">
        <ele>129.43</ele>
        <time>2018-05-29T10:43:57Z</time>
      </trkpt>
      <trkpt lat="49.25121" lon="1.3456">
        <ele>129.43</ele>
        <time>2018-05-29T10:43:58Z</time>
      </trkpt>
      <trkpt lat="49.25121" lon="1.34561">
        <ele>129.43</ele>
        <time>2018-05-29T10:43:59Z</time>
      </trkpt>
      <trkpt lat="49.25123" lon="1.34562">
        <ele>129.43</ele>
        <time>2018-05-29T10:44:03Z</time>
      </trkpt>
      <trkpt lat="49.25123" lon="1.34558">
        <ele>129.43</ele>
        <time>2018-05-29T10:44:04Z</time>
      </trkpt>
      <trkpt lat="49.25121" lon="1.34548">
        <ele>129.43</ele>
        <time>2018-05-29T10:44:07Z</time>
      </trkpt>
      <trkpt lat="49.2512" lon="1.34547">
        <ele>129.43</ele>
        <time>2018-05-29T10:44:08Z</time>
      </trkpt>
      <trkpt lat="49.25119" lon="1.34547">
        <ele>129.43</ele>
        <time>2018-05-29T10:44:09Z</time>
      </trkpt>
      <trkpt lat="49.25119" lon="1.34549">
        <ele>129.43</ele>
        <time>2018-05-29T10:44:11Z</time>
      </trkpt>
      <trkpt lat="49.25121" lon="1.34559">
        <ele>129.43</ele>
        <time>2018-05-29T10:44:21Z</time>
      </trkpt>
      <trkpt lat="49.25119" lon="1.34557">
        <ele>129.43</ele>
        <time>2018-05-29T10:44:46Z</time>
      </trkpt>
      <trkpt lat="49.25118" lon="1.34555">
        <ele>128.95</ele>
        <time>2018-05-29T10:45:00Z</time>
      </trkpt>
      <trkpt lat="49.25119" lon="1.34554">
        <ele>128.95</ele>
        <time>2018-05-29T10:45:27Z</time>
      </trkpt>
      <trkpt lat="49.25119" lon="1.34555">
        <ele>128.95</ele>
        <time>2018-05-29T10:45:56Z</time>
      </trkpt>
      <trkpt lat="49.25117" lon="1.34554">
        <ele>128.95</ele>
        <time>2018-05-29T10:46:30Z</time>
      </trkpt>
      <trkpt lat="49.25116" lon="1.34556">
        <ele>128.95</ele>
        <time>2018-05-29T10:47:01Z</time>
      </trkpt>
      <trkpt lat="49.25116" lon="1.34557">
        <ele>128.95</ele>
        <time>2018-05-29T10:47:29Z</time>
      </trkpt>
      <trkpt lat="49.25115" lon="1.34555">
        <ele>128.95</ele>
        <time>2018-05-29T10:48:01Z</time>
      </trkpt>
      <trkpt lat="49.25115" lon="1.34557">
        <ele>128.95</ele>
        <time>2018-05-29T10:48:08Z</time>
      </trkpt>
      <trkpt lat="49.25119" lon="1.34557">
        <ele>128.95</ele>
        <time>2018-05-29T10:48:20Z</time>
      </trkpt>
      <trkpt lat="49.25119" lon="1.34556">
        <ele>128.95</ele>
        <time>2018-05-29T10:48:30Z</time>
      </trkpt>
      <trkpt lat="49.25121" lon="1.34554">
        <ele>128.95</ele>
        <time>2018-05-29T10:48:32Z</time>
      </trkpt>
      <trkpt lat="49.25121" lon="1.3455">
        <ele>128.95</ele>
        <time>2018-05-29T10:48:33Z</time>
      </trkpt>
      <trkpt lat="49.25121" lon="1.34547">
        <ele>128.95</ele>
        <time>2018-05-29T10:48:34Z</time>
      </trkpt>
      <trkpt lat="49.25122" lon="1.34544">
        <ele>128.95</ele>
        <time>2018-05-29T10:48:35Z</time>
      </trkpt>
      <trkpt lat="49.25122" lon="1.34541">
        <ele>128.95</ele>
        <time>2018-05-29T10:48:36Z</time>
      </trkpt>
      <trkpt lat="49.25123" lon="1.34537">
        <ele>128.95</ele>
        <time>2018-05-29T10:48:37Z</time>
      </trkpt>
      <trkpt lat="49.25124" lon="1.34534">
        <ele>128.95</ele>
        <time>2018-05-29T10:48:38Z</time>
      </trkpt>
      <trkpt lat="49.25125" lon="1.3453">
        <ele>128.95</ele>
        <time>2018-05-29T10:48:39Z</time>
      </trkpt>
      <trkpt lat="49.25126" lon="1.34527">
        <ele>128.95</ele>
        <time>2018-05-29T10:48:40Z</time>
      </trkpt>
      <trkpt lat="49.25127" lon="1.34521">
        <ele>128.95</ele>
        <time>2018-05-29T10:48:51Z</time>
      </trkpt>
      <trkpt lat="49.25124" lon="1.34522">
        <ele>127.51</ele>
        <time>2018-05-29T10:48:57Z</time>
      </trkpt>
      <trkpt lat="49.2512" lon="1.34524">
        <ele>126.07</ele>
        <time>2018-05-29T10:49:00Z</time>
      </trkpt>
      <trkpt lat="49.25105" lon="1.34541">
        <ele>122.71</ele>
        <time>2018-05-29T10:49:08Z</time>
      </trkpt>
      <trkpt lat="49.2509" lon="1.34556">
        <ele>119.82</ele>
        <time>2018-05-29T10:49:13Z</time>
      </trkpt>
      <trkpt lat="49.25073" lon="1.34581">
        <ele>116.46</ele>
        <time>2018-05-29T10:49:22Z</time>
      </trkpt>
      <trkpt lat="49.25069" lon="1.34587">
        <ele>115.01</ele>
        <time>2018-05-29T10:49:26Z</time>
      </trkpt>
      <trkpt lat="49.25064" lon="1.34599">
        <ele>112.13</ele>
        <time>2018-05-29T10:49:39Z</time>
      </trkpt>
      <trkpt lat="49.25064" lon="1.34602">
        <ele>111.17</ele>
        <time>2018-05-29T10:49:42Z</time>
      </trkpt>
      <trkpt lat="49.25065" lon="1.34614">
        <ele>108.29</ele>
        <time>2018-05-29T10:49:51Z</time>
      </trkpt>
      <trkpt lat="49.25066" lon="1.34617">
        <ele>107.32</ele>
        <time>2018-05-29T10:49:52Z</time>
      </trkpt>
      <trkpt lat="49.25066" lon="1.3462">
        <ele>106.36</ele>
        <time>2018-05-29T10:49:53Z</time>
      </trkpt>
      <trkpt lat="49.25065" lon="1.34623">
        <ele>105.88</ele>
        <time>2018-05-29T10:49:54Z</time>
      </trkpt>
      <trkpt lat="49.25065" lon="1.34626">
        <ele>105.4</ele>
        <time>2018-05-29T10:49:55Z</time>
      </trkpt>
      <trkpt lat="49.25063" lon="1.34641">
        <ele>102.52</ele>
        <time>2018-05-29T10:49:59Z</time>
      </trkpt>
      <trkpt lat="49.25062" lon="1.34648">
        <ele>101.56</ele>
        <time>2018-05-29T10:50:01Z</time>
      </trkpt>
      <trkpt lat="49.2506" lon="1.34663">
        <ele>98.67</ele>
        <time>2018-05-29T10:50:09Z</time>
      </trkpt>
      <trkpt lat="49.2506" lon="1.3467">
        <ele>98.19</ele>
        <time>2018-05-29T10:50:18Z</time>
      </trkpt>
      <trkpt lat="49.25066" lon="1.34683">
        <ele>94.83</ele>
        <time>2018-05-29T10:50:28Z</time>
      </trkpt>
      <trkpt lat="49.25072" lon="1.34697">
        <ele>92.42</ele>
        <time>2018-05-29T10:50:42Z</time>
      </trkpt>
      <trkpt lat="49.25073" lon="1.34699">
        <ele>91.46</ele>
        <time>2018-05-29T10:50:44Z</time>
      </trkpt>
      <trkpt lat="49.25077" lon="1.34714">
        <ele>90.5</ele>
        <time>2018-05-29T10:50:57Z</time>
      </trkpt>
      <trkpt lat="49.2508" lon="1.34728">
        <ele>89.06</ele>
        <time>2018-05-29T10:51:11Z</time>
      </trkpt>
      <trkpt lat="49.25081" lon="1.34744">
        <ele>88.1</ele>
        <time>2018-05-29T10:51:25Z</time>
      </trkpt>
      <trkpt lat="49.2508" lon="1.34757">
        <ele>86.66</ele>
        <time>2018-05-29T10:51:31Z</time>
      </trkpt>
      <trkpt lat="49.2508" lon="1.34777">
        <ele>85.21</ele>
        <time>2018-05-29T10:51:37Z</time>
      </trkpt>
      <trkpt lat="49.2508" lon="1.34779">
        <ele>84.73</ele>
        <time>2018-05-29T10:51:38Z</time>
      </trkpt>
      <trkpt lat="49.25081" lon="1.34782">
        <ele>84.73</ele>
        <time>2018-05-29T10:51:39Z</time>
      </trkpt>
      <trkpt lat="49.25082" lon="1.34785">
        <ele>84.73</ele>
        <time>2018-05-29T10:51:40Z</time>
      </trkpt>
      <trkpt lat="49.25083" lon="1.34788">
        <ele>84.73</ele>
        <time>2018-05-29T10:51:41Z</time>
      </trkpt>
      <trkpt lat="49.25084" lon="1.3479">
        <ele>84.73</ele>
        <time>2018-05-29T10:51:42Z</time>
      </trkpt>
      <trkpt lat="49.25099" lon="1.34815">
        <ele>84.73</ele>
        <time>2018-05-29T10:51:55Z</time>
      </trkpt>
      <trkpt lat="49.25102" lon="1.34824">
        <ele>83.29</ele>
        <time>2018-05-29T10:52:03Z</time>
      </trkpt>
      <trkpt lat="49.25106" lon="1.34842">
        <ele>82.81</ele>
        <time>2018-05-29T10:52:19Z</time>
      </trkpt>
      <trkpt lat="49.25111" lon="1.34854">
        <ele>81.85</ele>
        <time>2018-05-29T10:52:33Z</time>
      </trkpt>
      <trkpt lat="49.25116" lon="1.34874">
        <ele>79.93</ele>
        <time>2018-05-29T10:52:43Z</time>
      </trkpt>
      <trkpt lat="49.25117" lon="1.34877">
        <ele>79.93</ele>
        <time>2018-05-29T10:52:44Z</time>
      </trkpt>
      <trkpt lat="49.25128" lon="1.34912">
        <ele>77.04</ele>
        <time>2018-05-29T10:52:55Z</time>
      </trkpt>
      <trkpt lat="49.25133" lon="1.34935">
        <ele>75.6</ele>
        <time>2018-05-29T10:53:05Z</time>
      </trkpt>
      <trkpt lat="49.25134" lon="1.3494">
        <ele>75.6</ele>
        <time>2018-05-29T10:53:11Z</time>
      </trkpt>
      <trkpt lat="49.25134" lon="1.34942">
        <ele>75.6</ele>
        <time>2018-05-29T10:53:12Z</time>
      </trkpt>
      <trkpt lat="49.25135" lon="1.34944">
        <ele>75.6</ele>
        <time>2018-05-29T10:53:13Z</time>
      </trkpt>
      <trkpt lat="49.25135" lon="1.34947">
        <ele>75.12</ele>
        <time>2018-05-29T10:53:14Z</time>
      </trkpt>
      <trkpt lat="49.25136" lon="1.34949">
        <ele>75.12</ele>
        <time>2018-05-29T10:53:15Z</time>
      </trkpt>
      <trkpt lat="49.25136" lon="1.34951">
        <ele>75.12</ele>
        <time>2018-05-29T10:53:16Z</time>
      </trkpt>
      <trkpt lat="49.25136" lon="1.34963">
        <ele>74.64</ele>
        <time>2018-05-29T10:53:28Z</time>
      </trkpt>
      <trkpt lat="49.25138" lon="1.34983">
        <ele>74.16</ele>
        <time>2018-05-29T10:53:44Z</time>
      </trkpt>
      <trkpt lat="49.25139" lon="1.34998">
        <ele>73.2</ele>
        <time>2018-05-29T10:53:56Z</time>
      </trkpt>
      <trkpt lat="49.25143" lon="1.35007">
        <ele>72.72</ele>
        <time>2018-05-29T10:54:05Z</time>
      </trkpt>
      <trkpt lat="49.25146" lon="1.35015">
        <ele>72.24</ele>
        <time>2018-05-29T10:54:14Z</time>
      </trkpt>
      <trkpt lat="49.25151" lon="1.35033">
        <ele>71.27</ele>
        <time>2018-05-29T10:54:31Z</time>
      </trkpt>
      <trkpt lat="49.25161" lon="1.35065">
        <ele>69.35</ele>
        <time>2018-05-29T10:54:43Z</time>
      </trkpt>
      <trkpt lat="49.25163" lon="1.35077">
        <ele>67.43</ele>
        <time>2018-05-29T10:54:53Z</time>
      </trkpt>
      <trkpt lat="49.25168" lon="1.35098">
        <ele>65.51</ele>
        <time>2018-05-29T10:55:08Z</time>
      </trkpt>
      <trkpt lat="49.2517" lon="1.35111">
        <ele>64.55</ele>
        <time>2018-05-29T10:55:19Z</time>
      </trkpt>
      <trkpt lat="49.25171" lon="1.35129">
        <ele>63.58</ele>
        <time>2018-05-29T10:55:32Z</time>
      </trkpt>
      <trkpt lat="49.25174" lon="1.35139">
        <ele>62.62</ele>
        <time>2018-05-29T10:55:44Z</time>
      </trkpt>
      <trkpt lat="49.25175" lon="1.35159">
        <ele>60.7</ele>
        <time>2018-05-29T10:56:01Z</time>
      </trkpt>
      <trkpt lat="49.25177" lon="1.35173">
        <ele>59.74</ele>
        <time>2018-05-29T10:56:14Z</time>
      </trkpt>
      <trkpt lat="49.25178" lon="1.35197">
        <ele>56.37</ele>
        <time>2018-05-29T10:56:24Z</time>
      </trkpt>
      <trkpt lat="49.2518" lon="1.35204">
        <ele>55.41</ele>
        <time>2018-05-29T10:56:36Z</time>
      </trkpt>
      <trkpt lat="49.2518" lon="1.35208">
        <ele>55.41</ele>
        <time>2018-05-29T10:56:52Z</time>
      </trkpt>
      <trkpt lat="49.25183" lon="1.35232">
        <ele>52.05</ele>
        <time>2018-05-29T10:57:01Z</time>
      </trkpt>
      <trkpt lat="49.25188" lon="1.35255">
        <ele>48.68</ele>
        <time>2018-05-29T10:57:09Z</time>
      </trkpt>
      <trkpt lat="49.25194" lon="1.35279">
        <ele>45.32</ele>
        <time>2018-05-29T10:57:17Z</time>
      </trkpt>
      <trkpt lat="49.25197" lon="1.35288">
        <ele>43.88</ele>
        <time>2018-05-29T10:57:20Z</time>
      </trkpt>
      <trkpt lat="49.252" lon="1.35294">
        <ele>41.95</ele>
        <time>2018-05-29T10:57:33Z</time>
      </trkpt>
      <trkpt lat="49.25206" lon="1.35301">
        <ele>40.51</ele>
        <time>2018-05-29T10:57:45Z</time>
      </trkpt>
      <trkpt lat="49.25207" lon="1.35303">
        <ele>40.03</ele>
        <time>2018-05-29T10:58:08Z</time>
      </trkpt>
      <trkpt lat="49.25207" lon="1.35302">
        <ele>39.55</ele>
        <time>2018-05-29T10:58:31Z</time>
      </trkpt>
      <trkpt lat="49.25206" lon="1.35312">
        <ele>38.11</ele>
        <time>2018-05-29T10:58:43Z</time>
      </trkpt>
      <trkpt lat="49.25202" lon="1.35324">
        <ele>34.74</ele>
        <time>2018-05-29T10:58:53Z</time>
      </trkpt>
      <trkpt lat="49.25195" lon="1.35332">
        <ele>31.38</ele>
        <time>2018-05-29T10:59:01Z</time>
      </trkpt>
      <trkpt lat="49.2519" lon="1.35343">
        <ele>28.98</ele>
        <time>2018-05-29T10:59:11Z</time>
      </trkpt>
      <trkpt lat="49.2519" lon="1.35349">
        <ele>27.53</ele>
        <time>2018-05-29T10:59:14Z</time>
      </trkpt>
      <trkpt lat="49.25186" lon="1.35363">
        <ele>24.17</ele>
        <time>2018-05-29T10:59:24Z</time>
      </trkpt>
      <trkpt lat="49.25183" lon="1.35378">
        <ele>20.81</ele>
        <time>2018-05-29T10:59:32Z</time>
      </trkpt>
      <trkpt lat="49.25182" lon="1.35391">
        <ele>17.44</ele>
        <time>2018-05-29T10:59:39Z</time>
      </trkpt>
      <trkpt lat="49.25176" lon="1.35398">
        <ele>16.48</ele>
        <time>2018-05-29T10:59:48Z</time>
      </trkpt>
      <trkpt lat="49.25161" lon="1.35405">
        <ele>14.56</ele>
        <time>2018-05-29T10:59:57Z</time>
      </trkpt>
      <trkpt lat="49.25156" lon="1.35404">
        <ele>13.12</ele>
        <time>2018-05-29T11:00:00Z</time>
      </trkpt>
      <trkpt lat="49.25154" lon="1.35401">
        <ele>13.12</ele>
        <time>2018-05-29T11:00:01Z</time>
      </trkpt>
      <trkpt lat="49.25153" lon="1.35397">
        <ele>13.12</ele>
        <time>2018-05-29T11:00:02Z</time>
      </trkpt>
      <trkpt lat="49.25152" lon="1.35393">
        <ele>13.12</ele>
        <time>2018-05-29T11:00:03Z</time>
      </trkpt>
      <trkpt lat="49.25152" lon="1.35389">
        <ele>13.12</ele>
        <time>2018-05-29T11:00:04Z</time>
      </trkpt>
      <trkpt lat="49.2515" lon="1.35385">
        <ele>13.12</ele>
        <time>2018-05-29T11:00:05Z</time>
      </trkpt>
      <trkpt lat="49.25135" lon="1.35331">
        <ele>13.12</ele>
        <time>2018-05-29T11:00:15Z</time>
      </trkpt>
      <trkpt lat="49.25128" lon="1.35312">
        <ele>13.12</ele>
        <time>2018-05-29T11:00:18Z</time>
      </trkpt>
      <trkpt lat="49.25125" lon="1.35306">
        <ele>13.12</ele>
        <time>2018-05-29T11:00:19Z</time>
      </trkpt>
      <trkpt lat="49.25084" lon="1.35212">
        <ele>13.12</ele>
        <time>2018-05-29T11:00:33Z</time>
      </trkpt>
      <trkpt lat="49.25082" lon="1.35204">
        <ele>13.12</ele>
        <time>2018-05-29T11:00:34Z</time>
      </trkpt>
      <trkpt lat="49.25071" lon="1.35174">
        <ele>13.12</ele>
        <time>2018-05-29T11:00:38Z</time>
      </trkpt>
      <trkpt lat="49.25068" lon="1.35166">
        <ele>13.12</ele>
        <time>2018-05-29T11:00:39Z</time>
      </trkpt>
      <trkpt lat="49.25026" lon="1.35049">
        <ele>12.63</ele>
        <time>2018-05-29T11:00:54Z</time>
      </trkpt>
      <trkpt lat="49.25017" lon="1.35026">
        <ele>12.63</ele>
        <time>2018-05-29T11:00:57Z</time>
      </trkpt>
      <trkpt lat="49.2497" lon="1.34887">
        <ele>12.63</ele>
        <time>2018-05-29T11:01:14Z</time>
      </trkpt>
      <trkpt lat="49.2492" lon="1.34745">
        <ele>12.63</ele>
        <time>2018-05-29T11:01:31Z</time>
      </trkpt>
      <trkpt lat="49.2486" lon="1.34578">
        <ele>12.63</ele>
        <time>2018-05-29T11:01:51Z</time>
      </trkpt>
      <trkpt lat="49.24815" lon="1.34487">
        <ele>12.15</ele>
        <time>2018-05-29T11:02:03Z</time>
      </trkpt>
      <trkpt lat="49.24744" lon="1.34351">
        <ele>12.15</ele>
        <time>2018-05-29T11:02:21Z</time>
      </trkpt>
      <trkpt lat="49.24678" lon="1.34227">
        <ele>12.15</ele>
        <time>2018-05-29T11:02:38Z</time>
      </trkpt>
      <trkpt lat="49.24612" lon="1.34092">
        <ele>12.15</ele>
        <time>2018-05-29T11:02:56Z</time>
      </trkpt>
      <trkpt lat="49.2455" lon="1.33954">
        <ele>12.15</ele>
        <time>2018-05-29T11:03:14Z</time>
      </trkpt>
      <trkpt lat="49.2449" lon="1.33852">
        <ele>14.08</ele>
        <time>2018-05-29T11:03:29Z</time>
      </trkpt>
      <trkpt lat="49.24438" lon="1.33732">
        <ele>13.6</ele>
        <time>2018-05-29T11:03:44Z</time>
      </trkpt>
      <trkpt lat="49.24401" lon="1.33625">
        <ele>12.63</ele>
        <time>2018-05-29T11:03:58Z</time>
      </trkpt>
      <trkpt lat="49.244" lon="1.33626">
        <ele>12.63</ele>
        <time>2018-05-29T11:03:59Z</time>
      </trkpt>
      <trkpt lat="49.244" lon="1.33632">
        <ele>12.63</ele>
        <time>2018-05-29T11:04:01Z</time>
      </trkpt>
      <trkpt lat="49.24401" lon="1.33636">
        <ele>12.63</ele>
        <time>2018-05-29T11:04:02Z</time>
      </trkpt>
      <trkpt lat="49.24403" lon="1.3364">
        <ele>12.15</ele>
        <time>2018-05-29T11:04:03Z</time>
      </trkpt>
      <trkpt lat="49.24404" lon="1.33644">
        <ele>12.15</ele>
        <time>2018-05-29T11:04:04Z</time>
      </trkpt>
      <trkpt lat="49.24406" lon="1.3365">
        <ele>12.15</ele>
        <time>2018-05-29T11:04:05Z</time>
      </trkpt>
      <trkpt lat="49.24406" lon="1.33655">
        <ele>12.15</ele>
        <time>2018-05-29T11:04:06Z</time>
      </trkpt>
      <trkpt lat="49.24405" lon="1.33661">
        <ele>12.15</ele>
        <time>2018-05-29T11:04:07Z</time>
      </trkpt>
      <trkpt lat="49.24402" lon="1.33665">
        <ele>12.15</ele>
        <time>2018-05-29T11:04:08Z</time>
      </trkpt>
      <trkpt lat="49.24399" lon="1.33667">
        <ele>12.15</ele>
        <time>2018-05-29T11:04:09Z</time>
      </trkpt>
      <trkpt lat="49.24396" lon="1.33669">
        <ele>12.15</ele>
        <time>2018-05-29T11:04:10Z</time>
      </trkpt>
      <trkpt lat="49.24392" lon="1.33671">
        <ele>12.15</ele>
        <time>2018-05-29T11:04:11Z</time>
      </trkpt>
      <trkpt lat="49.24388" lon="1.33672">
        <ele>12.15</ele>
        <time>2018-05-29T11:04:12Z</time>
      </trkpt>
      <trkpt lat="49.24333" lon="1.33722">
        <ele>10.71</ele>
        <time>2018-05-29T11:04:25Z</time>
      </trkpt>
      <trkpt lat="49.24319" lon="1.33732">
        <ele>10.71</ele>
        <time>2018-05-29T11:04:29Z</time>
      </trkpt>
      <trkpt lat="49.24315" lon="1.3373">
        <ele>10.71</ele>
        <time>2018-05-29T11:04:30Z</time>
      </trkpt>
      <trkpt lat="49.24312" lon="1.33727">
        <ele>10.71</ele>
        <time>2018-05-29T11:04:31Z</time>
      </trkpt>
      <trkpt lat="49.24308" lon="1.33722">
        <ele>10.71</ele>
        <time>2018-05-29T11:04:32Z</time>
      </trkpt>
      <trkpt lat="49.24305" lon="1.33717">
        <ele>10.71</ele>
        <time>2018-05-29T11:04:33Z</time>
      </trkpt>
      <trkpt lat="49.24302" lon="1.33711">
        <ele>10.71</ele>
        <time>2018-05-29T11:04:34Z</time>
      </trkpt>
      <trkpt lat="49.24282" lon="1.33678">
        <ele>10.71</ele>
        <time>2018-05-29T11:04:40Z</time>
      </trkpt>
      <trkpt lat="49.24235" lon="1.3357">
        <ele>10.71</ele>
        <time>2018-05-29T11:04:56Z</time>
      </trkpt>
      <trkpt lat="49.24185" lon="1.33435">
        <ele>10.71</ele>
        <time>2018-05-29T11:05:14Z</time>
      </trkpt>
      <trkpt lat="49.24131" lon="1.33297">
        <ele>10.71</ele>
        <time>2018-05-29T11:05:33Z</time>
      </trkpt>
      <trkpt lat="49.24085" lon="1.33189">
        <ele>10.71</ele>
        <time>2018-05-29T11:05:50Z</time>
      </trkpt>
      <trkpt lat="49.24038" lon="1.33088">
        <ele>10.71</ele>
        <time>2018-05-29T11:06:06Z</time>
      </trkpt>
      <trkpt lat="49.23977" lon="1.32983">
        <ele>10.71</ele>
        <time>2018-05-29T11:06:23Z</time>
      </trkpt>
      <trkpt lat="49.23907" lon="1.32877">
        <ele>10.71</ele>
        <time>2018-05-29T11:06:41Z</time>
      </trkpt>
      <trkpt lat="49.23903" lon="1.32871">
        <ele>10.71</ele>
        <time>2018-05-29T11:06:42Z</time>
      </trkpt>
      <trkpt lat="49.23832" lon="1.32776">
        <ele>10.71</ele>
        <time>2018-05-29T11:07:00Z</time>
      </trkpt>
      <trkpt lat="49.23799" lon="1.32732">
        <ele>10.71</ele>
        <time>2018-05-29T11:07:11Z</time>
      </trkpt>
      <trkpt lat="49.23763" lon="1.32688">
        <ele>10.71</ele>
        <time>2018-05-29T11:07:24Z</time>
      </trkpt>
      <trkpt lat="49.23737" lon="1.32659">
        <ele>10.71</ele>
        <time>2018-05-29T11:07:34Z</time>
      </trkpt>
      <trkpt lat="49.2373" lon="1.32651">
        <ele>10.71</ele>
        <time>2018-05-29T11:07:36Z</time>
      </trkpt>
      <trkpt lat="49.23726" lon="1.32648">
        <ele>10.71</ele>
        <time>2018-05-29T11:07:37Z</time>
      </trkpt>
      <trkpt lat="49.23659" lon="1.32615">
        <ele>10.71</ele>
        <time>2018-05-29T11:07:53Z</time>
      </trkpt>
      <trkpt lat="49.23588" lon="1.32577">
        <ele>10.71</ele>
        <time>2018-05-29T11:08:10Z</time>
      </trkpt>
      <trkpt lat="49.23533" lon="1.32536">
        <ele>10.71</ele>
        <time>2018-05-29T11:08:23Z</time>
      </trkpt>
      <trkpt lat="49.23509" lon="1.32521">
        <ele>10.71</ele>
        <time>2018-05-29T11:08:29Z</time>
      </trkpt>
      <trkpt lat="49.23505" lon="1.32519">
        <ele>10.71</ele>
        <time>2018-05-29T11:08:30Z</time>
      </trkpt>
      <trkpt lat="49.23426" lon="1.32464">
        <ele>10.71</ele>
        <time>2018-05-29T11:08:48Z</time>
      </trkpt>
      <trkpt lat="49.23422" lon="1.3246">
        <ele>10.71</ele>
        <time>2018-05-29T11:08:49Z</time>
      </trkpt>
      <trkpt lat="49.23358" lon="1.32416">
        <ele>10.71</ele>
        <time>2018-05-29T11:09:05Z</time>
      </trkpt>
      <trkpt lat="49.23283" lon="1.32346">
        <ele>10.71</ele>
        <time>2018-05-29T11:09:25Z</time>
      </trkpt>
      <trkpt lat="49.23222" lon="1.32277">
        <ele>10.71</ele>
        <time>2018-05-29T11:09:42Z</time>
      </trkpt>
      <trkpt lat="49.23155" lon="1.32201">
        <ele>10.71</ele>
        <time>2018-05-29T11:10:01Z</time>
      </trkpt>
      <trkpt lat="49.23097" lon="1.32121">
        <ele>11.67</ele>
        <time>2018-05-29T11:10:19Z</time>
      </trkpt>
      <trkpt lat="49.23038" lon="1.32036">
        <ele>11.67</ele>
        <time>2018-05-29T11:10:39Z</time>
      </trkpt>
      <trkpt lat="49.2298" lon="1.31944">
        <ele>11.67</ele>
        <time>2018-05-29T11:10:59Z</time>
      </trkpt>
      <trkpt lat="49.2296" lon="1.3191">
        <ele>11.67</ele>
        <time>2018-05-29T11:11:06Z</time>
      </trkpt>
      <trkpt lat="49.22917" lon="1.31831">
        <ele>11.67</ele>
        <time>2018-05-29T11:11:22Z</time>
      </trkpt>
      <trkpt lat="49.22869" lon="1.31738">
        <ele>11.67</ele>
        <time>2018-05-29T11:11:40Z</time>
      </trkpt>
      <trkpt lat="49.22866" lon="1.31733">
        <ele>11.19</ele>
        <time>2018-05-29T11:11:41Z</time>
      </trkpt>
      <trkpt lat="49.22863" lon="1.31727">
        <ele>11.67</ele>
        <time>2018-05-29T11:11:42Z</time>
      </trkpt>
      <trkpt lat="49.2286" lon="1.31721">
        <ele>11.67</ele>
        <time>2018-05-29T11:11:43Z</time>
      </trkpt>
      <trkpt lat="49.22848" lon="1.31699">
        <ele>11.67</ele>
        <time>2018-05-29T11:11:47Z</time>
      </trkpt>
      <trkpt lat="49.22846" lon="1.31694">
        <ele>11.67</ele>
        <time>2018-05-29T11:11:48Z</time>
      </trkpt>
      <trkpt lat="49.22814" lon="1.31633">
        <ele>11.19</ele>
        <time>2018-05-29T11:12:00Z</time>
      </trkpt>
      <trkpt lat="49.22792" lon="1.3159">
        <ele>11.19</ele>
        <time>2018-05-29T11:12:08Z</time>
      </trkpt>
      <trkpt lat="49.22749" lon="1.3151">
        <ele>11.19</ele>
        <time>2018-05-29T11:12:24Z</time>
      </trkpt>
      <trkpt lat="49.22751" lon="1.31505">
        <ele>11.19</ele>
        <time>2018-05-29T11:12:25Z</time>
      </trkpt>
      <trkpt lat="49.22753" lon="1.31501">
        <ele>11.19</ele>
        <time>2018-05-29T11:12:26Z</time>
      </trkpt>
      <trkpt lat="49.22756" lon="1.31498">
        <ele>11.19</ele>
        <time>2018-05-29T11:12:27Z</time>
      </trkpt>
      <trkpt lat="49.22798" lon="1.31455">
        <ele>11.19</ele>
        <time>2018-05-29T11:12:39Z</time>
      </trkpt>
      <trkpt lat="49.22806" lon="1.31449">
        <ele>11.19</ele>
        <time>2018-05-29T11:12:41Z</time>
      </trkpt>
      <trkpt lat="49.2281" lon="1.31447">
        <ele>11.19</ele>
        <time>2018-05-29T11:12:42Z</time>
      </trkpt>
      <trkpt lat="49.22815" lon="1.31447">
        <ele>11.19</ele>
        <time>2018-05-29T11:12:43Z</time>
      </trkpt>
      <trkpt lat="49.22819" lon="1.31445">
        <ele>11.19</ele>
        <time>2018-05-29T11:12:44Z</time>
      </trkpt>
      <trkpt lat="49.22824" lon="1.31444">
        <ele>11.19</ele>
        <time>2018-05-29T11:12:45Z</time>
      </trkpt>
      <trkpt lat="49.22832" lon="1.31441">
        <ele>11.19</ele>
        <time>2018-05-29T11:12:47Z</time>
      </trkpt>
      <trkpt lat="49.22836" lon="1.31437">
        <ele>11.19</ele>
        <time>2018-05-29T11:12:48Z</time>
      </trkpt>
      <trkpt lat="49.22895" lon="1.31386">
        <ele>11.67</ele>
        <time>2018-05-29T11:13:05Z</time>
      </trkpt>
      <trkpt lat="49.22944" lon="1.31342">
        <ele>13.12</ele>
        <time>2018-05-29T11:13:22Z</time>
      </trkpt>
      <trkpt lat="49.22945" lon="1.31342">
        <ele>13.12</ele>
        <time>2018-05-29T11:13:29Z</time>
      </trkpt>
      <trkpt lat="49.22946" lon="1.31341">
        <ele>13.12</ele>
        <time>2018-05-29T11:13:30Z</time>
      </trkpt>
      <trkpt lat="49.22947" lon="1.31338">
        <ele>13.12</ele>
        <time>2018-05-29T11:13:31Z</time>
      </trkpt>
      <trkpt lat="49.22947" lon="1.31335">
        <ele>13.12</ele>
        <time>2018-05-29T11:13:32Z</time>
      </trkpt>
      <trkpt lat="49.22946" lon="1.31331">
        <ele>13.12</ele>
        <time>2018-05-29T11:13:33Z</time>
      </trkpt>
      <trkpt lat="49.22945" lon="1.31327">
        <ele>13.12</ele>
        <time>2018-05-29T11:13:34Z</time>
      </trkpt>
      <trkpt lat="49.22921" lon="1.31245">
        <ele>13.6</ele>
        <time>2018-05-29T11:13:48Z</time>
      </trkpt>
      <trkpt lat="49.22905" lon="1.31199">
        <ele>13.6</ele>
        <time>2018-05-29T11:13:55Z</time>
      </trkpt>
      <trkpt lat="49.22903" lon="1.31192">
        <ele>13.6</ele>
        <time>2018-05-29T11:13:56Z</time>
      </trkpt>
      <trkpt lat="49.22894" lon="1.31078">
        <ele>14.08</ele>
        <time>2018-05-29T11:14:10Z</time>
      </trkpt>
      <trkpt lat="49.22892" lon="1.31071">
        <ele>14.08</ele>
        <time>2018-05-29T11:14:11Z</time>
      </trkpt>
      <trkpt lat="49.2289" lon="1.31063">
        <ele>14.08</ele>
        <time>2018-05-29T11:14:12Z</time>
      </trkpt>
      <trkpt lat="49.22876" lon="1.31024">
        <ele>14.08</ele>
        <time>2018-05-29T11:14:17Z</time>
      </trkpt>
      <trkpt lat="49.22831" lon="1.30879">
        <ele>14.08</ele>
        <time>2018-05-29T11:14:35Z</time>
      </trkpt>
      <trkpt lat="49.22794" lon="1.30728">
        <ele>14.08</ele>
        <time>2018-05-29T11:14:53Z</time>
      </trkpt>
      <trkpt lat="49.22775" lon="1.30645">
        <ele>14.08</ele>
        <time>2018-05-29T11:15:03Z</time>
      </trkpt>
      <trkpt lat="49.22726" lon="1.30519">
        <ele>14.08</ele>
        <time>2018-05-29T11:15:19Z</time>
      </trkpt>
      <trkpt lat="49.22683" lon="1.30385">
        <ele>12.63</ele>
        <time>2018-05-29T11:15:35Z</time>
      </trkpt>
      <trkpt lat="49.22681" lon="1.30378">
        <ele>12.63</ele>
        <time>2018-05-29T11:15:36Z</time>
      </trkpt>
      <trkpt lat="49.22653" lon="1.30241">
        <ele>12.15</ele>
        <time>2018-05-29T11:15:52Z</time>
      </trkpt>
      <trkpt lat="49.22648" lon="1.30216">
        <ele>12.15</ele>
        <time>2018-05-29T11:15:55Z</time>
      </trkpt>
      <trkpt lat="49.22646" lon="1.30208">
        <ele>12.15</ele>
        <time>2018-05-29T11:15:56Z</time>
      </trkpt>
      <trkpt lat="49.22619" lon="1.30093">
        <ele>13.6</ele>
        <time>2018-05-29T11:16:11Z</time>
      </trkpt>
      <trkpt lat="49.22577" lon="1.2996">
        <ele>13.6</ele>
        <time>2018-05-29T11:16:28Z</time>
      </trkpt>
      <trkpt lat="49.22545" lon="1.29864">
        <ele>13.6</ele>
        <time>2018-05-29T11:16:40Z</time>
      </trkpt>
      <trkpt lat="49.22497" lon="1.2973">
        <ele>13.6</ele>
        <time>2018-05-29T11:16:57Z</time>
      </trkpt>
      <trkpt lat="49.22454" lon="1.29608">
        <ele>13.6</ele>
        <time>2018-05-29T11:17:13Z</time>
      </trkpt>
      <trkpt lat="49.22413" lon="1.29477">
        <ele>14.56</ele>
        <time>2018-05-29T11:17:30Z</time>
      </trkpt>
      <trkpt lat="49.22404" lon="1.29452">
        <ele>14.56</ele>
        <time>2018-05-29T11:17:33Z</time>
      </trkpt>
      <trkpt lat="49.224" lon="1.29445">
        <ele>13.6</ele>
        <time>2018-05-29T11:17:34Z</time>
      </trkpt>
      <trkpt lat="49.22396" lon="1.29439">
        <ele>13.6</ele>
        <time>2018-05-29T11:17:35Z</time>
      </trkpt>
      <trkpt lat="49.22392" lon="1.29434">
        <ele>13.6</ele>
        <time>2018-05-29T11:17:36Z</time>
      </trkpt>
      <trkpt lat="49.22388" lon="1.29427">
        <ele>13.6</ele>
        <time>2018-05-29T11:17:37Z</time>
      </trkpt>
      <trkpt lat="49.22384" lon="1.29421">
        <ele>13.6</ele>
        <time>2018-05-29T11:17:38Z</time>
      </trkpt>
      <trkpt lat="49.22381" lon="1.29415">
        <ele>13.6</ele>
        <time>2018-05-29T11:17:39Z</time>
      </trkpt>
      <trkpt lat="49.22363" lon="1.29391">
        <ele>13.6</ele>
        <time>2018-05-29T11:17:43Z</time>
      </trkpt>
      <trkpt lat="49.22338" lon="1.2936">
        <ele>13.6</ele>
        <time>2018-05-29T11:17:49Z</time>
      </trkpt>
      <trkpt lat="49.22333" lon="1.29355">
        <ele>13.6</ele>
        <time>2018-05-29T11:17:50Z</time>
      </trkpt>
      <trkpt lat="49.2227" lon="1.2928">
        <ele>16</ele>
        <time>2018-05-29T11:18:06Z</time>
      </trkpt>
      <trkpt lat="49.22251" lon="1.29242">
        <ele>16</ele>
        <time>2018-05-29T11:18:12Z</time>
      </trkpt>
      <trkpt lat="49.2225" lon="1.29234">
        <ele>16</ele>
        <time>2018-05-29T11:18:13Z</time>
      </trkpt>
      <trkpt lat="49.22223" lon="1.29126">
        <ele>16</ele>
        <time>2018-05-29T11:18:27Z</time>
      </trkpt>
      <trkpt lat="49.22161" lon="1.29011">
        <ele>16.96</ele>
        <time>2018-05-29T11:18:45Z</time>
      </trkpt>
      <trkpt lat="49.22151" lon="1.28993">
        <ele>16.96</ele>
        <time>2018-05-29T11:18:48Z</time>
      </trkpt>
      <trkpt lat="49.22148" lon="1.28988">
        <ele>16.96</ele>
        <time>2018-05-29T11:18:49Z</time>
      </trkpt>
      <trkpt lat="49.22145" lon="1.28983">
        <ele>16.96</ele>
        <time>2018-05-29T11:18:50Z</time>
      </trkpt>
      <trkpt lat="49.22139" lon="1.28974">
        <ele>17.44</ele>
        <time>2018-05-29T11:18:52Z</time>
      </trkpt>
      <trkpt lat="49.22114" lon="1.28928">
        <ele>17.44</ele>
        <time>2018-05-29T11:19:00Z</time>
      </trkpt>
      <trkpt lat="49.22094" lon="1.28883">
        <ele>17.44</ele>
        <time>2018-05-29T11:19:07Z</time>
      </trkpt>
      <trkpt lat="49.22092" lon="1.28876">
        <ele>17.44</ele>
        <time>2018-05-29T11:19:08Z</time>
      </trkpt>
      <trkpt lat="49.22092" lon="1.28868">
        <ele>17.44</ele>
        <time>2018-05-29T11:19:09Z</time>
      </trkpt>
      <trkpt lat="49.22092" lon="1.28861">
        <ele>17.44</ele>
        <time>2018-05-29T11:19:10Z</time>
      </trkpt>
      <trkpt lat="49.22095" lon="1.28854">
        <ele>17.44</ele>
        <time>2018-05-29T11:19:11Z</time>
      </trkpt>
      <trkpt lat="49.22099" lon="1.28848">
        <ele>17.44</ele>
        <time>2018-05-29T11:19:12Z</time>
      </trkpt>
      <trkpt lat="49.22104" lon="1.28845">
        <ele>17.44</ele>
        <time>2018-05-29T11:19:13Z</time>
      </trkpt>
      <trkpt lat="49.22109" lon="1.28842">
        <ele>17.44</ele>
        <time>2018-05-29T11:19:14Z</time>
      </trkpt>
      <trkpt lat="49.22114" lon="1.28839">
        <ele>17.44</ele>
        <time>2018-05-29T11:19:15Z</time>
      </trkpt>
      <trkpt lat="49.22186" lon="1.28795">
        <ele>17.44</ele>
        <time>2018-05-29T11:19:29Z</time>
      </trkpt>
      <trkpt lat="49.22212" lon="1.28778">
        <ele>17.44</ele>
        <time>2018-05-29T11:19:34Z</time>
      </trkpt>
      <trkpt lat="49.22216" lon="1.28772">
        <ele>17.44</ele>
        <time>2018-05-29T11:19:35Z</time>
      </trkpt>
      <trkpt lat="49.22219" lon="1.28765">
        <ele>17.44</ele>
        <time>2018-05-29T11:19:36Z</time>
      </trkpt>
      <trkpt lat="49.22221" lon="1.28757">
        <ele>17.44</ele>
        <time>2018-05-29T11:19:37Z</time>
      </trkpt>
      <trkpt lat="49.22221" lon="1.28749">
        <ele>17.44</ele>
        <time>2018-05-29T11:19:38Z</time>
      </trkpt>
      <trkpt lat="49.22219" lon="1.28741">
        <ele>17.92</ele>
        <time>2018-05-29T11:19:39Z</time>
      </trkpt>
      <trkpt lat="49.22217" lon="1.28733">
        <ele>17.92</ele>
        <time>2018-05-29T11:19:40Z</time>
      </trkpt>
      <trkpt lat="49.22215" lon="1.28725">
        <ele>17.92</ele>
        <time>2018-05-29T11:19:41Z</time>
      </trkpt>
      <trkpt lat="49.22195" lon="1.28641">
        <ele>17.92</ele>
        <time>2018-05-29T11:19:52Z</time>
      </trkpt>
      <trkpt lat="49.22195" lon="1.28632">
        <ele>18.4</ele>
        <time>2018-05-29T11:19:53Z</time>
      </trkpt>
      <trkpt lat="49.22193" lon="1.28497">
        <ele>20.32</ele>
        <time>2018-05-29T11:20:11Z</time>
      </trkpt>
      <trkpt lat="49.2219" lon="1.28394">
        <ele>23.21</ele>
        <time>2018-05-29T11:20:28Z</time>
      </trkpt>
      <trkpt lat="49.22191" lon="1.28344">
        <ele>24.17</ele>
        <time>2018-05-29T11:20:36Z</time>
      </trkpt>
      <trkpt lat="49.22195" lon="1.28332">
        <ele>24.17</ele>
        <time>2018-05-29T11:20:38Z</time>
      </trkpt>
      <trkpt lat="49.22225" lon="1.28245">
        <ele>26.57</ele>
        <time>2018-05-29T11:20:54Z</time>
      </trkpt>
      <trkpt lat="49.22227" lon="1.28239">
        <ele>26.57</ele>
        <time>2018-05-29T11:20:55Z</time>
      </trkpt>
      <trkpt lat="49.22259" lon="1.28166">
        <ele>28.5</ele>
        <time>2018-05-29T11:21:07Z</time>
      </trkpt>
      <trkpt lat="49.22294" lon="1.28098">
        <ele>29.46</ele>
        <time>2018-05-29T11:21:19Z</time>
      </trkpt>
      <trkpt lat="49.22348" lon="1.27998">
        <ele>29.94</ele>
        <time>2018-05-29T11:21:36Z</time>
      </trkpt>
      <trkpt lat="49.22365" lon="1.27966">
        <ele>29.94</ele>
        <time>2018-05-29T11:21:41Z</time>
      </trkpt>
      <trkpt lat="49.22452" lon="1.27858">
        <ele>31.38</ele>
        <time>2018-05-29T11:22:01Z</time>
      </trkpt>
      <trkpt lat="49.22539" lon="1.27758">
        <ele>31.38</ele>
        <time>2018-05-29T11:22:20Z</time>
      </trkpt>
      <trkpt lat="49.22639" lon="1.27632">
        <ele>31.38</ele>
        <time>2018-05-29T11:22:42Z</time>
      </trkpt>
      <trkpt lat="49.22726" lon="1.27531">
        <ele>31.38</ele>
        <time>2018-05-29T11:23:01Z</time>
      </trkpt>
      <trkpt lat="49.22822" lon="1.27426">
        <ele>31.86</ele>
        <time>2018-05-29T11:23:22Z</time>
      </trkpt>
      <trkpt lat="49.22863" lon="1.27381">
        <ele>32.34</ele>
        <time>2018-05-29T11:23:31Z</time>
      </trkpt>
      <trkpt lat="49.22903" lon="1.27322">
        <ele>32.82</ele>
        <time>2018-05-29T11:23:41Z</time>
      </trkpt>
      <trkpt lat="49.22907" lon="1.27317">
        <ele>32.82</ele>
        <time>2018-05-29T11:23:42Z</time>
      </trkpt>
      <trkpt lat="49.22957" lon="1.27223">
        <ele>33.78</ele>
        <time>2018-05-29T11:23:56Z</time>
      </trkpt>
      <trkpt lat="49.22991" lon="1.27128">
        <ele>34.26</ele>
        <time>2018-05-29T11:24:09Z</time>
      </trkpt>
      <trkpt lat="49.23013" lon="1.27023">
        <ele>34.26</ele>
        <time>2018-05-29T11:24:22Z</time>
      </trkpt>
      <trkpt lat="49.23021" lon="1.26981">
        <ele>34.26</ele>
        <time>2018-05-29T11:24:27Z</time>
      </trkpt>
      <trkpt lat="49.2303" lon="1.26948">
        <ele>34.26</ele>
        <time>2018-05-29T11:24:31Z</time>
      </trkpt>
      <trkpt lat="49.23074" lon="1.2685">
        <ele>35.23</ele>
        <time>2018-05-29T11:24:44Z</time>
      </trkpt>
      <trkpt lat="49.23121" lon="1.26784">
        <ele>36.19</ele>
        <time>2018-05-29T11:24:56Z</time>
      </trkpt>
      <trkpt lat="49.23134" lon="1.26774">
        <ele>36.67</ele>
        <time>2018-05-29T11:24:59Z</time>
      </trkpt>
      <trkpt lat="49.2318" lon="1.26758">
        <ele>38.59</ele>
        <time>2018-05-29T11:25:11Z</time>
      </trkpt>
      <trkpt lat="49.23217" lon="1.26789">
        <ele>39.55</ele>
        <time>2018-05-29T11:25:22Z</time>
      </trkpt>
      <trkpt lat="49.23252" lon="1.26821">
        <ele>40.99</ele>
        <time>2018-05-29T11:25:32Z</time>
      </trkpt>
      <trkpt lat="49.23282" lon="1.26849">
        <ele>41.47</ele>
        <time>2018-05-29T11:25:40Z</time>
      </trkpt>
      <trkpt lat="49.2331" lon="1.26871">
        <ele>41.95</ele>
        <time>2018-05-29T11:25:47Z</time>
      </trkpt>
      <trkpt lat="49.23358" lon="1.26912">
        <ele>43.88</ele>
        <time>2018-05-29T11:26:00Z</time>
      </trkpt>
      <trkpt lat="49.23414" lon="1.2696">
        <ele>44.36</ele>
        <time>2018-05-29T11:26:15Z</time>
      </trkpt>
      <trkpt lat="49.23448" lon="1.27001">
        <ele>45.32</ele>
        <time>2018-05-29T11:26:25Z</time>
      </trkpt>
      <trkpt lat="49.23471" lon="1.2704">
        <ele>45.8</ele>
        <time>2018-05-29T11:26:33Z</time>
      </trkpt>
      <trkpt lat="49.23509" lon="1.27091">
        <ele>47.72</ele>
        <time>2018-05-29T11:26:46Z</time>
      </trkpt>
      <trkpt lat="49.23558" lon="1.27141">
        <ele>49.16</ele>
        <time>2018-05-29T11:27:01Z</time>
      </trkpt>
      <trkpt lat="49.23605" lon="1.272">
        <ele>51.57</ele>
        <time>2018-05-29T11:27:16Z</time>
      </trkpt>
      <trkpt lat="49.23644" lon="1.27245">
        <ele>52.53</ele>
        <time>2018-05-29T11:27:28Z</time>
      </trkpt>
      <trkpt lat="49.23673" lon="1.27273">
        <ele>53.01</ele>
        <time>2018-05-29T11:27:36Z</time>
      </trkpt>
      <trkpt lat="49.23701" lon="1.27305">
        <ele>53.49</ele>
        <time>2018-05-29T11:27:44Z</time>
      </trkpt>
      <trkpt lat="49.2374" lon="1.27358">
        <ele>54.45</ele>
        <time>2018-05-29T11:27:56Z</time>
      </trkpt>
      <trkpt lat="49.23754" lon="1.27381">
        <ele>54.93</ele>
        <time>2018-05-29T11:28:01Z</time>
      </trkpt>
      <trkpt lat="49.23776" lon="1.27419">
        <ele>54.93</ele>
        <time>2018-05-29T11:28:09Z</time>
      </trkpt>
      <trkpt lat="49.23814" lon="1.27454">
        <ele>54.93</ele>
        <time>2018-05-29T11:28:21Z</time>
      </trkpt>
      <trkpt lat="49.23818" lon="1.2745">
        <ele>54.93</ele>
        <time>2018-05-29T11:28:40Z</time>
      </trkpt>
      <trkpt lat="49.23819" lon="1.27454">
        <ele>54.93</ele>
        <time>2018-05-29T11:29:07Z</time>
      </trkpt>
      <trkpt lat="49.2382" lon="1.27466">
        <ele>54.93</ele>
        <time>2018-05-29T11:29:10Z</time>
      </trkpt>
      <trkpt lat="49.23832" lon="1.27481">
        <ele>54.93</ele>
        <time>2018-05-29T11:29:15Z</time>
      </trkpt>
      <trkpt lat="49.23858" lon="1.27508">
        <ele>54.93</ele>
        <time>2018-05-29T11:29:22Z</time>
      </trkpt>
      <trkpt lat="49.23864" lon="1.27517">
        <ele>54.93</ele>
        <time>2018-05-29T11:29:24Z</time>
      </trkpt>
      <trkpt lat="49.23872" lon="1.27526">
        <ele>54.93</ele>
        <time>2018-05-29T11:29:26Z</time>
      </trkpt>
      <trkpt lat="49.23889" lon="1.27542">
        <ele>53.97</ele>
        <time>2018-05-29T11:29:30Z</time>
      </trkpt>
      <trkpt lat="49.23893" lon="1.27546">
        <ele>53.97</ele>
        <time>2018-05-29T11:29:31Z</time>
      </trkpt>
      <trkpt lat="49.2395" lon="1.27609">
        <ele>53.01</ele>
        <time>2018-05-29T11:29:43Z</time>
      </trkpt>
      <trkpt lat="49.23954" lon="1.27613">
        <ele>53.01</ele>
        <time>2018-05-29T11:29:44Z</time>
      </trkpt>
      <trkpt lat="49.2397" lon="1.27631">
        <ele>51.57</ele>
        <time>2018-05-29T11:29:48Z</time>
      </trkpt>
      <trkpt lat="49.23988" lon="1.2765">
        <ele>51.57</ele>
        <time>2018-05-29T11:29:52Z</time>
      </trkpt>
      <trkpt lat="49.24006" lon="1.27661">
        <ele>51.09</ele>
        <time>2018-05-29T11:29:56Z</time>
      </trkpt>
      <trkpt lat="49.24061" lon="1.277">
        <ele>50.13</ele>
        <time>2018-05-29T11:30:06Z</time>
      </trkpt>
      <trkpt lat="49.24159" lon="1.27722">
        <ele>49.65</ele>
        <time>2018-05-29T11:30:22Z</time>
      </trkpt>
      <trkpt lat="49.24222" lon="1.27736">
        <ele>48.68</ele>
        <time>2018-05-29T11:30:34Z</time>
      </trkpt>
      <trkpt lat="49.24225" lon="1.27735">
        <ele>48.68</ele>
        <time>2018-05-29T11:30:38Z</time>
      </trkpt>
      <trkpt lat="49.24228" lon="1.27719">
        <ele>48.2</ele>
        <time>2018-05-29T11:30:43Z</time>
      </trkpt>
      <trkpt lat="49.2424" lon="1.27633">
        <ele>47.24</ele>
        <time>2018-05-29T11:30:57Z</time>
      </trkpt>
      <trkpt lat="49.24246" lon="1.2761">
        <ele>46.76</ele>
        <time>2018-05-29T11:31:01Z</time>
      </trkpt>
      <trkpt lat="49.2426" lon="1.27498">
        <ele>46.76</ele>
        <time>2018-05-29T11:31:18Z</time>
      </trkpt>
      <trkpt lat="49.24277" lon="1.27366">
        <ele>46.76</ele>
        <time>2018-05-29T11:31:36Z</time>
      </trkpt>
      <trkpt lat="49.243" lon="1.272">
        <ele>45.32</ele>
        <time>2018-05-29T11:31:55Z</time>
      </trkpt>
      <trkpt lat="49.2432" lon="1.27063">
        <ele>42.92</ele>
        <time>2018-05-29T11:32:10Z</time>
      </trkpt>
      <trkpt lat="49.24349" lon="1.26939">
        <ele>40.03</ele>
        <time>2018-05-29T11:32:26Z</time>
      </trkpt>
      <trkpt lat="49.24377" lon="1.26857">
        <ele>37.15</ele>
        <time>2018-05-29T11:32:36Z</time>
      </trkpt>
      <trkpt lat="49.24397" lon="1.26795">
        <ele>35.71</ele>
        <time>2018-05-29T11:32:44Z</time>
      </trkpt>
      <trkpt lat="49.24405" lon="1.26795">
        <ele>34.74</ele>
        <time>2018-05-29T11:32:48Z</time>
      </trkpt>
      <trkpt lat="49.24406" lon="1.26799">
        <ele>34.74</ele>
        <time>2018-05-29T11:32:49Z</time>
      </trkpt>
      <trkpt lat="49.24407" lon="1.26804">
        <ele>34.74</ele>
        <time>2018-05-29T11:32:50Z</time>
      </trkpt>
      <trkpt lat="49.24425" lon="1.26899">
        <ele>34.26</ele>
        <time>2018-05-29T11:33:02Z</time>
      </trkpt>
      <trkpt lat="49.24459" lon="1.27059">
        <ele>33.78</ele>
        <time>2018-05-29T11:33:19Z</time>
      </trkpt>
      <trkpt lat="49.24493" lon="1.27225">
        <ele>32.82</ele>
        <time>2018-05-29T11:33:35Z</time>
      </trkpt>
      <trkpt lat="49.24527" lon="1.27384">
        <ele>32.34</ele>
        <time>2018-05-29T11:33:52Z</time>
      </trkpt>
      <trkpt lat="49.24564" lon="1.27556">
        <ele>34.74</ele>
        <time>2018-05-29T11:34:12Z</time>
      </trkpt>
      <trkpt lat="49.24578" lon="1.27619">
        <ele>35.23</ele>
        <time>2018-05-29T11:34:20Z</time>
      </trkpt>
      <trkpt lat="49.24579" lon="1.27626">
        <ele>35.71</ele>
        <time>2018-05-29T11:34:21Z</time>
      </trkpt>
      <trkpt lat="49.24583" lon="1.27643">
        <ele>35.71</ele>
        <time>2018-05-29T11:34:23Z</time>
      </trkpt>
      <trkpt lat="49.24586" lon="1.27659">
        <ele>36.67</ele>
        <time>2018-05-29T11:34:25Z</time>
      </trkpt>
      <trkpt lat="49.24594" lon="1.27694">
        <ele>38.11</ele>
        <time>2018-05-29T11:34:30Z</time>
      </trkpt>
      <trkpt lat="49.24597" lon="1.27708">
        <ele>38.59</ele>
        <time>2018-05-29T11:34:32Z</time>
      </trkpt>
      <trkpt lat="49.24604" lon="1.27736">
        <ele>38.59</ele>
        <time>2018-05-29T11:34:36Z</time>
      </trkpt>
      <trkpt lat="49.24617" lon="1.27787">
        <ele>38.59</ele>
        <time>2018-05-29T11:34:43Z</time>
      </trkpt>
      <trkpt lat="49.24618" lon="1.27795">
        <ele>38.59</ele>
        <time>2018-05-29T11:34:44Z</time>
      </trkpt>
      <trkpt lat="49.24622" lon="1.2781">
        <ele>38.59</ele>
        <time>2018-05-29T11:34:46Z</time>
      </trkpt>
      <trkpt lat="49.24626" lon="1.27826">
        <ele>38.59</ele>
        <time>2018-05-29T11:34:48Z</time>
      </trkpt>
      <trkpt lat="49.24628" lon="1.27835">
        <ele>38.59</ele>
        <time>2018-05-29T11:34:49Z</time>
      </trkpt>
      <trkpt lat="49.24629" lon="1.27843">
        <ele>37.15</ele>
        <time>2018-05-29T11:34:50Z</time>
      </trkpt>
      <trkpt lat="49.24631" lon="1.27852">
        <ele>36.67</ele>
        <time>2018-05-29T11:34:51Z</time>
      </trkpt>
      <trkpt lat="49.24633" lon="1.27862">
        <ele>36.67</ele>
        <time>2018-05-29T11:34:52Z</time>
      </trkpt>
      <trkpt lat="49.24651" lon="1.27994">
        <ele>35.23</ele>
        <time>2018-05-29T11:35:04Z</time>
      </trkpt>
      <trkpt lat="49.24653" lon="1.28036">
        <ele>34.74</ele>
        <time>2018-05-29T11:35:08Z</time>
      </trkpt>
      <trkpt lat="49.24654" lon="1.28046">
        <ele>34.74</ele>
        <time>2018-05-29T11:35:09Z</time>
      </trkpt>
      <trkpt lat="49.24658" lon="1.28066">
        <ele>34.74</ele>
        <time>2018-05-29T11:35:11Z</time>
      </trkpt>
      <trkpt lat="49.24669" lon="1.281">
        <ele>35.23</ele>
        <time>2018-05-29T11:35:15Z</time>
      </trkpt>
      <trkpt lat="49.24673" lon="1.28108">
        <ele>35.23</ele>
        <time>2018-05-29T11:35:16Z</time>
      </trkpt>
      <trkpt lat="49.24691" lon="1.28142">
        <ele>35.23</ele>
        <time>2018-05-29T11:35:21Z</time>
      </trkpt>
      <trkpt lat="49.24699" lon="1.28164">
        <ele>36.19</ele>
        <time>2018-05-29T11:35:24Z</time>
      </trkpt>
      <trkpt lat="49.24706" lon="1.28186">
        <ele>36.67</ele>
        <time>2018-05-29T11:35:27Z</time>
      </trkpt>
      <trkpt lat="49.24716" lon="1.28222">
        <ele>38.59</ele>
        <time>2018-05-29T11:35:32Z</time>
      </trkpt>
      <trkpt lat="49.2472" lon="1.28237">
        <ele>39.07</ele>
        <time>2018-05-29T11:35:34Z</time>
      </trkpt>
      <trkpt lat="49.24722" lon="1.28244">
        <ele>39.07</ele>
        <time>2018-05-29T11:35:35Z</time>
      </trkpt>
      <trkpt lat="49.24734" lon="1.28278">
        <ele>40.99</ele>
        <time>2018-05-29T11:35:40Z</time>
      </trkpt>
      <trkpt lat="49.24758" lon="1.28326">
        <ele>42.92</ele>
        <time>2018-05-29T11:35:48Z</time>
      </trkpt>
      <trkpt lat="49.24764" lon="1.28338">
        <ele>43.88</ele>
        <time>2018-05-29T11:35:50Z</time>
      </trkpt>
      <trkpt lat="49.24797" lon="1.28415">
        <ele>46.28</ele>
        <time>2018-05-29T11:36:05Z</time>
      </trkpt>
      <trkpt lat="49.24801" lon="1.28433">
        <ele>46.76</ele>
        <time>2018-05-29T11:36:08Z</time>
      </trkpt>
      <trkpt lat="49.24817" lon="1.28526">
        <ele>48.68</ele>
        <time>2018-05-29T11:36:23Z</time>
      </trkpt>
      <trkpt lat="49.24843" lon="1.28636">
        <ele>50.13</ele>
        <time>2018-05-29T11:36:39Z</time>
      </trkpt>
      <trkpt lat="49.24887" lon="1.28718">
        <ele>52.05</ele>
        <time>2018-05-29T11:36:55Z</time>
      </trkpt>
      <trkpt lat="49.24934" lon="1.2879">
        <ele>54.93</ele>
        <time>2018-05-29T11:37:12Z</time>
      </trkpt>
      <trkpt lat="49.24981" lon="1.2886">
        <ele>58.3</ele>
        <time>2018-05-29T11:37:29Z</time>
      </trkpt>
      <trkpt lat="49.2503" lon="1.28937">
        <ele>62.14</ele>
        <time>2018-05-29T11:37:47Z</time>
      </trkpt>
      <trkpt lat="49.25073" lon="1.29006">
        <ele>64.55</ele>
        <time>2018-05-29T11:38:03Z</time>
      </trkpt>
      <trkpt lat="49.25132" lon="1.29111">
        <ele>66.95</ele>
        <time>2018-05-29T11:38:25Z</time>
      </trkpt>
      <trkpt lat="49.25154" lon="1.29148">
        <ele>67.43</ele>
        <time>2018-05-29T11:38:32Z</time>
      </trkpt>
      <trkpt lat="49.2521" lon="1.29199">
        <ele>68.87</ele>
        <time>2018-05-29T11:38:46Z</time>
      </trkpt>
      <trkpt lat="49.25309" lon="1.29259">
        <ele>71.27</ele>
        <time>2018-05-29T11:39:08Z</time>
      </trkpt>
      <trkpt lat="49.25399" lon="1.29315">
        <ele>71.27</ele>
        <time>2018-05-29T11:39:26Z</time>
      </trkpt>
      <trkpt lat="49.25444" lon="1.29342">
        <ele>69.83</ele>
        <time>2018-05-29T11:39:34Z</time>
      </trkpt>
      <trkpt lat="49.25548" lon="1.29405">
        <ele>68.39</ele>
        <time>2018-05-29T11:39:51Z</time>
      </trkpt>
      <trkpt lat="49.25669" lon="1.29462">
        <ele>68.39</ele>
        <time>2018-05-29T11:40:11Z</time>
      </trkpt>
      <trkpt lat="49.2573" lon="1.29477">
        <ele>67.43</ele>
        <time>2018-05-29T11:40:21Z</time>
      </trkpt>
      <trkpt lat="49.25736" lon="1.29479">
        <ele>67.43</ele>
        <time>2018-05-29T11:40:22Z</time>
      </trkpt>
      <trkpt lat="49.25884" lon="1.2951">
        <ele>64.55</ele>
        <time>2018-05-29T11:40:46Z</time>
      </trkpt>
      <trkpt lat="49.25989" lon="1.29531">
        <ele>62.14</ele>
        <time>2018-05-29T11:41:03Z</time>
      </trkpt>
      <trkpt lat="49.26083" lon="1.2955">
        <ele>61.18</ele>
        <time>2018-05-29T11:41:18Z</time>
      </trkpt>
      <trkpt lat="49.26172" lon="1.29567">
        <ele>59.74</ele>
        <time>2018-05-29T11:41:32Z</time>
      </trkpt>
      <trkpt lat="49.26293" lon="1.29592">
        <ele>56.37</ele>
        <time>2018-05-29T11:41:51Z</time>
      </trkpt>
      <trkpt lat="49.26351" lon="1.29604">
        <ele>56.37</ele>
        <time>2018-05-29T11:42:00Z</time>
      </trkpt>
      <trkpt lat="49.26401" lon="1.29617">
        <ele>53.49</ele>
        <time>2018-05-29T11:42:07Z</time>
      </trkpt>
      <trkpt lat="49.26408" lon="1.29621">
        <ele>53.01</ele>
        <time>2018-05-29T11:42:08Z</time>
      </trkpt>
      <trkpt lat="49.26415" lon="1.29628">
        <ele>52.53</ele>
        <time>2018-05-29T11:42:09Z</time>
      </trkpt>
      <trkpt lat="49.26422" lon="1.29636">
        <ele>52.53</ele>
        <time>2018-05-29T11:42:10Z</time>
      </trkpt>
      <trkpt lat="49.26428" lon="1.29645">
        <ele>51.09</ele>
        <time>2018-05-29T11:42:11Z</time>
      </trkpt>
      <trkpt lat="49.26434" lon="1.29654">
        <ele>51.09</ele>
        <time>2018-05-29T11:42:12Z</time>
      </trkpt>
      <trkpt lat="49.26439" lon="1.29665">
        <ele>50.13</ele>
        <time>2018-05-29T11:42:13Z</time>
      </trkpt>
      <trkpt lat="49.2647" lon="1.29734">
        <ele>47.24</ele>
        <time>2018-05-29T11:42:19Z</time>
      </trkpt>
      <trkpt lat="49.26479" lon="1.29758">
        <ele>46.28</ele>
        <time>2018-05-29T11:42:21Z</time>
      </trkpt>
      <trkpt lat="49.26503" lon="1.29823">
        <ele>42.92</ele>
        <time>2018-05-29T11:42:26Z</time>
      </trkpt>
      <trkpt lat="49.26518" lon="1.29879">
        <ele>40.03</ele>
        <time>2018-05-29T11:42:30Z</time>
      </trkpt>
      <trkpt lat="49.26521" lon="1.29894">
        <ele>39.55</ele>
        <time>2018-05-29T11:42:31Z</time>
      </trkpt>
      <trkpt lat="49.26522" lon="1.2991">
        <ele>38.59</ele>
        <time>2018-05-29T11:42:32Z</time>
      </trkpt>
      <trkpt lat="49.26526" lon="1.29973">
        <ele>36.19</ele>
        <time>2018-05-29T11:42:36Z</time>
      </trkpt>
      <trkpt lat="49.26518" lon="1.30099">
        <ele>34.26</ele>
        <time>2018-05-29T11:42:46Z</time>
      </trkpt>
      <trkpt lat="49.26518" lon="1.30117">
        <ele>34.26</ele>
        <time>2018-05-29T11:42:48Z</time>
      </trkpt>
      <trkpt lat="49.26518" lon="1.30125">
        <ele>34.26</ele>
        <time>2018-05-29T11:42:49Z</time>
      </trkpt>
      <trkpt lat="49.26519" lon="1.30133">
        <ele>34.26</ele>
        <time>2018-05-29T11:42:50Z</time>
      </trkpt>
      <trkpt lat="49.26521" lon="1.3014">
        <ele>34.26</ele>
        <time>2018-05-29T11:42:51Z</time>
      </trkpt>
      <trkpt lat="49.26523" lon="1.30146">
        <ele>34.26</ele>
        <time>2018-05-29T11:42:52Z</time>
      </trkpt>
      <trkpt lat="49.26526" lon="1.30152">
        <ele>34.26</ele>
        <time>2018-05-29T11:42:53Z</time>
      </trkpt>
      <trkpt lat="49.2653" lon="1.30158">
        <ele>34.74</ele>
        <time>2018-05-29T11:42:54Z</time>
      </trkpt>
      <trkpt lat="49.26534" lon="1.30162">
        <ele>34.74</ele>
        <time>2018-05-29T11:42:55Z</time>
      </trkpt>
      <trkpt lat="49.26539" lon="1.30166">
        <ele>34.74</ele>
        <time>2018-05-29T11:42:56Z</time>
      </trkpt>
      <trkpt lat="49.26543" lon="1.30169">
        <ele>34.74</ele>
        <time>2018-05-29T11:42:57Z</time>
      </trkpt>
      <trkpt lat="49.26549" lon="1.30172">
        <ele>34.74</ele>
        <time>2018-05-29T11:42:58Z</time>
      </trkpt>
      <trkpt lat="49.26555" lon="1.30174">
        <ele>34.74</ele>
        <time>2018-05-29T11:42:59Z</time>
      </trkpt>
      <trkpt lat="49.2656" lon="1.30174">
        <ele>34.74</ele>
        <time>2018-05-29T11:43:00Z</time>
      </trkpt>
      <trkpt lat="49.26566" lon="1.30175">
        <ele>34.74</ele>
        <time>2018-05-29T11:43:01Z</time>
      </trkpt>
      <trkpt lat="49.26626" lon="1.30184">
        <ele>35.71</ele>
        <time>2018-05-29T11:43:13Z</time>
      </trkpt>
      <trkpt lat="49.2667" lon="1.3019">
        <ele>39.07</ele>
        <time>2018-05-29T11:43:26Z</time>
      </trkpt>
      <trkpt lat="49.26705" lon="1.30201">
        <ele>41.95</ele>
        <time>2018-05-29T11:43:38Z</time>
      </trkpt>
      <trkpt lat="49.26746" lon="1.30214">
        <ele>45.32</ele>
        <time>2018-05-29T11:43:53Z</time>
      </trkpt>
      <trkpt lat="49.26788" lon="1.30226">
        <ele>48.68</ele>
        <time>2018-05-29T11:44:08Z</time>
      </trkpt>
      <trkpt lat="49.26809" lon="1.30288">
        <ele>51.09</ele>
        <time>2018-05-29T11:44:24Z</time>
      </trkpt>
      <trkpt lat="49.26812" lon="1.30343">
        <ele>54.45</ele>
        <time>2018-05-29T11:44:37Z</time>
      </trkpt>
      <trkpt lat="49.26825" lon="1.30399">
        <ele>56.86</ele>
        <time>2018-05-29T11:44:51Z</time>
      </trkpt>
      <trkpt lat="49.26862" lon="1.3042">
        <ele>60.22</ele>
        <time>2018-05-29T11:45:06Z</time>
      </trkpt>
      <trkpt lat="49.26905" lon="1.30426">
        <ele>63.58</ele>
        <time>2018-05-29T11:45:22Z</time>
      </trkpt>
      <trkpt lat="49.26939" lon="1.30432">
        <ele>66.47</ele>
        <time>2018-05-29T11:45:35Z</time>
      </trkpt>
      <trkpt lat="49.26982" lon="1.30443">
        <ele>69.83</ele>
        <time>2018-05-29T11:45:51Z</time>
      </trkpt>
      <trkpt lat="49.27026" lon="1.30471">
        <ele>73.2</ele>
        <time>2018-05-29T11:46:08Z</time>
      </trkpt>
      <trkpt lat="49.27064" lon="1.30497">
        <ele>76.08</ele>
        <time>2018-05-29T11:46:23Z</time>
      </trkpt>
      <trkpt lat="49.27096" lon="1.30482">
        <ele>78.48</ele>
        <time>2018-05-29T11:46:36Z</time>
      </trkpt>
      <trkpt lat="49.27111" lon="1.30439">
        <ele>81.37</ele>
        <time>2018-05-29T11:46:48Z</time>
      </trkpt>
      <trkpt lat="49.27121" lon="1.3037">
        <ele>84.73</ele>
        <time>2018-05-29T11:47:05Z</time>
      </trkpt>
      <trkpt lat="49.27128" lon="1.30315">
        <ele>87.62</ele>
        <time>2018-05-29T11:47:19Z</time>
      </trkpt>
      <trkpt lat="49.27136" lon="1.30251">
        <ele>90.5</ele>
        <time>2018-05-29T11:47:35Z</time>
      </trkpt>
      <trkpt lat="49.27142" lon="1.30185">
        <ele>93.87</ele>
        <time>2018-05-29T11:47:51Z</time>
      </trkpt>
      <trkpt lat="49.27152" lon="1.30114">
        <ele>96.75</ele>
        <time>2018-05-29T11:48:08Z</time>
      </trkpt>
      <trkpt lat="49.2717" lon="1.3006">
        <ele>99.15</ele>
        <time>2018-05-29T11:48:23Z</time>
      </trkpt>
      <trkpt lat="49.27207" lon="1.30021">
        <ele>101.56</ele>
        <time>2018-05-29T11:48:39Z</time>
      </trkpt>
      <trkpt lat="49.27251" lon="1.29978">
        <ele>104.92</ele>
        <time>2018-05-29T11:48:58Z</time>
      </trkpt>
      <trkpt lat="49.27286" lon="1.29933">
        <ele>106.84</ele>
        <time>2018-05-29T11:49:14Z</time>
      </trkpt>
      <trkpt lat="49.27291" lon="1.29878">
        <ele>107.81</ele>
        <time>2018-05-29T11:49:27Z</time>
      </trkpt>
      <trkpt lat="49.27255" lon="1.29863">
        <ele>109.25</ele>
        <time>2018-05-29T11:49:39Z</time>
      </trkpt>
      <trkpt lat="49.27211" lon="1.29848">
        <ele>110.69</ele>
        <time>2018-05-29T11:49:54Z</time>
      </trkpt>
      <trkpt lat="49.27203" lon="1.29795">
        <ele>112.61</ele>
        <time>2018-05-29T11:50:06Z</time>
      </trkpt>
      <trkpt lat="49.272" lon="1.29709">
        <ele>115.5</ele>
        <time>2018-05-29T11:50:26Z</time>
      </trkpt>
      <trkpt lat="49.27199" lon="1.29634">
        <ele>118.38</ele>
        <time>2018-05-29T11:50:43Z</time>
      </trkpt>
      <trkpt lat="49.27206" lon="1.29561">
        <ele>120.3</ele>
        <time>2018-05-29T11:51:00Z</time>
      </trkpt>
      <trkpt lat="49.2722" lon="1.29494">
        <ele>123.19</ele>
        <time>2018-05-29T11:51:16Z</time>
      </trkpt>
      <trkpt lat="49.27235" lon="1.29435">
        <ele>125.59</ele>
        <time>2018-05-29T11:51:30Z</time>
      </trkpt>
      <trkpt lat="49.27257" lon="1.29368">
        <ele>127.99</ele>
        <time>2018-05-29T11:51:45Z</time>
      </trkpt>
      <trkpt lat="49.27287" lon="1.29319">
        <ele>130.4</ele>
        <time>2018-05-29T11:51:59Z</time>
      </trkpt>
      <trkpt lat="49.27331" lon="1.29307">
        <ele>132.8</ele>
        <time>2018-05-29T11:52:13Z</time>
      </trkpt>
      <trkpt lat="49.27377" lon="1.29309">
        <ele>133.76</ele>
        <time>2018-05-29T11:52:26Z</time>
      </trkpt>
      <trkpt lat="49.27396" lon="1.29307">
        <ele>134.24</ele>
        <time>2018-05-29T11:52:30Z</time>
      </trkpt>
      <trkpt lat="49.27474" lon="1.29308">
        <ele>135.2</ele>
        <time>2018-05-29T11:52:47Z</time>
      </trkpt>
      <trkpt lat="49.27553" lon="1.29315">
        <ele>136.64</ele>
        <time>2018-05-29T11:53:03Z</time>
      </trkpt>
      <trkpt lat="49.27589" lon="1.29317">
        <ele>136.64</ele>
        <time>2018-05-29T11:53:10Z</time>
      </trkpt>
      <trkpt lat="49.27594" lon="1.29319">
        <ele>136.64</ele>
        <time>2018-05-29T11:53:11Z</time>
      </trkpt>
      <trkpt lat="49.27621" lon="1.29328">
        <ele>137.13</ele>
        <time>2018-05-29T11:53:16Z</time>
      </trkpt>
      <trkpt lat="49.27637" lon="1.29334">
        <ele>137.13</ele>
        <time>2018-05-29T11:53:19Z</time>
      </trkpt>
      <trkpt lat="49.27643" lon="1.29334">
        <ele>137.13</ele>
        <time>2018-05-29T11:53:20Z</time>
      </trkpt>
      <trkpt lat="49.27672" lon="1.29331">
        <ele>137.13</ele>
        <time>2018-05-29T11:53:25Z</time>
      </trkpt>
      <trkpt lat="49.27678" lon="1.29329">
        <ele>137.13</ele>
        <time>2018-05-29T11:53:26Z</time>
      </trkpt>
      <trkpt lat="49.27683" lon="1.29327">
        <ele>137.13</ele>
        <time>2018-05-29T11:53:27Z</time>
      </trkpt>
      <trkpt lat="49.27725" lon="1.29314">
        <ele>135.68</ele>
        <time>2018-05-29T11:53:34Z</time>
      </trkpt>
      <trkpt lat="49.27732" lon="1.29315">
        <ele>135.68</ele>
        <time>2018-05-29T11:53:35Z</time>
      </trkpt>
      <trkpt lat="49.27738" lon="1.29318">
        <ele>135.68</ele>
        <time>2018-05-29T11:53:36Z</time>
      </trkpt>
      <trkpt lat="49.27743" lon="1.29322">
        <ele>135.68</ele>
        <time>2018-05-29T11:53:37Z</time>
      </trkpt>
      <trkpt lat="49.27747" lon="1.29328">
        <ele>135.68</ele>
        <time>2018-05-29T11:53:38Z</time>
      </trkpt>
      <trkpt lat="49.27751" lon="1.29335">
        <ele>135.68</ele>
        <time>2018-05-29T11:53:39Z</time>
      </trkpt>
      <trkpt lat="49.27755" lon="1.29342">
        <ele>135.68</ele>
        <time>2018-05-29T11:53:40Z</time>
      </trkpt>
      <trkpt lat="49.27779" lon="1.29391">
        <ele>135.68</ele>
        <time>2018-05-29T11:53:47Z</time>
      </trkpt>
      <trkpt lat="49.27783" lon="1.29398">
        <ele>135.68</ele>
        <time>2018-05-29T11:53:48Z</time>
      </trkpt>
      <trkpt lat="49.27787" lon="1.29405">
        <ele>135.68</ele>
        <time>2018-05-29T11:53:49Z</time>
      </trkpt>
      <trkpt lat="49.27791" lon="1.2941">
        <ele>135.68</ele>
        <time>2018-05-29T11:53:50Z</time>
      </trkpt>
      <trkpt lat="49.27796" lon="1.29415">
        <ele>135.68</ele>
        <time>2018-05-29T11:53:51Z</time>
      </trkpt>
      <trkpt lat="49.27801" lon="1.29419">
        <ele>137.13</ele>
        <time>2018-05-29T11:53:52Z</time>
      </trkpt>
      <trkpt lat="49.27806" lon="1.29421">
        <ele>137.13</ele>
        <time>2018-05-29T11:53:53Z</time>
      </trkpt>
      <trkpt lat="49.2789" lon="1.29466">
        <ele>138.57</ele>
        <time>2018-05-29T11:54:09Z</time>
      </trkpt>
      <trkpt lat="49.27944" lon="1.29502">
        <ele>139.53</ele>
        <time>2018-05-29T11:54:20Z</time>
      </trkpt>
      <trkpt lat="49.2795" lon="1.29505">
        <ele>139.53</ele>
        <time>2018-05-29T11:54:21Z</time>
      </trkpt>
      <trkpt lat="49.27955" lon="1.29506">
        <ele>139.53</ele>
        <time>2018-05-29T11:54:22Z</time>
      </trkpt>
      <trkpt lat="49.27961" lon="1.29508">
        <ele>139.53</ele>
        <time>2018-05-29T11:54:23Z</time>
      </trkpt>
      <trkpt lat="49.27966" lon="1.29508">
        <ele>140.01</ele>
        <time>2018-05-29T11:54:24Z</time>
      </trkpt>
      <trkpt lat="49.28042" lon="1.29483">
        <ele>141.45</ele>
        <time>2018-05-29T11:54:39Z</time>
      </trkpt>
      <trkpt lat="49.28152" lon="1.29451">
        <ele>142.41</ele>
        <time>2018-05-29T11:54:59Z</time>
      </trkpt>
      <trkpt lat="49.28256" lon="1.29406">
        <ele>144.34</ele>
        <time>2018-05-29T11:55:18Z</time>
      </trkpt>
      <trkpt lat="49.28346" lon="1.29354">
        <ele>145.78</ele>
        <time>2018-05-29T11:55:35Z</time>
      </trkpt>
      <trkpt lat="49.2846" lon="1.29312">
        <ele>146.74</ele>
        <time>2018-05-29T11:55:56Z</time>
      </trkpt>
      <trkpt lat="49.28587" lon="1.29271">
        <ele>146.74</ele>
        <time>2018-05-29T11:56:18Z</time>
      </trkpt>
      <trkpt lat="49.28692" lon="1.29238">
        <ele>146.74</ele>
        <time>2018-05-29T11:56:35Z</time>
      </trkpt>
      <trkpt lat="49.28828" lon="1.29193">
        <ele>147.22</ele>
        <time>2018-05-29T11:56:56Z</time>
      </trkpt>
      <trkpt lat="49.28932" lon="1.29154">
        <ele>147.22</ele>
        <time>2018-05-29T11:57:12Z</time>
      </trkpt>
      <trkpt lat="49.29039" lon="1.29111">
        <ele>147.22</ele>
        <time>2018-05-29T11:57:29Z</time>
      </trkpt>
      <trkpt lat="49.29149" lon="1.29069">
        <ele>146.26</ele>
        <time>2018-05-29T11:57:46Z</time>
      </trkpt>
      <trkpt lat="49.29157" lon="1.29067">
        <ele>146.26</ele>
        <time>2018-05-29T11:57:47Z</time>
      </trkpt>
      <trkpt lat="49.29264" lon="1.29035">
        <ele>144.82</ele>
        <time>2018-05-29T11:58:02Z</time>
      </trkpt>
      <trkpt lat="49.29357" lon="1.28975">
        <ele>146.74</ele>
        <time>2018-05-29T11:58:18Z</time>
      </trkpt>
      <trkpt lat="49.29446" lon="1.28881">
        <ele>147.7</ele>
        <time>2018-05-29T11:58:35Z</time>
      </trkpt>
      <trkpt lat="49.29533" lon="1.28792">
        <ele>147.7</ele>
        <time>2018-05-29T11:58:51Z</time>
      </trkpt>
      <trkpt lat="49.29625" lon="1.28698">
        <ele>149.62</ele>
        <time>2018-05-29T11:59:09Z</time>
      </trkpt>
      <trkpt lat="49.29709" lon="1.28609">
        <ele>152.51</ele>
        <time>2018-05-29T11:59:26Z</time>
      </trkpt>
      <trkpt lat="49.29735" lon="1.28583">
        <ele>152.51</ele>
        <time>2018-05-29T11:59:31Z</time>
      </trkpt>
      <trkpt lat="49.29799" lon="1.28511">
        <ele>152.99</ele>
        <time>2018-05-29T11:59:44Z</time>
      </trkpt>
      <trkpt lat="49.29877" lon="1.28396">
        <ele>153.95</ele>
        <time>2018-05-29T12:00:02Z</time>
      </trkpt>
      <trkpt lat="49.29956" lon="1.28255">
        <ele>152.51</ele>
        <time>2018-05-29T12:00:21Z</time>
      </trkpt>
      <trkpt lat="49.30028" lon="1.28106">
        <ele>151.06</ele>
        <time>2018-05-29T12:00:40Z</time>
      </trkpt>
      <trkpt lat="49.30092" lon="1.27971">
        <ele>148.66</ele>
        <time>2018-05-29T12:00:56Z</time>
      </trkpt>
      <trkpt lat="49.30131" lon="1.27889">
        <ele>145.3</ele>
        <time>2018-05-29T12:01:05Z</time>
      </trkpt>
      <trkpt lat="49.3014" lon="1.27871">
        <ele>144.34</ele>
        <time>2018-05-29T12:01:07Z</time>
      </trkpt>
      <trkpt lat="49.3019" lon="1.27763">
        <ele>143.85</ele>
        <time>2018-05-29T12:01:19Z</time>
      </trkpt>
      <trkpt lat="49.30192" lon="1.27753">
        <ele>143.85</ele>
        <time>2018-05-29T12:01:20Z</time>
      </trkpt>
      <trkpt lat="49.30193" lon="1.27743">
        <ele>143.85</ele>
        <time>2018-05-29T12:01:21Z</time>
      </trkpt>
      <trkpt lat="49.30192" lon="1.27732">
        <ele>143.37</ele>
        <time>2018-05-29T12:01:22Z</time>
      </trkpt>
      <trkpt lat="49.3019" lon="1.27723">
        <ele>143.37</ele>
        <time>2018-05-29T12:01:23Z</time>
      </trkpt>
      <trkpt lat="49.30187" lon="1.27679">
        <ele>142.89</ele>
        <time>2018-05-29T12:01:27Z</time>
      </trkpt>
      <trkpt lat="49.30198" lon="1.27543">
        <ele>141.45</ele>
        <time>2018-05-29T12:01:41Z</time>
      </trkpt>
      <trkpt lat="49.30226" lon="1.27411">
        <ele>140.97</ele>
        <time>2018-05-29T12:01:57Z</time>
      </trkpt>
      <trkpt lat="49.30268" lon="1.2731">
        <ele>140.49</ele>
        <time>2018-05-29T12:02:10Z</time>
      </trkpt>
      <trkpt lat="49.30282" lon="1.27277">
        <ele>140.49</ele>
        <time>2018-05-29T12:02:15Z</time>
      </trkpt>
      <trkpt lat="49.30285" lon="1.27272">
        <ele>140.49</ele>
        <time>2018-05-29T12:02:16Z</time>
      </trkpt>
      <trkpt lat="49.30287" lon="1.27267">
        <ele>140.49</ele>
        <time>2018-05-29T12:02:17Z</time>
      </trkpt>
      <trkpt lat="49.30288" lon="1.27262">
        <ele>141.45</ele>
        <time>2018-05-29T12:02:18Z</time>
      </trkpt>
      <trkpt lat="49.30287" lon="1.27256">
        <ele>141.45</ele>
        <time>2018-05-29T12:02:19Z</time>
      </trkpt>
      <trkpt lat="49.30284" lon="1.27251">
        <ele>141.45</ele>
        <time>2018-05-29T12:02:20Z</time>
      </trkpt>
      <trkpt lat="49.30281" lon="1.27247">
        <ele>141.45</ele>
        <time>2018-05-29T12:02:21Z</time>
      </trkpt>
      <trkpt lat="49.30279" lon="1.27241">
        <ele>141.45</ele>
        <time>2018-05-29T12:02:22Z</time>
      </trkpt>
      <trkpt lat="49.30277" lon="1.27233">
        <ele>141.45</ele>
        <time>2018-05-29T12:02:23Z</time>
      </trkpt>
      <trkpt lat="49.30277" lon="1.27225">
        <ele>141.45</ele>
        <time>2018-05-29T12:02:24Z</time>
      </trkpt>
      <trkpt lat="49.30281" lon="1.27183">
        <ele>141.45</ele>
        <time>2018-05-29T12:02:29Z</time>
      </trkpt>
      <trkpt lat="49.30287" lon="1.27154">
        <ele>141.45</ele>
        <time>2018-05-29T12:02:32Z</time>
      </trkpt>
      <trkpt lat="49.30294" lon="1.27108">
        <ele>141.45</ele>
        <time>2018-05-29T12:02:37Z</time>
      </trkpt>
      <trkpt lat="49.30296" lon="1.26994">
        <ele>141.45</ele>
        <time>2018-05-29T12:02:49Z</time>
      </trkpt>
      <trkpt lat="49.30312" lon="1.26871">
        <ele>141.93</ele>
        <time>2018-05-29T12:03:02Z</time>
      </trkpt>
      <trkpt lat="49.30311" lon="1.26863">
        <ele>141.93</ele>
        <time>2018-05-29T12:03:03Z</time>
      </trkpt>
      <trkpt lat="49.30309" lon="1.26856">
        <ele>141.93</ele>
        <time>2018-05-29T12:03:04Z</time>
      </trkpt>
      <trkpt lat="49.30305" lon="1.26839">
        <ele>140.01</ele>
        <time>2018-05-29T12:03:06Z</time>
      </trkpt>
      <trkpt lat="49.30305" lon="1.26829">
        <ele>139.53</ele>
        <time>2018-05-29T12:03:07Z</time>
      </trkpt>
      <trkpt lat="49.30305" lon="1.26757">
        <ele>136.64</ele>
        <time>2018-05-29T12:03:13Z</time>
      </trkpt>
      <trkpt lat="49.30304" lon="1.26744">
        <ele>136.16</ele>
        <time>2018-05-29T12:03:14Z</time>
      </trkpt>
      <trkpt lat="49.30294" lon="1.26663">
        <ele>132.32</ele>
        <time>2018-05-29T12:03:20Z</time>
      </trkpt>
      <trkpt lat="49.3029" lon="1.2665">
        <ele>131.84</ele>
        <time>2018-05-29T12:03:21Z</time>
      </trkpt>
      <trkpt lat="49.30286" lon="1.26637">
        <ele>131.84</ele>
        <time>2018-05-29T12:03:22Z</time>
      </trkpt>
      <trkpt lat="49.30278" lon="1.26611">
        <ele>130.4</ele>
        <time>2018-05-29T12:03:24Z</time>
      </trkpt>
      <trkpt lat="49.30252" lon="1.26545">
        <ele>127.03</ele>
        <time>2018-05-29T12:03:29Z</time>
      </trkpt>
      <trkpt lat="49.30236" lon="1.26506">
        <ele>125.11</ele>
        <time>2018-05-29T12:03:32Z</time>
      </trkpt>
      <trkpt lat="49.3022" lon="1.26476">
        <ele>122.71</ele>
        <time>2018-05-29T12:03:35Z</time>
      </trkpt>
      <trkpt lat="49.30216" lon="1.26466">
        <ele>122.22</ele>
        <time>2018-05-29T12:03:36Z</time>
      </trkpt>
      <trkpt lat="49.30215" lon="1.26457">
        <ele>121.74</ele>
        <time>2018-05-29T12:03:37Z</time>
      </trkpt>
      <trkpt lat="49.30217" lon="1.26447">
        <ele>120.78</ele>
        <time>2018-05-29T12:03:38Z</time>
      </trkpt>
      <trkpt lat="49.30221" lon="1.26441">
        <ele>119.82</ele>
        <time>2018-05-29T12:03:39Z</time>
      </trkpt>
      <trkpt lat="49.30228" lon="1.26436">
        <ele>119.82</ele>
        <time>2018-05-29T12:03:40Z</time>
      </trkpt>
      <trkpt lat="49.30235" lon="1.26433">
        <ele>119.34</ele>
        <time>2018-05-29T12:03:41Z</time>
      </trkpt>
      <trkpt lat="49.30264" lon="1.26419">
        <ele>116.94</ele>
        <time>2018-05-29T12:03:45Z</time>
      </trkpt>
      <trkpt lat="49.30272" lon="1.26413">
        <ele>116.94</ele>
        <time>2018-05-29T12:03:46Z</time>
      </trkpt>
      <trkpt lat="49.30279" lon="1.26405">
        <ele>115.98</ele>
        <time>2018-05-29T12:03:47Z</time>
      </trkpt>
      <trkpt lat="49.30286" lon="1.26395">
        <ele>115.98</ele>
        <time>2018-05-29T12:03:48Z</time>
      </trkpt>
      <trkpt lat="49.30292" lon="1.26385">
        <ele>115.01</ele>
        <time>2018-05-29T12:03:49Z</time>
      </trkpt>
      <trkpt lat="49.30305" lon="1.26365">
        <ele>113.57</ele>
        <time>2018-05-29T12:03:51Z</time>
      </trkpt>
      <trkpt lat="49.30313" lon="1.26357">
        <ele>113.09</ele>
        <time>2018-05-29T12:03:52Z</time>
      </trkpt>
      <trkpt lat="49.30356" lon="1.26314">
        <ele>109.25</ele>
        <time>2018-05-29T12:03:57Z</time>
      </trkpt>
      <trkpt lat="49.30365" lon="1.26305">
        <ele>109.25</ele>
        <time>2018-05-29T12:03:58Z</time>
      </trkpt>
      <trkpt lat="49.30402" lon="1.26276">
        <ele>105.4</ele>
        <time>2018-05-29T12:04:02Z</time>
      </trkpt>
      <trkpt lat="49.30444" lon="1.26253">
        <ele>102.52</ele>
        <time>2018-05-29T12:04:06Z</time>
      </trkpt>
      <trkpt lat="49.30465" lon="1.26243">
        <ele>100.6</ele>
        <time>2018-05-29T12:04:08Z</time>
      </trkpt>
      <trkpt lat="49.30476" lon="1.26241">
        <ele>99.63</ele>
        <time>2018-05-29T12:04:09Z</time>
      </trkpt>
      <trkpt lat="49.30488" lon="1.26241">
        <ele>98.67</ele>
        <time>2018-05-29T12:04:10Z</time>
      </trkpt>
      <trkpt lat="49.30499" lon="1.26244">
        <ele>97.71</ele>
        <time>2018-05-29T12:04:11Z</time>
      </trkpt>
      <trkpt lat="49.30508" lon="1.2625">
        <ele>97.23</ele>
        <time>2018-05-29T12:04:12Z</time>
      </trkpt>
      <trkpt lat="49.30517" lon="1.26259">
        <ele>96.27</ele>
        <time>2018-05-29T12:04:13Z</time>
      </trkpt>
      <trkpt lat="49.30526" lon="1.26269">
        <ele>95.31</ele>
        <time>2018-05-29T12:04:14Z</time>
      </trkpt>
      <trkpt lat="49.30534" lon="1.2628">
        <ele>94.35</ele>
        <time>2018-05-29T12:04:15Z</time>
      </trkpt>
      <trkpt lat="49.30542" lon="1.2629">
        <ele>93.39</ele>
        <time>2018-05-29T12:04:16Z</time>
      </trkpt>
      <trkpt lat="49.30549" lon="1.26301">
        <ele>92.9</ele>
        <time>2018-05-29T12:04:17Z</time>
      </trkpt>
      <trkpt lat="49.3058" lon="1.26347">
        <ele>89.54</ele>
        <time>2018-05-29T12:04:21Z</time>
      </trkpt>
      <trkpt lat="49.30586" lon="1.26359">
        <ele>88.58</ele>
        <time>2018-05-29T12:04:22Z</time>
      </trkpt>
      <trkpt lat="49.3059" lon="1.26373">
        <ele>87.62</ele>
        <time>2018-05-29T12:04:23Z</time>
      </trkpt>
      <trkpt lat="49.30592" lon="1.26388">
        <ele>87.14</ele>
        <time>2018-05-29T12:04:24Z</time>
      </trkpt>
      <trkpt lat="49.30593" lon="1.26402">
        <ele>86.18</ele>
        <time>2018-05-29T12:04:25Z</time>
      </trkpt>
      <trkpt lat="49.30591" lon="1.26419">
        <ele>85.21</ele>
        <time>2018-05-29T12:04:26Z</time>
      </trkpt>
      <trkpt lat="49.3059" lon="1.26433">
        <ele>84.25</ele>
        <time>2018-05-29T12:04:27Z</time>
      </trkpt>
      <trkpt lat="49.30587" lon="1.2645">
        <ele>83.77</ele>
        <time>2018-05-29T12:04:28Z</time>
      </trkpt>
      <trkpt lat="49.30577" lon="1.26505">
        <ele>80.41</ele>
        <time>2018-05-29T12:04:32Z</time>
      </trkpt>
      <trkpt lat="49.30575" lon="1.26514">
        <ele>79.45</ele>
        <time>2018-05-29T12:04:33Z</time>
      </trkpt>
      <trkpt lat="49.30577" lon="1.2652">
        <ele>78.97</ele>
        <time>2018-05-29T12:04:34Z</time>
      </trkpt>
      <trkpt lat="49.30581" lon="1.26521">
        <ele>78.48</ele>
        <time>2018-05-29T12:04:35Z</time>
      </trkpt>
      <trkpt lat="49.30585" lon="1.26517">
        <ele>78.48</ele>
        <time>2018-05-29T12:04:36Z</time>
      </trkpt>
      <trkpt lat="49.30589" lon="1.2651">
        <ele>76.56</ele>
        <time>2018-05-29T12:04:37Z</time>
      </trkpt>
      <trkpt lat="49.30593" lon="1.26501">
        <ele>76.08</ele>
        <time>2018-05-29T12:04:38Z</time>
      </trkpt>
      <trkpt lat="49.30596" lon="1.26491">
        <ele>76.08</ele>
        <time>2018-05-29T12:04:39Z</time>
      </trkpt>
      <trkpt lat="49.30599" lon="1.26479">
        <ele>76.08</ele>
        <time>2018-05-29T12:04:40Z</time>
      </trkpt>
      <trkpt lat="49.30623" lon="1.26391">
        <ele>72.72</ele>
        <time>2018-05-29T12:04:47Z</time>
      </trkpt>
      <trkpt lat="49.30628" lon="1.26363">
        <ele>71.27</ele>
        <time>2018-05-29T12:04:49Z</time>
      </trkpt>
      <trkpt lat="49.30629" lon="1.26349">
        <ele>71.27</ele>
        <time>2018-05-29T12:04:50Z</time>
      </trkpt>
      <trkpt lat="49.30628" lon="1.26334">
        <ele>70.31</ele>
        <time>2018-05-29T12:04:51Z</time>
      </trkpt>
      <trkpt lat="49.30624" lon="1.2632">
        <ele>69.35</ele>
        <time>2018-05-29T12:04:52Z</time>
      </trkpt>
      <trkpt lat="49.30619" lon="1.26306">
        <ele>68.87</ele>
        <time>2018-05-29T12:04:53Z</time>
      </trkpt>
      <trkpt lat="49.30614" lon="1.26292">
        <ele>67.91</ele>
        <time>2018-05-29T12:04:54Z</time>
      </trkpt>
      <trkpt lat="49.30608" lon="1.26279">
        <ele>67.91</ele>
        <time>2018-05-29T12:04:55Z</time>
      </trkpt>
      <trkpt lat="49.30595" lon="1.26252">
        <ele>66.47</ele>
        <time>2018-05-29T12:04:57Z</time>
      </trkpt>
      <trkpt lat="49.30576" lon="1.2621">
        <ele>63.1</ele>
        <time>2018-05-29T12:05:00Z</time>
      </trkpt>
      <trkpt lat="49.30549" lon="1.26153">
        <ele>59.74</ele>
        <time>2018-05-29T12:05:04Z</time>
      </trkpt>
      <trkpt lat="49.30519" lon="1.26107">
        <ele>55.41</ele>
        <time>2018-05-29T12:05:08Z</time>
      </trkpt>
      <trkpt lat="49.30513" lon="1.26099">
        <ele>53.97</ele>
        <time>2018-05-29T12:05:09Z</time>
      </trkpt>
      <trkpt lat="49.3051" lon="1.26092">
        <ele>53.01</ele>
        <time>2018-05-29T12:05:10Z</time>
      </trkpt>
      <trkpt lat="49.3051" lon="1.26085">
        <ele>52.05</ele>
        <time>2018-05-29T12:05:11Z</time>
      </trkpt>
      <trkpt lat="49.30513" lon="1.2608">
        <ele>51.57</ele>
        <time>2018-05-29T12:05:12Z</time>
      </trkpt>
      <trkpt lat="49.30518" lon="1.26079">
        <ele>51.09</ele>
        <time>2018-05-29T12:05:13Z</time>
      </trkpt>
      <trkpt lat="49.30524" lon="1.26084">
        <ele>50.13</ele>
        <time>2018-05-29T12:05:14Z</time>
      </trkpt>
      <trkpt lat="49.30529" lon="1.26091">
        <ele>49.65</ele>
        <time>2018-05-29T12:05:15Z</time>
      </trkpt>
      <trkpt lat="49.30534" lon="1.26099">
        <ele>49.16</ele>
        <time>2018-05-29T12:05:16Z</time>
      </trkpt>
      <trkpt lat="49.3054" lon="1.26106">
        <ele>49.16</ele>
        <time>2018-05-29T12:05:17Z</time>
      </trkpt>
      <trkpt lat="49.30546" lon="1.26113">
        <ele>48.2</ele>
        <time>2018-05-29T12:05:18Z</time>
      </trkpt>
      <trkpt lat="49.30588" lon="1.26161">
        <ele>44.84</ele>
        <time>2018-05-29T12:05:24Z</time>
      </trkpt>
      <trkpt lat="49.306" lon="1.2618">
        <ele>43.4</ele>
        <time>2018-05-29T12:05:26Z</time>
      </trkpt>
      <trkpt lat="49.30605" lon="1.26188">
        <ele>42.44</ele>
        <time>2018-05-29T12:05:27Z</time>
      </trkpt>
      <trkpt lat="49.3061" lon="1.26192">
        <ele>41.95</ele>
        <time>2018-05-29T12:05:28Z</time>
      </trkpt>
      <trkpt lat="49.30616" lon="1.26192">
        <ele>41.47</ele>
        <time>2018-05-29T12:05:29Z</time>
      </trkpt>
      <trkpt lat="49.3062" lon="1.26186">
        <ele>40.99</ele>
        <time>2018-05-29T12:05:30Z</time>
      </trkpt>
      <trkpt lat="49.30622" lon="1.26177">
        <ele>40.51</ele>
        <time>2018-05-29T12:05:31Z</time>
      </trkpt>
      <trkpt lat="49.30621" lon="1.26167">
        <ele>39.55</ele>
        <time>2018-05-29T12:05:32Z</time>
      </trkpt>
      <trkpt lat="49.30619" lon="1.26155">
        <ele>38.59</ele>
        <time>2018-05-29T12:05:33Z</time>
      </trkpt>
      <trkpt lat="49.30617" lon="1.26143">
        <ele>38.59</ele>
        <time>2018-05-29T12:05:34Z</time>
      </trkpt>
      <trkpt lat="49.30612" lon="1.2609">
        <ele>35.71</ele>
        <time>2018-05-29T12:05:38Z</time>
      </trkpt>
      <trkpt lat="49.30611" lon="1.26075">
        <ele>34.74</ele>
        <time>2018-05-29T12:05:39Z</time>
      </trkpt>
      <trkpt lat="49.30608" lon="1.26061">
        <ele>33.78</ele>
        <time>2018-05-29T12:05:40Z</time>
      </trkpt>
      <trkpt lat="49.30604" lon="1.26047">
        <ele>33.3</ele>
        <time>2018-05-29T12:05:41Z</time>
      </trkpt>
      <trkpt lat="49.30585" lon="1.25991">
        <ele>29.94</ele>
        <time>2018-05-29T12:05:45Z</time>
      </trkpt>
      <trkpt lat="49.30569" lon="1.25939">
        <ele>26.09</ele>
        <time>2018-05-29T12:05:49Z</time>
      </trkpt>
      <trkpt lat="49.30558" lon="1.25905">
        <ele>22.73</ele>
        <time>2018-05-29T12:05:53Z</time>
      </trkpt>
      <trkpt lat="49.30559" lon="1.25896">
        <ele>22.73</ele>
        <time>2018-05-29T12:05:54Z</time>
      </trkpt>
      <trkpt lat="49.30562" lon="1.25887">
        <ele>21.77</ele>
        <time>2018-05-29T12:05:55Z</time>
      </trkpt>
      <trkpt lat="49.30566" lon="1.25881">
        <ele>21.77</ele>
        <time>2018-05-29T12:05:56Z</time>
      </trkpt>
      <trkpt lat="49.3057" lon="1.25876">
        <ele>21.77</ele>
        <time>2018-05-29T12:05:57Z</time>
      </trkpt>
      <trkpt lat="49.3063" lon="1.25794">
        <ele>20.81</ele>
        <time>2018-05-29T12:06:11Z</time>
      </trkpt>
      <trkpt lat="49.30634" lon="1.25788">
        <ele>20.81</ele>
        <time>2018-05-29T12:06:12Z</time>
      </trkpt>
      <trkpt lat="49.30651" lon="1.25761">
        <ele>20.81</ele>
        <time>2018-05-29T12:06:16Z</time>
      </trkpt>
      <trkpt lat="49.30718" lon="1.25668">
        <ele>19.84</ele>
        <time>2018-05-29T12:06:30Z</time>
      </trkpt>
      <trkpt lat="49.30779" lon="1.25585">
        <ele>19.84</ele>
        <time>2018-05-29T12:06:42Z</time>
      </trkpt>
      <trkpt lat="49.30857" lon="1.2547">
        <ele>19.84</ele>
        <time>2018-05-29T12:06:57Z</time>
      </trkpt>
      <trkpt lat="49.30925" lon="1.25361">
        <ele>18.88</ele>
        <time>2018-05-29T12:07:10Z</time>
      </trkpt>
      <trkpt lat="49.31018" lon="1.25215">
        <ele>17.44</ele>
        <time>2018-05-29T12:07:27Z</time>
      </trkpt>
      <trkpt lat="49.31033" lon="1.25188">
        <ele>17.44</ele>
        <time>2018-05-29T12:07:30Z</time>
      </trkpt>
      <trkpt lat="49.31045" lon="1.25171">
        <ele>16.96</ele>
        <time>2018-05-29T12:07:32Z</time>
      </trkpt>
      <trkpt lat="49.3105" lon="1.25162">
        <ele>16.96</ele>
        <time>2018-05-29T12:07:33Z</time>
      </trkpt>
      <trkpt lat="49.31093" lon="1.25081">
        <ele>16.48</ele>
        <time>2018-05-29T12:07:42Z</time>
      </trkpt>
      <trkpt lat="49.31105" lon="1.25051">
        <ele>16</ele>
        <time>2018-05-29T12:07:45Z</time>
      </trkpt>
      <trkpt lat="49.31108" lon="1.2504">
        <ele>16</ele>
        <time>2018-05-29T12:07:46Z</time>
      </trkpt>
      <trkpt lat="49.31111" lon="1.25029">
        <ele>16</ele>
        <time>2018-05-29T12:07:47Z</time>
      </trkpt>
      <trkpt lat="49.31113" lon="1.25019">
        <ele>16</ele>
        <time>2018-05-29T12:07:48Z</time>
      </trkpt>
      <trkpt lat="49.31114" lon="1.25008">
        <ele>16</ele>
        <time>2018-05-29T12:07:49Z</time>
      </trkpt>
      <trkpt lat="49.31115" lon="1.24997">
        <ele>15.52</ele>
        <time>2018-05-29T12:07:50Z</time>
      </trkpt>
      <trkpt lat="49.31118" lon="1.24965">
        <ele>15.52</ele>
        <time>2018-05-29T12:07:53Z</time>
      </trkpt>
      <trkpt lat="49.31121" lon="1.24955">
        <ele>15.04</ele>
        <time>2018-05-29T12:07:54Z</time>
      </trkpt>
      <trkpt lat="49.31168" lon="1.24811">
        <ele>13.6</ele>
        <time>2018-05-29T12:08:08Z</time>
      </trkpt>
      <trkpt lat="49.3123" lon="1.24675">
        <ele>13.6</ele>
        <time>2018-05-29T12:08:23Z</time>
      </trkpt>
      <trkpt lat="49.31309" lon="1.24525">
        <ele>14.56</ele>
        <time>2018-05-29T12:08:41Z</time>
      </trkpt>
      <trkpt lat="49.31354" lon="1.24442">
        <ele>15.52</ele>
        <time>2018-05-29T12:08:51Z</time>
      </trkpt>
      <trkpt lat="49.3142" lon="1.24346">
        <ele>16.96</ele>
        <time>2018-05-29T12:09:05Z</time>
      </trkpt>
      <trkpt lat="49.31429" lon="1.24334">
        <ele>16.48</ele>
        <time>2018-05-29T12:09:07Z</time>
      </trkpt>
      <trkpt lat="49.31433" lon="1.24329">
        <ele>16.48</ele>
        <time>2018-05-29T12:09:08Z</time>
      </trkpt>
      <trkpt lat="49.31435" lon="1.24322">
        <ele>16.48</ele>
        <time>2018-05-29T12:09:09Z</time>
      </trkpt>
      <trkpt lat="49.31435" lon="1.24313">
        <ele>16.48</ele>
        <time>2018-05-29T12:09:10Z</time>
      </trkpt>
      <trkpt lat="49.31432" lon="1.24306">
        <ele>16.48</ele>
        <time>2018-05-29T12:09:11Z</time>
      </trkpt>
      <trkpt lat="49.31428" lon="1.24299">
        <ele>16.48</ele>
        <time>2018-05-29T12:09:12Z</time>
      </trkpt>
      <trkpt lat="49.31423" lon="1.24291">
        <ele>15.04</ele>
        <time>2018-05-29T12:09:13Z</time>
      </trkpt>
      <trkpt lat="49.31417" lon="1.24283">
        <ele>14.56</ele>
        <time>2018-05-29T12:09:14Z</time>
      </trkpt>
      <trkpt lat="49.314" lon="1.24256">
        <ele>13.12</ele>
        <time>2018-05-29T12:09:17Z</time>
      </trkpt>
      <trkpt lat="49.31394" lon="1.24247">
        <ele>13.12</ele>
        <time>2018-05-29T12:09:18Z</time>
      </trkpt>
      <trkpt lat="49.31349" lon="1.24181">
        <ele>12.63</ele>
        <time>2018-05-29T12:09:26Z</time>
      </trkpt>
      <trkpt lat="49.31339" lon="1.24165">
        <ele>12.63</ele>
        <time>2018-05-29T12:09:28Z</time>
      </trkpt>
      <trkpt lat="49.3128" lon="1.24067">
        <ele>12.63</ele>
        <time>2018-05-29T12:09:41Z</time>
      </trkpt>
      <trkpt lat="49.31257" lon="1.24029">
        <ele>12.15</ele>
        <time>2018-05-29T12:09:47Z</time>
      </trkpt>
      <trkpt lat="49.31254" lon="1.24021">
        <ele>12.15</ele>
        <time>2018-05-29T12:09:48Z</time>
      </trkpt>
      <trkpt lat="49.31253" lon="1.24014">
        <ele>12.15</ele>
        <time>2018-05-29T12:09:49Z</time>
      </trkpt>
      <trkpt lat="49.31252" lon="1.24006">
        <ele>12.15</ele>
        <time>2018-05-29T12:09:50Z</time>
      </trkpt>
      <trkpt lat="49.31251" lon="1.23999">
        <ele>12.15</ele>
        <time>2018-05-29T12:09:51Z</time>
      </trkpt>
      <trkpt lat="49.31251" lon="1.23992">
        <ele>12.15</ele>
        <time>2018-05-29T12:09:52Z</time>
      </trkpt>
      <trkpt lat="49.3125" lon="1.23984">
        <ele>12.15</ele>
        <time>2018-05-29T12:09:53Z</time>
      </trkpt>
      <trkpt lat="49.3125" lon="1.23976">
        <ele>12.15</ele>
        <time>2018-05-29T12:09:54Z</time>
      </trkpt>
      <trkpt lat="49.31251" lon="1.23954">
        <ele>12.15</ele>
        <time>2018-05-29T12:09:57Z</time>
      </trkpt>
      <trkpt lat="49.31268" lon="1.23873">
        <ele>11.67</ele>
        <time>2018-05-29T12:10:08Z</time>
      </trkpt>
      <trkpt lat="49.3127" lon="1.2385">
        <ele>11.67</ele>
        <time>2018-05-29T12:10:11Z</time>
      </trkpt>
      <trkpt lat="49.31269" lon="1.23843">
        <ele>11.67</ele>
        <time>2018-05-29T12:10:12Z</time>
      </trkpt>
      <trkpt lat="49.31268" lon="1.23836">
        <ele>11.67</ele>
        <time>2018-05-29T12:10:13Z</time>
      </trkpt>
      <trkpt lat="49.31267" lon="1.23822">
        <ele>11.67</ele>
        <time>2018-05-29T12:10:15Z</time>
      </trkpt>
      <trkpt lat="49.31267" lon="1.23781">
        <ele>11.19</ele>
        <time>2018-05-29T12:10:23Z</time>
      </trkpt>
      <trkpt lat="49.31266" lon="1.23779">
        <ele>11.19</ele>
        <time>2018-05-29T12:10:24Z</time>
      </trkpt>
      <trkpt lat="49.31263" lon="1.23784">
        <ele>11.19</ele>
        <time>2018-05-29T12:10:27Z</time>
      </trkpt>
      <trkpt lat="49.31262" lon="1.2379">
        <ele>11.19</ele>
        <time>2018-05-29T12:10:28Z</time>
      </trkpt>
      <trkpt lat="49.31262" lon="1.23795">
        <ele>11.19</ele>
        <time>2018-05-29T12:10:29Z</time>
      </trkpt>
      <trkpt lat="49.31262" lon="1.23801">
        <ele>11.19</ele>
        <time>2018-05-29T12:10:30Z</time>
      </trkpt>
      <trkpt lat="49.31262" lon="1.23806">
        <ele>12.63</ele>
        <time>2018-05-29T12:10:31Z</time>
      </trkpt>
      <trkpt lat="49.31257" lon="1.23837">
        <ele>16.48</ele>
        <time>2018-05-29T12:10:38Z</time>
      </trkpt>
      <trkpt lat="49.31256" lon="1.23839">
        <ele>16.48</ele>
        <time>2018-05-29T12:10:39Z</time>
      </trkpt>
      <trkpt lat="49.31255" lon="1.23839">
        <ele>16.96</ele>
        <time>2018-05-29T12:10:41Z</time>
      </trkpt>
      <trkpt lat="49.31231" lon="1.23818">
        <ele>18.88</ele>
        <time>2018-05-29T12:10:53Z</time>
      </trkpt>
    </trkseg>
  </trk>
</gpx>